<?xml version="1.0" encoding="UTF-8" standalone="no" ?>
<gpx xmlns="http://www.topografix.com/GPX/1/1" xmlns:xsi="http://www.w3.org/2001/XMLSchema-instance" xsi:schemaLocation="http://www.topografix.com/GPX/1/1 http://www.topografix.com/GPX/1/1/gpx.xsd" version="1.1" creator="VisuGPX - https://www.visugpx.com">
  <metadata>
    <name>L'ORSALHER VTT 2024 Trace de Base - Points de nettoyage </name>
  </metadata>
  <trk>
    <name><![CDATA[L'ORSALHER VTT 2024 Trace de Base - Points de nettoyage _1]]></name>
    <trkseg>
      <trkpt lat="42.86362" lon="1.20251">
        <ele>497.6</ele>
        <time>2024-06-16T13:11:18Z</time>
      </trkpt>
      <trkpt lat="42.8636" lon="1.20244">
        <ele>497.6</ele>
        <time>2024-06-16T13:11:22Z</time>
      </trkpt>
      <trkpt lat="42.8636" lon="1.20242">
        <ele>497.8</ele>
        <time>2024-06-16T13:11:23Z</time>
      </trkpt>
      <trkpt lat="42.86354" lon="1.20234">
        <ele>497.8</ele>
        <time>2024-06-16T13:11:29Z</time>
      </trkpt>
      <trkpt lat="42.86346" lon="1.20226">
        <ele>497.8</ele>
        <time>2024-06-16T13:11:35Z</time>
      </trkpt>
      <trkpt lat="42.86339" lon="1.20224">
        <ele>497.8</ele>
        <time>2024-06-16T13:11:39Z</time>
      </trkpt>
      <trkpt lat="42.86334" lon="1.20225">
        <ele>497.8</ele>
        <time>2024-06-16T13:11:42Z</time>
      </trkpt>
      <trkpt lat="42.86331" lon="1.20219">
        <ele>497.8</ele>
        <time>2024-06-16T13:11:45Z</time>
      </trkpt>
      <trkpt lat="42.86331" lon="1.20214">
        <ele>497.8</ele>
        <time>2024-06-16T13:11:47Z</time>
      </trkpt>
      <trkpt lat="42.86338" lon="1.20202">
        <ele>497.8</ele>
        <time>2024-06-16T13:11:52Z</time>
      </trkpt>
      <trkpt lat="42.86346" lon="1.20192">
        <ele>497.8</ele>
        <time>2024-06-16T13:11:57Z</time>
      </trkpt>
      <trkpt lat="42.86348" lon="1.2019">
        <ele>497.8</ele>
        <time>2024-06-16T13:11:58Z</time>
      </trkpt>
      <trkpt lat="42.86352" lon="1.20186">
        <ele>497.8</ele>
        <time>2024-06-16T13:12:02Z</time>
      </trkpt>
      <trkpt lat="42.86353" lon="1.20183">
        <ele>497.8</ele>
        <time>2024-06-16T13:12:03Z</time>
      </trkpt>
      <trkpt lat="42.86353" lon="1.20173">
        <ele>497.8</ele>
        <time>2024-06-16T13:12:05Z</time>
      </trkpt>
      <trkpt lat="42.86361" lon="1.20159">
        <ele>497.8</ele>
        <time>2024-06-16T13:12:09Z</time>
      </trkpt>
      <trkpt lat="42.86373" lon="1.20147">
        <ele>497.8</ele>
        <time>2024-06-16T13:12:14Z</time>
      </trkpt>
      <trkpt lat="42.86375" lon="1.20144">
        <ele>497.8</ele>
        <time>2024-06-16T13:12:15Z</time>
      </trkpt>
      <trkpt lat="42.86388" lon="1.20135">
        <ele>497.8</ele>
        <time>2024-06-16T13:12:20Z</time>
      </trkpt>
      <trkpt lat="42.86404" lon="1.20132">
        <ele>497.8</ele>
        <time>2024-06-16T13:12:25Z</time>
      </trkpt>
      <trkpt lat="42.8642" lon="1.20124">
        <ele>497.8</ele>
        <time>2024-06-16T13:12:31Z</time>
      </trkpt>
      <trkpt lat="42.86424" lon="1.20122">
        <ele>498.4</ele>
        <time>2024-06-16T13:12:33Z</time>
      </trkpt>
      <trkpt lat="42.86425" lon="1.2012">
        <ele>498.8</ele>
        <time>2024-06-16T13:12:34Z</time>
      </trkpt>
      <trkpt lat="42.86427" lon="1.20118">
        <ele>499.2</ele>
        <time>2024-06-16T13:12:35Z</time>
      </trkpt>
      <trkpt lat="42.86429" lon="1.20116">
        <ele>499.6</ele>
        <time>2024-06-16T13:12:36Z</time>
      </trkpt>
      <trkpt lat="42.8643" lon="1.20114">
        <ele>500</ele>
        <time>2024-06-16T13:12:37Z</time>
      </trkpt>
      <trkpt lat="42.86438" lon="1.20106">
        <ele>500</ele>
        <time>2024-06-16T13:12:43Z</time>
      </trkpt>
      <trkpt lat="42.86442" lon="1.20099">
        <ele>500</ele>
        <time>2024-06-16T13:12:48Z</time>
      </trkpt>
      <trkpt lat="42.86452" lon="1.20089">
        <ele>500</ele>
        <time>2024-06-16T13:12:52Z</time>
      </trkpt>
      <trkpt lat="42.86461" lon="1.20075">
        <ele>500.4</ele>
        <time>2024-06-16T13:12:56Z</time>
      </trkpt>
      <trkpt lat="42.86463" lon="1.20071">
        <ele>500.8</ele>
        <time>2024-06-16T13:12:57Z</time>
      </trkpt>
      <trkpt lat="42.86465" lon="1.20066">
        <ele>501.4</ele>
        <time>2024-06-16T13:12:58Z</time>
      </trkpt>
      <trkpt lat="42.86466" lon="1.20061">
        <ele>501.8</ele>
        <time>2024-06-16T13:12:59Z</time>
      </trkpt>
      <trkpt lat="42.86468" lon="1.20056">
        <ele>502.2</ele>
        <time>2024-06-16T13:13:00Z</time>
      </trkpt>
      <trkpt lat="42.86482" lon="1.20029">
        <ele>502.2</ele>
        <time>2024-06-16T13:13:06Z</time>
      </trkpt>
      <trkpt lat="42.86493" lon="1.20013">
        <ele>502.6</ele>
        <time>2024-06-16T13:13:11Z</time>
      </trkpt>
      <trkpt lat="42.86495" lon="1.2001">
        <ele>503</ele>
        <time>2024-06-16T13:13:12Z</time>
      </trkpt>
      <trkpt lat="42.86496" lon="1.20006">
        <ele>503.4</ele>
        <time>2024-06-16T13:13:13Z</time>
      </trkpt>
      <trkpt lat="42.86497" lon="1.20004">
        <ele>503.8</ele>
        <time>2024-06-16T13:13:14Z</time>
      </trkpt>
      <trkpt lat="42.86499" lon="1.20001">
        <ele>504.2</ele>
        <time>2024-06-16T13:13:15Z</time>
      </trkpt>
      <trkpt lat="42.86513" lon="1.19979">
        <ele>504.2</ele>
        <time>2024-06-16T13:13:23Z</time>
      </trkpt>
      <trkpt lat="42.86518" lon="1.19974">
        <ele>504.6</ele>
        <time>2024-06-16T13:13:25Z</time>
      </trkpt>
      <trkpt lat="42.8652" lon="1.19972">
        <ele>505</ele>
        <time>2024-06-16T13:13:26Z</time>
      </trkpt>
      <trkpt lat="42.86523" lon="1.19969">
        <ele>505.4</ele>
        <time>2024-06-16T13:13:27Z</time>
      </trkpt>
      <trkpt lat="42.86524" lon="1.19966">
        <ele>505.8</ele>
        <time>2024-06-16T13:13:28Z</time>
      </trkpt>
      <trkpt lat="42.86526" lon="1.19963">
        <ele>506.2</ele>
        <time>2024-06-16T13:13:29Z</time>
      </trkpt>
      <trkpt lat="42.86528" lon="1.19962">
        <ele>506.2</ele>
        <time>2024-06-16T13:13:30Z</time>
      </trkpt>
      <trkpt lat="42.8653" lon="1.19959">
        <ele>506.2</ele>
        <time>2024-06-16T13:13:32Z</time>
      </trkpt>
      <trkpt lat="42.86531" lon="1.19954">
        <ele>506.2</ele>
        <time>2024-06-16T13:13:34Z</time>
      </trkpt>
      <trkpt lat="42.86533" lon="1.19948">
        <ele>506.6</ele>
        <time>2024-06-16T13:13:36Z</time>
      </trkpt>
      <trkpt lat="42.86533" lon="1.19944">
        <ele>507</ele>
        <time>2024-06-16T13:13:37Z</time>
      </trkpt>
      <trkpt lat="42.86533" lon="1.1994">
        <ele>507.6</ele>
        <time>2024-06-16T13:13:38Z</time>
      </trkpt>
      <trkpt lat="42.86533" lon="1.19936">
        <ele>508</ele>
        <time>2024-06-16T13:13:39Z</time>
      </trkpt>
      <trkpt lat="42.86533" lon="1.19933">
        <ele>508.4</ele>
        <time>2024-06-16T13:13:40Z</time>
      </trkpt>
      <trkpt lat="42.86534" lon="1.1991">
        <ele>508.4</ele>
        <time>2024-06-16T13:13:46Z</time>
      </trkpt>
      <trkpt lat="42.86534" lon="1.19902">
        <ele>508.8</ele>
        <time>2024-06-16T13:13:48Z</time>
      </trkpt>
      <trkpt lat="42.86534" lon="1.19897">
        <ele>509.2</ele>
        <time>2024-06-16T13:13:49Z</time>
      </trkpt>
      <trkpt lat="42.86534" lon="1.19893">
        <ele>509.6</ele>
        <time>2024-06-16T13:13:50Z</time>
      </trkpt>
      <trkpt lat="42.86534" lon="1.19889">
        <ele>510.2</ele>
        <time>2024-06-16T13:13:51Z</time>
      </trkpt>
      <trkpt lat="42.86534" lon="1.19885">
        <ele>510.6</ele>
        <time>2024-06-16T13:13:52Z</time>
      </trkpt>
      <trkpt lat="42.86535" lon="1.19881">
        <ele>510.6</ele>
        <time>2024-06-16T13:13:53Z</time>
      </trkpt>
      <trkpt lat="42.86539" lon="1.19871">
        <ele>510.6</ele>
        <time>2024-06-16T13:13:56Z</time>
      </trkpt>
      <trkpt lat="42.86547" lon="1.19848">
        <ele>510.6</ele>
        <time>2024-06-16T13:14:03Z</time>
      </trkpt>
      <trkpt lat="42.86549" lon="1.19841">
        <ele>511</ele>
        <time>2024-06-16T13:14:05Z</time>
      </trkpt>
      <trkpt lat="42.86551" lon="1.19837">
        <ele>511.4</ele>
        <time>2024-06-16T13:14:06Z</time>
      </trkpt>
      <trkpt lat="42.86553" lon="1.19834">
        <ele>511.8</ele>
        <time>2024-06-16T13:14:07Z</time>
      </trkpt>
      <trkpt lat="42.86554" lon="1.1983">
        <ele>512.2</ele>
        <time>2024-06-16T13:14:08Z</time>
      </trkpt>
      <trkpt lat="42.86555" lon="1.19827">
        <ele>512.6</ele>
        <time>2024-06-16T13:14:09Z</time>
      </trkpt>
      <trkpt lat="42.86564" lon="1.19794">
        <ele>512.6</ele>
        <time>2024-06-16T13:14:18Z</time>
      </trkpt>
      <trkpt lat="42.86566" lon="1.19782">
        <ele>512.6</ele>
        <time>2024-06-16T13:14:22Z</time>
      </trkpt>
      <trkpt lat="42.86569" lon="1.19766">
        <ele>512.6</ele>
        <time>2024-06-16T13:14:26Z</time>
      </trkpt>
      <trkpt lat="42.86568" lon="1.19761">
        <ele>512.6</ele>
        <time>2024-06-16T13:14:27Z</time>
      </trkpt>
      <trkpt lat="42.86563" lon="1.19743">
        <ele>512.6</ele>
        <time>2024-06-16T13:14:33Z</time>
      </trkpt>
      <trkpt lat="42.86563" lon="1.19744">
        <ele>512.6</ele>
        <time>2024-06-16T13:14:37Z</time>
      </trkpt>
      <trkpt lat="42.86562" lon="1.19744">
        <ele>512.6</ele>
        <time>2024-06-16T13:14:39Z</time>
      </trkpt>
      <trkpt lat="42.86564" lon="1.19746">
        <ele>512.6</ele>
        <time>2024-06-16T13:14:42Z</time>
      </trkpt>
      <trkpt lat="42.86565" lon="1.19748">
        <ele>512.6</ele>
        <time>2024-06-16T13:14:44Z</time>
      </trkpt>
      <trkpt lat="42.86567" lon="1.19748">
        <ele>512.6</ele>
        <time>2024-06-16T13:14:47Z</time>
      </trkpt>
      <trkpt lat="42.86573" lon="1.19736">
        <ele>512.6</ele>
        <time>2024-06-16T13:14:56Z</time>
      </trkpt>
      <trkpt lat="42.86572" lon="1.1973">
        <ele>512.6</ele>
        <time>2024-06-16T13:15:00Z</time>
      </trkpt>
      <trkpt lat="42.86571" lon="1.19728">
        <ele>512.6</ele>
        <time>2024-06-16T13:15:01Z</time>
      </trkpt>
      <trkpt lat="42.86573" lon="1.19726">
        <ele>512.6</ele>
        <time>2024-06-16T13:15:05Z</time>
      </trkpt>
      <trkpt lat="42.86575" lon="1.19735">
        <ele>512.6</ele>
        <time>2024-06-16T13:15:10Z</time>
      </trkpt>
      <trkpt lat="42.86574" lon="1.19738">
        <ele>512.6</ele>
        <time>2024-06-16T13:15:11Z</time>
      </trkpt>
      <trkpt lat="42.86569" lon="1.19757">
        <ele>512.6</ele>
        <time>2024-06-16T13:15:18Z</time>
      </trkpt>
      <trkpt lat="42.8657" lon="1.19759">
        <ele>512.6</ele>
        <time>2024-06-16T13:15:19Z</time>
      </trkpt>
      <trkpt lat="42.86574" lon="1.19761">
        <ele>512.6</ele>
        <time>2024-06-16T13:15:21Z</time>
      </trkpt>
      <trkpt lat="42.86576" lon="1.19761">
        <ele>512.6</ele>
        <time>2024-06-16T13:15:23Z</time>
      </trkpt>
      <trkpt lat="42.86578" lon="1.1976">
        <ele>512.6</ele>
        <time>2024-06-16T13:15:26Z</time>
      </trkpt>
      <trkpt lat="42.86586" lon="1.19759">
        <ele>512.6</ele>
        <time>2024-06-16T13:15:31Z</time>
      </trkpt>
      <trkpt lat="42.86593" lon="1.19758">
        <ele>512.6</ele>
        <time>2024-06-16T13:15:37Z</time>
      </trkpt>
      <trkpt lat="42.86594" lon="1.19757">
        <ele>513</ele>
        <time>2024-06-16T13:15:39Z</time>
      </trkpt>
      <trkpt lat="42.86595" lon="1.19757">
        <ele>513.4</ele>
        <time>2024-06-16T13:15:40Z</time>
      </trkpt>
      <trkpt lat="42.86596" lon="1.19757">
        <ele>514.6</ele>
        <time>2024-06-16T13:16:14Z</time>
      </trkpt>
      <trkpt lat="42.86598" lon="1.19757">
        <ele>514.6</ele>
        <time>2024-06-16T13:16:15Z</time>
      </trkpt>
      <trkpt lat="42.8661" lon="1.19757">
        <ele>514.6</ele>
        <time>2024-06-16T13:16:21Z</time>
      </trkpt>
      <trkpt lat="42.86619" lon="1.1976">
        <ele>514.6</ele>
        <time>2024-06-16T13:16:26Z</time>
      </trkpt>
      <trkpt lat="42.86626" lon="1.19763">
        <ele>515</ele>
        <time>2024-06-16T13:16:31Z</time>
      </trkpt>
      <trkpt lat="42.86627" lon="1.19763">
        <ele>515.6</ele>
        <time>2024-06-16T13:16:32Z</time>
      </trkpt>
      <trkpt lat="42.86628" lon="1.19763">
        <ele>516</ele>
        <time>2024-06-16T13:16:33Z</time>
      </trkpt>
      <trkpt lat="42.8663" lon="1.19762">
        <ele>516.4</ele>
        <time>2024-06-16T13:16:34Z</time>
      </trkpt>
      <trkpt lat="42.86631" lon="1.19762">
        <ele>516.8</ele>
        <time>2024-06-16T13:16:35Z</time>
      </trkpt>
      <trkpt lat="42.86636" lon="1.19759">
        <ele>516.8</ele>
        <time>2024-06-16T13:16:38Z</time>
      </trkpt>
      <trkpt lat="42.86637" lon="1.19759">
        <ele>516.8</ele>
        <time>2024-06-16T13:16:39Z</time>
      </trkpt>
      <trkpt lat="42.86641" lon="1.19756">
        <ele>517.2</ele>
        <time>2024-06-16T13:16:42Z</time>
      </trkpt>
      <trkpt lat="42.86641" lon="1.19755">
        <ele>517.6</ele>
        <time>2024-06-16T13:16:43Z</time>
      </trkpt>
      <trkpt lat="42.86643" lon="1.19753">
        <ele>518</ele>
        <time>2024-06-16T13:16:44Z</time>
      </trkpt>
      <trkpt lat="42.86644" lon="1.19751">
        <ele>518.4</ele>
        <time>2024-06-16T13:16:45Z</time>
      </trkpt>
      <trkpt lat="42.86645" lon="1.1975">
        <ele>518.8</ele>
        <time>2024-06-16T13:16:46Z</time>
      </trkpt>
      <trkpt lat="42.86646" lon="1.19747">
        <ele>519.2</ele>
        <time>2024-06-16T13:16:48Z</time>
      </trkpt>
      <trkpt lat="42.86647" lon="1.19746">
        <ele>519.6</ele>
        <time>2024-06-16T13:16:49Z</time>
      </trkpt>
      <trkpt lat="42.86648" lon="1.19745">
        <ele>520</ele>
        <time>2024-06-16T13:16:50Z</time>
      </trkpt>
      <trkpt lat="42.86649" lon="1.19743">
        <ele>520.6</ele>
        <time>2024-06-16T13:16:51Z</time>
      </trkpt>
      <trkpt lat="42.8665" lon="1.19742">
        <ele>521</ele>
        <time>2024-06-16T13:16:52Z</time>
      </trkpt>
      <trkpt lat="42.86652" lon="1.19741">
        <ele>521</ele>
        <time>2024-06-16T13:16:53Z</time>
      </trkpt>
      <trkpt lat="42.86656" lon="1.19737">
        <ele>521.4</ele>
        <time>2024-06-16T13:16:56Z</time>
      </trkpt>
      <trkpt lat="42.86657" lon="1.19736">
        <ele>521.8</ele>
        <time>2024-06-16T13:16:57Z</time>
      </trkpt>
      <trkpt lat="42.86659" lon="1.19735">
        <ele>522.2</ele>
        <time>2024-06-16T13:16:58Z</time>
      </trkpt>
      <trkpt lat="42.8666" lon="1.19735">
        <ele>522.6</ele>
        <time>2024-06-16T13:16:59Z</time>
      </trkpt>
      <trkpt lat="42.86661" lon="1.19735">
        <ele>523</ele>
        <time>2024-06-16T13:17:00Z</time>
      </trkpt>
      <trkpt lat="42.86665" lon="1.19732">
        <ele>523</ele>
        <time>2024-06-16T13:17:03Z</time>
      </trkpt>
      <trkpt lat="42.8667" lon="1.19729">
        <ele>523.6</ele>
        <time>2024-06-16T13:17:07Z</time>
      </trkpt>
      <trkpt lat="42.86671" lon="1.19729">
        <ele>524</ele>
        <time>2024-06-16T13:17:08Z</time>
      </trkpt>
      <trkpt lat="42.86671" lon="1.19728">
        <ele>524.4</ele>
        <time>2024-06-16T13:17:09Z</time>
      </trkpt>
      <trkpt lat="42.86672" lon="1.19728">
        <ele>524.8</ele>
        <time>2024-06-16T13:17:10Z</time>
      </trkpt>
      <trkpt lat="42.86673" lon="1.19726">
        <ele>525.2</ele>
        <time>2024-06-16T13:17:11Z</time>
      </trkpt>
      <trkpt lat="42.86675" lon="1.19724">
        <ele>525.2</ele>
        <time>2024-06-16T13:17:12Z</time>
      </trkpt>
      <trkpt lat="42.8668" lon="1.19713">
        <ele>525.2</ele>
        <time>2024-06-16T13:17:16Z</time>
      </trkpt>
      <trkpt lat="42.86684" lon="1.19701">
        <ele>525.6</ele>
        <time>2024-06-16T13:17:20Z</time>
      </trkpt>
      <trkpt lat="42.86684" lon="1.19698">
        <ele>526</ele>
        <time>2024-06-16T13:17:21Z</time>
      </trkpt>
      <trkpt lat="42.86684" lon="1.19694">
        <ele>526.4</ele>
        <time>2024-06-16T13:17:22Z</time>
      </trkpt>
      <trkpt lat="42.86684" lon="1.19692">
        <ele>526.8</ele>
        <time>2024-06-16T13:17:23Z</time>
      </trkpt>
      <trkpt lat="42.86685" lon="1.19689">
        <ele>527.2</ele>
        <time>2024-06-16T13:17:24Z</time>
      </trkpt>
      <trkpt lat="42.86686" lon="1.19676">
        <ele>527.2</ele>
        <time>2024-06-16T13:17:29Z</time>
      </trkpt>
      <trkpt lat="42.86686" lon="1.19655">
        <ele>527.6</ele>
        <time>2024-06-16T13:17:35Z</time>
      </trkpt>
      <trkpt lat="42.86687" lon="1.19652">
        <ele>528.6</ele>
        <time>2024-06-16T13:17:36Z</time>
      </trkpt>
      <trkpt lat="42.86687" lon="1.19648">
        <ele>529</ele>
        <time>2024-06-16T13:17:37Z</time>
      </trkpt>
      <trkpt lat="42.86688" lon="1.19644">
        <ele>529.4</ele>
        <time>2024-06-16T13:17:38Z</time>
      </trkpt>
      <trkpt lat="42.8669" lon="1.19639">
        <ele>529.4</ele>
        <time>2024-06-16T13:17:40Z</time>
      </trkpt>
      <trkpt lat="42.86694" lon="1.19633">
        <ele>529.8</ele>
        <time>2024-06-16T13:17:43Z</time>
      </trkpt>
      <trkpt lat="42.86695" lon="1.19632">
        <ele>530.2</ele>
        <time>2024-06-16T13:17:44Z</time>
      </trkpt>
      <trkpt lat="42.86696" lon="1.1963">
        <ele>530.8</ele>
        <time>2024-06-16T13:17:45Z</time>
      </trkpt>
      <trkpt lat="42.86697" lon="1.19627">
        <ele>531.2</ele>
        <time>2024-06-16T13:17:46Z</time>
      </trkpt>
      <trkpt lat="42.86697" lon="1.19624">
        <ele>531.6</ele>
        <time>2024-06-16T13:17:47Z</time>
      </trkpt>
      <trkpt lat="42.86699" lon="1.19617">
        <ele>531.6</ele>
        <time>2024-06-16T13:17:50Z</time>
      </trkpt>
      <trkpt lat="42.867" lon="1.19614">
        <ele>532</ele>
        <time>2024-06-16T13:17:51Z</time>
      </trkpt>
      <trkpt lat="42.86701" lon="1.19612">
        <ele>532.4</ele>
        <time>2024-06-16T13:17:52Z</time>
      </trkpt>
      <trkpt lat="42.86702" lon="1.19609">
        <ele>533</ele>
        <time>2024-06-16T13:17:53Z</time>
      </trkpt>
      <trkpt lat="42.86703" lon="1.19606">
        <ele>533.4</ele>
        <time>2024-06-16T13:17:54Z</time>
      </trkpt>
      <trkpt lat="42.86704" lon="1.19604">
        <ele>533.8</ele>
        <time>2024-06-16T13:17:55Z</time>
      </trkpt>
      <trkpt lat="42.86705" lon="1.19602">
        <ele>533.8</ele>
        <time>2024-06-16T13:17:56Z</time>
      </trkpt>
      <trkpt lat="42.86706" lon="1.19596">
        <ele>534.2</ele>
        <time>2024-06-16T13:17:58Z</time>
      </trkpt>
      <trkpt lat="42.86706" lon="1.19594">
        <ele>534.6</ele>
        <time>2024-06-16T13:17:59Z</time>
      </trkpt>
      <trkpt lat="42.86706" lon="1.19591">
        <ele>535</ele>
        <time>2024-06-16T13:18:00Z</time>
      </trkpt>
      <trkpt lat="42.86707" lon="1.19588">
        <ele>536</ele>
        <time>2024-06-16T13:18:01Z</time>
      </trkpt>
      <trkpt lat="42.86707" lon="1.19586">
        <ele>536</ele>
        <time>2024-06-16T13:18:02Z</time>
      </trkpt>
      <trkpt lat="42.86707" lon="1.19578">
        <ele>536.4</ele>
        <time>2024-06-16T13:18:05Z</time>
      </trkpt>
      <trkpt lat="42.86707" lon="1.19575">
        <ele>536.8</ele>
        <time>2024-06-16T13:18:06Z</time>
      </trkpt>
      <trkpt lat="42.86708" lon="1.19573">
        <ele>537.2</ele>
        <time>2024-06-16T13:18:07Z</time>
      </trkpt>
      <trkpt lat="42.86709" lon="1.1957">
        <ele>537.6</ele>
        <time>2024-06-16T13:18:08Z</time>
      </trkpt>
      <trkpt lat="42.8671" lon="1.19566">
        <ele>538</ele>
        <time>2024-06-16T13:18:09Z</time>
      </trkpt>
      <trkpt lat="42.86712" lon="1.19559">
        <ele>538</ele>
        <time>2024-06-16T13:18:13Z</time>
      </trkpt>
      <trkpt lat="42.86714" lon="1.19554">
        <ele>538.4</ele>
        <time>2024-06-16T13:18:15Z</time>
      </trkpt>
      <trkpt lat="42.86715" lon="1.19552">
        <ele>538.8</ele>
        <time>2024-06-16T13:18:16Z</time>
      </trkpt>
      <trkpt lat="42.86716" lon="1.1955">
        <ele>539.2</ele>
        <time>2024-06-16T13:18:17Z</time>
      </trkpt>
      <trkpt lat="42.86718" lon="1.19547">
        <ele>539.6</ele>
        <time>2024-06-16T13:18:18Z</time>
      </trkpt>
      <trkpt lat="42.86718" lon="1.19545">
        <ele>540</ele>
        <time>2024-06-16T13:18:19Z</time>
      </trkpt>
      <trkpt lat="42.86723" lon="1.19538">
        <ele>540</ele>
        <time>2024-06-16T13:18:23Z</time>
      </trkpt>
      <trkpt lat="42.86729" lon="1.1953">
        <ele>540</ele>
        <time>2024-06-16T13:18:28Z</time>
      </trkpt>
      <trkpt lat="42.8673" lon="1.19528">
        <ele>540.4</ele>
        <time>2024-06-16T13:18:29Z</time>
      </trkpt>
      <trkpt lat="42.86731" lon="1.19525">
        <ele>540.8</ele>
        <time>2024-06-16T13:18:30Z</time>
      </trkpt>
      <trkpt lat="42.86732" lon="1.19522">
        <ele>541.2</ele>
        <time>2024-06-16T13:18:31Z</time>
      </trkpt>
      <trkpt lat="42.86733" lon="1.19519">
        <ele>541.6</ele>
        <time>2024-06-16T13:18:32Z</time>
      </trkpt>
      <trkpt lat="42.86734" lon="1.19516">
        <ele>542</ele>
        <time>2024-06-16T13:18:33Z</time>
      </trkpt>
      <trkpt lat="42.86735" lon="1.19512">
        <ele>542</ele>
        <time>2024-06-16T13:18:34Z</time>
      </trkpt>
      <trkpt lat="42.86743" lon="1.19491">
        <ele>542</ele>
        <time>2024-06-16T13:18:40Z</time>
      </trkpt>
      <trkpt lat="42.86749" lon="1.19473">
        <ele>542</ele>
        <time>2024-06-16T13:18:46Z</time>
      </trkpt>
      <trkpt lat="42.86753" lon="1.19463">
        <ele>542.6</ele>
        <time>2024-06-16T13:18:49Z</time>
      </trkpt>
      <trkpt lat="42.86755" lon="1.1946">
        <ele>543.4</ele>
        <time>2024-06-16T13:18:50Z</time>
      </trkpt>
      <trkpt lat="42.86756" lon="1.19456">
        <ele>543.8</ele>
        <time>2024-06-16T13:18:51Z</time>
      </trkpt>
      <trkpt lat="42.86757" lon="1.19453">
        <ele>544.2</ele>
        <time>2024-06-16T13:18:52Z</time>
      </trkpt>
      <trkpt lat="42.8676" lon="1.19439">
        <ele>544.2</ele>
        <time>2024-06-16T13:18:56Z</time>
      </trkpt>
      <trkpt lat="42.86767" lon="1.1942">
        <ele>544.2</ele>
        <time>2024-06-16T13:19:02Z</time>
      </trkpt>
      <trkpt lat="42.86774" lon="1.19398">
        <ele>544.2</ele>
        <time>2024-06-16T13:19:08Z</time>
      </trkpt>
      <trkpt lat="42.8678" lon="1.19382">
        <ele>544.2</ele>
        <time>2024-06-16T13:19:13Z</time>
      </trkpt>
      <trkpt lat="42.86786" lon="1.19364">
        <ele>544.2</ele>
        <time>2024-06-16T13:19:18Z</time>
      </trkpt>
      <trkpt lat="42.86796" lon="1.19346">
        <ele>544.2</ele>
        <time>2024-06-16T13:19:24Z</time>
      </trkpt>
      <trkpt lat="42.86804" lon="1.19339">
        <ele>544.2</ele>
        <time>2024-06-16T13:19:28Z</time>
      </trkpt>
      <trkpt lat="42.86807" lon="1.19336">
        <ele>544.2</ele>
        <time>2024-06-16T13:19:30Z</time>
      </trkpt>
      <trkpt lat="42.8681" lon="1.19335">
        <ele>544.6</ele>
        <time>2024-06-16T13:19:31Z</time>
      </trkpt>
      <trkpt lat="42.86811" lon="1.19334">
        <ele>545</ele>
        <time>2024-06-16T13:19:32Z</time>
      </trkpt>
      <trkpt lat="42.86813" lon="1.19333">
        <ele>545.4</ele>
        <time>2024-06-16T13:19:33Z</time>
      </trkpt>
      <trkpt lat="42.86816" lon="1.19332">
        <ele>545.8</ele>
        <time>2024-06-16T13:19:34Z</time>
      </trkpt>
      <trkpt lat="42.86818" lon="1.1933">
        <ele>546.2</ele>
        <time>2024-06-16T13:19:35Z</time>
      </trkpt>
      <trkpt lat="42.86828" lon="1.19322">
        <ele>546.2</ele>
        <time>2024-06-16T13:19:39Z</time>
      </trkpt>
      <trkpt lat="42.86833" lon="1.19319">
        <ele>546.6</ele>
        <time>2024-06-16T13:19:41Z</time>
      </trkpt>
      <trkpt lat="42.86835" lon="1.19317">
        <ele>547</ele>
        <time>2024-06-16T13:19:42Z</time>
      </trkpt>
      <trkpt lat="42.86837" lon="1.19316">
        <ele>547.4</ele>
        <time>2024-06-16T13:19:43Z</time>
      </trkpt>
      <trkpt lat="42.8684" lon="1.19314">
        <ele>547.8</ele>
        <time>2024-06-16T13:19:44Z</time>
      </trkpt>
      <trkpt lat="42.86841" lon="1.19313">
        <ele>548.2</ele>
        <time>2024-06-16T13:19:45Z</time>
      </trkpt>
      <trkpt lat="42.86843" lon="1.19311">
        <ele>548.2</ele>
        <time>2024-06-16T13:19:46Z</time>
      </trkpt>
      <trkpt lat="42.86845" lon="1.19306">
        <ele>548.2</ele>
        <time>2024-06-16T13:19:49Z</time>
      </trkpt>
      <trkpt lat="42.8685" lon="1.19301">
        <ele>548.8</ele>
        <time>2024-06-16T13:19:53Z</time>
      </trkpt>
      <trkpt lat="42.86852" lon="1.193">
        <ele>549.2</ele>
        <time>2024-06-16T13:19:54Z</time>
      </trkpt>
      <trkpt lat="42.86853" lon="1.19299">
        <ele>549.6</ele>
        <time>2024-06-16T13:19:55Z</time>
      </trkpt>
      <trkpt lat="42.86854" lon="1.19297">
        <ele>550.2</ele>
        <time>2024-06-16T13:19:56Z</time>
      </trkpt>
      <trkpt lat="42.86855" lon="1.19296">
        <ele>550.6</ele>
        <time>2024-06-16T13:19:57Z</time>
      </trkpt>
      <trkpt lat="42.86857" lon="1.19292">
        <ele>550.6</ele>
        <time>2024-06-16T13:19:59Z</time>
      </trkpt>
      <trkpt lat="42.86859" lon="1.19287">
        <ele>551</ele>
        <time>2024-06-16T13:20:02Z</time>
      </trkpt>
      <trkpt lat="42.8686" lon="1.19285">
        <ele>551.4</ele>
        <time>2024-06-16T13:20:03Z</time>
      </trkpt>
      <trkpt lat="42.86861" lon="1.19283">
        <ele>551.8</ele>
        <time>2024-06-16T13:20:04Z</time>
      </trkpt>
      <trkpt lat="42.86861" lon="1.19282">
        <ele>552.6</ele>
        <time>2024-06-16T13:20:05Z</time>
      </trkpt>
      <trkpt lat="42.86864" lon="1.19277">
        <ele>553</ele>
        <time>2024-06-16T13:20:08Z</time>
      </trkpt>
      <trkpt lat="42.86866" lon="1.19275">
        <ele>553.4</ele>
        <time>2024-06-16T13:20:09Z</time>
      </trkpt>
      <trkpt lat="42.86868" lon="1.19273">
        <ele>553.8</ele>
        <time>2024-06-16T13:20:10Z</time>
      </trkpt>
      <trkpt lat="42.86869" lon="1.19272">
        <ele>554.2</ele>
        <time>2024-06-16T13:20:11Z</time>
      </trkpt>
      <trkpt lat="42.86871" lon="1.19271">
        <ele>554.8</ele>
        <time>2024-06-16T13:20:12Z</time>
      </trkpt>
      <trkpt lat="42.86875" lon="1.19266">
        <ele>555.2</ele>
        <time>2024-06-16T13:20:15Z</time>
      </trkpt>
      <trkpt lat="42.86876" lon="1.19265">
        <ele>555.6</ele>
        <time>2024-06-16T13:20:16Z</time>
      </trkpt>
      <trkpt lat="42.86877" lon="1.19263">
        <ele>556</ele>
        <time>2024-06-16T13:20:17Z</time>
      </trkpt>
      <trkpt lat="42.86878" lon="1.19262">
        <ele>556.4</ele>
        <time>2024-06-16T13:20:18Z</time>
      </trkpt>
      <trkpt lat="42.86879" lon="1.19261">
        <ele>556.8</ele>
        <time>2024-06-16T13:20:19Z</time>
      </trkpt>
      <trkpt lat="42.86883" lon="1.19253">
        <ele>556.8</ele>
        <time>2024-06-16T13:20:23Z</time>
      </trkpt>
      <trkpt lat="42.86884" lon="1.19251">
        <ele>557.2</ele>
        <time>2024-06-16T13:20:24Z</time>
      </trkpt>
      <trkpt lat="42.86886" lon="1.19249">
        <ele>557.6</ele>
        <time>2024-06-16T13:20:25Z</time>
      </trkpt>
      <trkpt lat="42.86887" lon="1.19246">
        <ele>558</ele>
        <time>2024-06-16T13:20:26Z</time>
      </trkpt>
      <trkpt lat="42.86888" lon="1.19243">
        <ele>558.4</ele>
        <time>2024-06-16T13:20:27Z</time>
      </trkpt>
      <trkpt lat="42.86889" lon="1.1924">
        <ele>558.8</ele>
        <time>2024-06-16T13:20:28Z</time>
      </trkpt>
      <trkpt lat="42.86891" lon="1.19236">
        <ele>558.8</ele>
        <time>2024-06-16T13:20:30Z</time>
      </trkpt>
      <trkpt lat="42.86892" lon="1.19234">
        <ele>559.2</ele>
        <time>2024-06-16T13:20:31Z</time>
      </trkpt>
      <trkpt lat="42.86893" lon="1.19232">
        <ele>559.6</ele>
        <time>2024-06-16T13:20:32Z</time>
      </trkpt>
      <trkpt lat="42.86894" lon="1.1923">
        <ele>560</ele>
        <time>2024-06-16T13:20:33Z</time>
      </trkpt>
      <trkpt lat="42.86895" lon="1.19228">
        <ele>560.4</ele>
        <time>2024-06-16T13:20:34Z</time>
      </trkpt>
      <trkpt lat="42.86896" lon="1.19225">
        <ele>560.8</ele>
        <time>2024-06-16T13:20:35Z</time>
      </trkpt>
      <trkpt lat="42.86898" lon="1.19222">
        <ele>560.8</ele>
        <time>2024-06-16T13:20:36Z</time>
      </trkpt>
      <trkpt lat="42.86901" lon="1.19217">
        <ele>560.8</ele>
        <time>2024-06-16T13:20:38Z</time>
      </trkpt>
      <trkpt lat="42.86903" lon="1.19213">
        <ele>560.8</ele>
        <time>2024-06-16T13:20:40Z</time>
      </trkpt>
      <trkpt lat="42.86905" lon="1.19211">
        <ele>560.8</ele>
        <time>2024-06-16T13:20:41Z</time>
      </trkpt>
      <trkpt lat="42.86911" lon="1.19205">
        <ele>560.8</ele>
        <time>2024-06-16T13:20:44Z</time>
      </trkpt>
      <trkpt lat="42.86914" lon="1.19203">
        <ele>560.8</ele>
        <time>2024-06-16T13:20:45Z</time>
      </trkpt>
      <trkpt lat="42.86926" lon="1.19198">
        <ele>560.8</ele>
        <time>2024-06-16T13:20:49Z</time>
      </trkpt>
      <trkpt lat="42.86928" lon="1.19197">
        <ele>560.8</ele>
        <time>2024-06-16T13:20:50Z</time>
      </trkpt>
      <trkpt lat="42.86933" lon="1.19193">
        <ele>560.8</ele>
        <time>2024-06-16T13:20:54Z</time>
      </trkpt>
      <trkpt lat="42.86935" lon="1.19189">
        <ele>560.8</ele>
        <time>2024-06-16T13:20:56Z</time>
      </trkpt>
      <trkpt lat="42.86942" lon="1.19178">
        <ele>561.4</ele>
        <time>2024-06-16T13:21:00Z</time>
      </trkpt>
      <trkpt lat="42.86943" lon="1.19176">
        <ele>561.8</ele>
        <time>2024-06-16T13:21:01Z</time>
      </trkpt>
      <trkpt lat="42.86945" lon="1.19172">
        <ele>562.2</ele>
        <time>2024-06-16T13:21:02Z</time>
      </trkpt>
      <trkpt lat="42.86947" lon="1.19169">
        <ele>562.6</ele>
        <time>2024-06-16T13:21:03Z</time>
      </trkpt>
      <trkpt lat="42.86948" lon="1.19166">
        <ele>563</ele>
        <time>2024-06-16T13:21:04Z</time>
      </trkpt>
      <trkpt lat="42.86949" lon="1.19163">
        <ele>563.4</ele>
        <time>2024-06-16T13:21:05Z</time>
      </trkpt>
      <trkpt lat="42.8695" lon="1.19162">
        <ele>563.8</ele>
        <time>2024-06-16T13:21:06Z</time>
      </trkpt>
      <trkpt lat="42.86951" lon="1.1916">
        <ele>564.2</ele>
        <time>2024-06-16T13:21:07Z</time>
      </trkpt>
      <trkpt lat="42.86952" lon="1.19159">
        <ele>564.6</ele>
        <time>2024-06-16T13:21:08Z</time>
      </trkpt>
      <trkpt lat="42.86953" lon="1.19157">
        <ele>565</ele>
        <time>2024-06-16T13:21:09Z</time>
      </trkpt>
      <trkpt lat="42.86955" lon="1.19156">
        <ele>565</ele>
        <time>2024-06-16T13:21:10Z</time>
      </trkpt>
      <trkpt lat="42.86959" lon="1.19154">
        <ele>565.6</ele>
        <time>2024-06-16T13:21:12Z</time>
      </trkpt>
      <trkpt lat="42.86961" lon="1.19153">
        <ele>566</ele>
        <time>2024-06-16T13:21:13Z</time>
      </trkpt>
      <trkpt lat="42.86962" lon="1.19151">
        <ele>566.4</ele>
        <time>2024-06-16T13:21:14Z</time>
      </trkpt>
      <trkpt lat="42.86964" lon="1.1915">
        <ele>567</ele>
        <time>2024-06-16T13:21:15Z</time>
      </trkpt>
      <trkpt lat="42.86977" lon="1.19141">
        <ele>573.4</ele>
        <time>2024-06-16T13:32:07Z</time>
      </trkpt>
      <trkpt lat="42.86978" lon="1.1914">
        <ele>573.4</ele>
        <time>2024-06-16T13:32:08Z</time>
      </trkpt>
      <trkpt lat="42.86983" lon="1.19133">
        <ele>573.4</ele>
        <time>2024-06-16T13:32:13Z</time>
      </trkpt>
      <trkpt lat="42.86985" lon="1.19131">
        <ele>573.4</ele>
        <time>2024-06-16T13:32:14Z</time>
      </trkpt>
      <trkpt lat="42.86991" lon="1.19123">
        <ele>573.4</ele>
        <time>2024-06-16T13:32:19Z</time>
      </trkpt>
      <trkpt lat="42.86993" lon="1.19122">
        <ele>573.4</ele>
        <time>2024-06-16T13:32:20Z</time>
      </trkpt>
      <trkpt lat="42.86999" lon="1.19112">
        <ele>573.4</ele>
        <time>2024-06-16T13:32:25Z</time>
      </trkpt>
      <trkpt lat="42.87004" lon="1.19106">
        <ele>574</ele>
        <time>2024-06-16T13:32:29Z</time>
      </trkpt>
      <trkpt lat="42.87006" lon="1.19105">
        <ele>574.4</ele>
        <time>2024-06-16T13:32:30Z</time>
      </trkpt>
      <trkpt lat="42.87007" lon="1.19104">
        <ele>574.8</ele>
        <time>2024-06-16T13:32:31Z</time>
      </trkpt>
      <trkpt lat="42.87008" lon="1.19102">
        <ele>575.2</ele>
        <time>2024-06-16T13:32:32Z</time>
      </trkpt>
      <trkpt lat="42.8701" lon="1.19101">
        <ele>575.6</ele>
        <time>2024-06-16T13:32:33Z</time>
      </trkpt>
      <trkpt lat="42.87016" lon="1.19095">
        <ele>576</ele>
        <time>2024-06-16T13:32:37Z</time>
      </trkpt>
      <trkpt lat="42.87017" lon="1.19093">
        <ele>576.6</ele>
        <time>2024-06-16T13:32:38Z</time>
      </trkpt>
      <trkpt lat="42.87018" lon="1.19092">
        <ele>577</ele>
        <time>2024-06-16T13:32:39Z</time>
      </trkpt>
      <trkpt lat="42.87019" lon="1.1909">
        <ele>577.4</ele>
        <time>2024-06-16T13:32:40Z</time>
      </trkpt>
      <trkpt lat="42.8702" lon="1.19089">
        <ele>577.8</ele>
        <time>2024-06-16T13:32:41Z</time>
      </trkpt>
      <trkpt lat="42.87023" lon="1.19084">
        <ele>578.4</ele>
        <time>2024-06-16T13:32:44Z</time>
      </trkpt>
      <trkpt lat="42.87024" lon="1.19083">
        <ele>578.8</ele>
        <time>2024-06-16T13:32:45Z</time>
      </trkpt>
      <trkpt lat="42.87025" lon="1.19082">
        <ele>579.2</ele>
        <time>2024-06-16T13:32:46Z</time>
      </trkpt>
      <trkpt lat="42.87027" lon="1.19081">
        <ele>579.8</ele>
        <time>2024-06-16T13:32:47Z</time>
      </trkpt>
      <trkpt lat="42.87029" lon="1.19079">
        <ele>580.2</ele>
        <time>2024-06-16T13:32:48Z</time>
      </trkpt>
      <trkpt lat="42.87033" lon="1.19075">
        <ele>581</ele>
        <time>2024-06-16T13:32:51Z</time>
      </trkpt>
      <trkpt lat="42.87034" lon="1.19073">
        <ele>581.6</ele>
        <time>2024-06-16T13:32:52Z</time>
      </trkpt>
      <trkpt lat="42.87035" lon="1.19071">
        <ele>582</ele>
        <time>2024-06-16T13:32:53Z</time>
      </trkpt>
      <trkpt lat="42.87036" lon="1.19069">
        <ele>582.4</ele>
        <time>2024-06-16T13:32:54Z</time>
      </trkpt>
      <trkpt lat="42.87041" lon="1.19065">
        <ele>582.4</ele>
        <time>2024-06-16T13:32:57Z</time>
      </trkpt>
      <trkpt lat="42.87043" lon="1.19064">
        <ele>582.8</ele>
        <time>2024-06-16T13:32:58Z</time>
      </trkpt>
      <trkpt lat="42.87045" lon="1.19063">
        <ele>583.4</ele>
        <time>2024-06-16T13:32:59Z</time>
      </trkpt>
      <trkpt lat="42.87047" lon="1.19062">
        <ele>583.8</ele>
        <time>2024-06-16T13:33:00Z</time>
      </trkpt>
      <trkpt lat="42.87049" lon="1.19061">
        <ele>584.2</ele>
        <time>2024-06-16T13:33:01Z</time>
      </trkpt>
      <trkpt lat="42.87051" lon="1.19059">
        <ele>584.6</ele>
        <time>2024-06-16T13:33:02Z</time>
      </trkpt>
      <trkpt lat="42.87054" lon="1.19057">
        <ele>585.2</ele>
        <time>2024-06-16T13:33:04Z</time>
      </trkpt>
      <trkpt lat="42.87056" lon="1.19055">
        <ele>585.6</ele>
        <time>2024-06-16T13:33:05Z</time>
      </trkpt>
      <trkpt lat="42.87057" lon="1.19054">
        <ele>586</ele>
        <time>2024-06-16T13:33:06Z</time>
      </trkpt>
      <trkpt lat="42.87058" lon="1.19052">
        <ele>586.4</ele>
        <time>2024-06-16T13:33:07Z</time>
      </trkpt>
      <trkpt lat="42.8706" lon="1.19051">
        <ele>586.8</ele>
        <time>2024-06-16T13:33:08Z</time>
      </trkpt>
      <trkpt lat="42.87061" lon="1.1905">
        <ele>586.8</ele>
        <time>2024-06-16T13:33:09Z</time>
      </trkpt>
      <trkpt lat="42.87062" lon="1.19048">
        <ele>586.8</ele>
        <time>2024-06-16T13:33:10Z</time>
      </trkpt>
      <trkpt lat="42.87065" lon="1.19045">
        <ele>587.2</ele>
        <time>2024-06-16T13:33:12Z</time>
      </trkpt>
      <trkpt lat="42.87066" lon="1.19044">
        <ele>587.6</ele>
        <time>2024-06-16T13:33:13Z</time>
      </trkpt>
      <trkpt lat="42.87068" lon="1.19043">
        <ele>588</ele>
        <time>2024-06-16T13:33:14Z</time>
      </trkpt>
      <trkpt lat="42.87069" lon="1.19041">
        <ele>588.4</ele>
        <time>2024-06-16T13:33:15Z</time>
      </trkpt>
      <trkpt lat="42.87071" lon="1.19039">
        <ele>588.8</ele>
        <time>2024-06-16T13:33:16Z</time>
      </trkpt>
      <trkpt lat="42.87074" lon="1.19037">
        <ele>588.8</ele>
        <time>2024-06-16T13:33:18Z</time>
      </trkpt>
      <trkpt lat="42.87081" lon="1.1903">
        <ele>589.2</ele>
        <time>2024-06-16T13:33:21Z</time>
      </trkpt>
      <trkpt lat="42.87083" lon="1.19028">
        <ele>589.6</ele>
        <time>2024-06-16T13:33:22Z</time>
      </trkpt>
      <trkpt lat="42.87084" lon="1.19027">
        <ele>590</ele>
        <time>2024-06-16T13:33:23Z</time>
      </trkpt>
      <trkpt lat="42.87086" lon="1.19025">
        <ele>590.4</ele>
        <time>2024-06-16T13:33:24Z</time>
      </trkpt>
      <trkpt lat="42.87087" lon="1.19022">
        <ele>590.8</ele>
        <time>2024-06-16T13:33:25Z</time>
      </trkpt>
      <trkpt lat="42.87089" lon="1.19018">
        <ele>590.8</ele>
        <time>2024-06-16T13:33:27Z</time>
      </trkpt>
      <trkpt lat="42.87091" lon="1.19015">
        <ele>590.8</ele>
        <time>2024-06-16T13:33:28Z</time>
      </trkpt>
      <trkpt lat="42.87101" lon="1.18997">
        <ele>590.8</ele>
        <time>2024-06-16T13:33:35Z</time>
      </trkpt>
      <trkpt lat="42.87107" lon="1.18983">
        <ele>590.8</ele>
        <time>2024-06-16T13:33:41Z</time>
      </trkpt>
      <trkpt lat="42.8711" lon="1.18982">
        <ele>591.2</ele>
        <time>2024-06-16T13:33:42Z</time>
      </trkpt>
      <trkpt lat="42.87112" lon="1.18981">
        <ele>591.6</ele>
        <time>2024-06-16T13:33:43Z</time>
      </trkpt>
      <trkpt lat="42.87113" lon="1.1898">
        <ele>592</ele>
        <time>2024-06-16T13:33:44Z</time>
      </trkpt>
      <trkpt lat="42.87114" lon="1.18978">
        <ele>592.4</ele>
        <time>2024-06-16T13:33:45Z</time>
      </trkpt>
      <trkpt lat="42.87116" lon="1.18976">
        <ele>593</ele>
        <time>2024-06-16T13:33:46Z</time>
      </trkpt>
      <trkpt lat="42.87117" lon="1.18975">
        <ele>593</ele>
        <time>2024-06-16T13:33:47Z</time>
      </trkpt>
      <trkpt lat="42.87123" lon="1.18965">
        <ele>593</ele>
        <time>2024-06-16T13:33:52Z</time>
      </trkpt>
      <trkpt lat="42.87123" lon="1.18962">
        <ele>592.4</ele>
        <time>2024-06-16T13:33:53Z</time>
      </trkpt>
      <trkpt lat="42.87124" lon="1.1896">
        <ele>592</ele>
        <time>2024-06-16T13:33:54Z</time>
      </trkpt>
      <trkpt lat="42.87124" lon="1.18958">
        <ele>591.6</ele>
        <time>2024-06-16T13:33:55Z</time>
      </trkpt>
      <trkpt lat="42.87124" lon="1.18956">
        <ele>591</ele>
        <time>2024-06-16T13:33:56Z</time>
      </trkpt>
      <trkpt lat="42.87124" lon="1.18952">
        <ele>590.6</ele>
        <time>2024-06-16T13:33:57Z</time>
      </trkpt>
      <trkpt lat="42.87124" lon="1.18949">
        <ele>590.6</ele>
        <time>2024-06-16T13:33:58Z</time>
      </trkpt>
      <trkpt lat="42.87122" lon="1.18937">
        <ele>590.6</ele>
        <time>2024-06-16T13:34:02Z</time>
      </trkpt>
      <trkpt lat="42.87121" lon="1.18923">
        <ele>590.6</ele>
        <time>2024-06-16T13:34:08Z</time>
      </trkpt>
      <trkpt lat="42.87121" lon="1.18918">
        <ele>591</ele>
        <time>2024-06-16T13:34:10Z</time>
      </trkpt>
      <trkpt lat="42.87121" lon="1.18915">
        <ele>591.4</ele>
        <time>2024-06-16T13:34:11Z</time>
      </trkpt>
      <trkpt lat="42.8712" lon="1.18912">
        <ele>592</ele>
        <time>2024-06-16T13:34:12Z</time>
      </trkpt>
      <trkpt lat="42.87119" lon="1.18909">
        <ele>592.4</ele>
        <time>2024-06-16T13:34:13Z</time>
      </trkpt>
      <trkpt lat="42.87119" lon="1.18907">
        <ele>592.8</ele>
        <time>2024-06-16T13:34:14Z</time>
      </trkpt>
      <trkpt lat="42.87118" lon="1.18899">
        <ele>593.2</ele>
        <time>2024-06-16T13:34:17Z</time>
      </trkpt>
      <trkpt lat="42.87117" lon="1.18897">
        <ele>593.6</ele>
        <time>2024-06-16T13:34:18Z</time>
      </trkpt>
      <trkpt lat="42.87117" lon="1.18896">
        <ele>594.2</ele>
        <time>2024-06-16T13:34:19Z</time>
      </trkpt>
      <trkpt lat="42.87117" lon="1.18895">
        <ele>594.6</ele>
        <time>2024-06-16T13:34:20Z</time>
      </trkpt>
      <trkpt lat="42.87115" lon="1.18891">
        <ele>595</ele>
        <time>2024-06-16T13:34:21Z</time>
      </trkpt>
      <trkpt lat="42.87115" lon="1.18884">
        <ele>595</ele>
        <time>2024-06-16T13:34:24Z</time>
      </trkpt>
      <trkpt lat="42.87118" lon="1.18878">
        <ele>595.6</ele>
        <time>2024-06-16T13:34:27Z</time>
      </trkpt>
      <trkpt lat="42.87118" lon="1.18877">
        <ele>596</ele>
        <time>2024-06-16T13:34:28Z</time>
      </trkpt>
      <trkpt lat="42.87118" lon="1.18876">
        <ele>596.4</ele>
        <time>2024-06-16T13:34:29Z</time>
      </trkpt>
      <trkpt lat="42.87118" lon="1.18875">
        <ele>597.4</ele>
        <time>2024-06-16T13:34:30Z</time>
      </trkpt>
      <trkpt lat="42.87116" lon="1.1887">
        <ele>597.4</ele>
        <time>2024-06-16T13:34:50Z</time>
      </trkpt>
      <trkpt lat="42.87117" lon="1.18865">
        <ele>597.4</ele>
        <time>2024-06-16T13:34:52Z</time>
      </trkpt>
      <trkpt lat="42.87118" lon="1.18856">
        <ele>597.8</ele>
        <time>2024-06-16T13:34:56Z</time>
      </trkpt>
      <trkpt lat="42.87119" lon="1.18853">
        <ele>598.4</ele>
        <time>2024-06-16T13:34:57Z</time>
      </trkpt>
      <trkpt lat="42.87119" lon="1.18852">
        <ele>598.8</ele>
        <time>2024-06-16T13:34:58Z</time>
      </trkpt>
      <trkpt lat="42.8712" lon="1.18849">
        <ele>599.2</ele>
        <time>2024-06-16T13:34:59Z</time>
      </trkpt>
      <trkpt lat="42.87121" lon="1.18847">
        <ele>599.6</ele>
        <time>2024-06-16T13:35:00Z</time>
      </trkpt>
      <trkpt lat="42.87123" lon="1.18843">
        <ele>600</ele>
        <time>2024-06-16T13:35:02Z</time>
      </trkpt>
      <trkpt lat="42.87124" lon="1.1884">
        <ele>600.4</ele>
        <time>2024-06-16T13:35:03Z</time>
      </trkpt>
      <trkpt lat="42.87125" lon="1.18838">
        <ele>600.8</ele>
        <time>2024-06-16T13:35:04Z</time>
      </trkpt>
      <trkpt lat="42.87125" lon="1.18837">
        <ele>601.2</ele>
        <time>2024-06-16T13:35:05Z</time>
      </trkpt>
      <trkpt lat="42.87126" lon="1.18837">
        <ele>601.6</ele>
        <time>2024-06-16T13:35:06Z</time>
      </trkpt>
      <trkpt lat="42.87127" lon="1.18836">
        <ele>601.6</ele>
        <time>2024-06-16T13:35:07Z</time>
      </trkpt>
      <trkpt lat="42.87129" lon="1.18839">
        <ele>601.6</ele>
        <time>2024-06-16T13:35:08Z</time>
      </trkpt>
      <trkpt lat="42.8713" lon="1.18842">
        <ele>601.6</ele>
        <time>2024-06-16T13:35:10Z</time>
      </trkpt>
      <trkpt lat="42.87132" lon="1.18844">
        <ele>601.6</ele>
        <time>2024-06-16T13:35:12Z</time>
      </trkpt>
      <trkpt lat="42.87133" lon="1.18846">
        <ele>602</ele>
        <time>2024-06-16T13:35:13Z</time>
      </trkpt>
      <trkpt lat="42.87135" lon="1.18848">
        <ele>602.4</ele>
        <time>2024-06-16T13:35:14Z</time>
      </trkpt>
      <trkpt lat="42.87136" lon="1.18849">
        <ele>602.8</ele>
        <time>2024-06-16T13:35:15Z</time>
      </trkpt>
      <trkpt lat="42.87138" lon="1.18851">
        <ele>603.2</ele>
        <time>2024-06-16T13:35:16Z</time>
      </trkpt>
      <trkpt lat="42.87139" lon="1.18853">
        <ele>603.6</ele>
        <time>2024-06-16T13:35:17Z</time>
      </trkpt>
      <trkpt lat="42.8714" lon="1.18856">
        <ele>604</ele>
        <time>2024-06-16T13:35:19Z</time>
      </trkpt>
      <trkpt lat="42.87141" lon="1.18858">
        <ele>605</ele>
        <time>2024-06-16T13:35:20Z</time>
      </trkpt>
      <trkpt lat="42.87142" lon="1.18861">
        <ele>605.4</ele>
        <time>2024-06-16T13:35:21Z</time>
      </trkpt>
      <trkpt lat="42.87143" lon="1.18862">
        <ele>605.8</ele>
        <time>2024-06-16T13:35:22Z</time>
      </trkpt>
      <trkpt lat="42.87147" lon="1.18868">
        <ele>605.8</ele>
        <time>2024-06-16T13:35:26Z</time>
      </trkpt>
      <trkpt lat="42.87152" lon="1.18867">
        <ele>606.2</ele>
        <time>2024-06-16T13:35:30Z</time>
      </trkpt>
      <trkpt lat="42.87154" lon="1.18866">
        <ele>606.6</ele>
        <time>2024-06-16T13:35:31Z</time>
      </trkpt>
      <trkpt lat="42.87156" lon="1.18865">
        <ele>607</ele>
        <time>2024-06-16T13:35:32Z</time>
      </trkpt>
      <trkpt lat="42.87158" lon="1.18864">
        <ele>607.4</ele>
        <time>2024-06-16T13:35:33Z</time>
      </trkpt>
      <trkpt lat="42.87159" lon="1.18863">
        <ele>607.8</ele>
        <time>2024-06-16T13:35:34Z</time>
      </trkpt>
      <trkpt lat="42.87165" lon="1.18861">
        <ele>607.8</ele>
        <time>2024-06-16T13:35:37Z</time>
      </trkpt>
      <trkpt lat="42.87178" lon="1.18856">
        <ele>607.8</ele>
        <time>2024-06-16T13:35:43Z</time>
      </trkpt>
      <trkpt lat="42.87185" lon="1.18858">
        <ele>608.2</ele>
        <time>2024-06-16T13:35:46Z</time>
      </trkpt>
      <trkpt lat="42.87187" lon="1.18859">
        <ele>608.6</ele>
        <time>2024-06-16T13:35:47Z</time>
      </trkpt>
      <trkpt lat="42.87188" lon="1.18859">
        <ele>609.2</ele>
        <time>2024-06-16T13:35:48Z</time>
      </trkpt>
      <trkpt lat="42.8719" lon="1.1886">
        <ele>609.6</ele>
        <time>2024-06-16T13:35:49Z</time>
      </trkpt>
      <trkpt lat="42.87191" lon="1.18861">
        <ele>610</ele>
        <time>2024-06-16T13:35:50Z</time>
      </trkpt>
      <trkpt lat="42.87196" lon="1.18867">
        <ele>610.4</ele>
        <time>2024-06-16T13:35:54Z</time>
      </trkpt>
      <trkpt lat="42.87197" lon="1.18868">
        <ele>610.8</ele>
        <time>2024-06-16T13:35:55Z</time>
      </trkpt>
      <trkpt lat="42.87198" lon="1.1887">
        <ele>611.4</ele>
        <time>2024-06-16T13:35:56Z</time>
      </trkpt>
      <trkpt lat="42.87199" lon="1.18872">
        <ele>611.8</ele>
        <time>2024-06-16T13:35:57Z</time>
      </trkpt>
      <trkpt lat="42.87201" lon="1.18873">
        <ele>612.2</ele>
        <time>2024-06-16T13:35:58Z</time>
      </trkpt>
      <trkpt lat="42.87202" lon="1.18874">
        <ele>612.6</ele>
        <time>2024-06-16T13:35:59Z</time>
      </trkpt>
      <trkpt lat="42.87203" lon="1.18875">
        <ele>613</ele>
        <time>2024-06-16T13:36:00Z</time>
      </trkpt>
      <trkpt lat="42.87204" lon="1.18876">
        <ele>613.6</ele>
        <time>2024-06-16T13:36:01Z</time>
      </trkpt>
      <trkpt lat="42.87205" lon="1.18878">
        <ele>614</ele>
        <time>2024-06-16T13:36:02Z</time>
      </trkpt>
      <trkpt lat="42.87206" lon="1.18879">
        <ele>614.4</ele>
        <time>2024-06-16T13:36:03Z</time>
      </trkpt>
      <trkpt lat="42.8721" lon="1.18886">
        <ele>615</ele>
        <time>2024-06-16T13:36:06Z</time>
      </trkpt>
      <trkpt lat="42.87211" lon="1.18887">
        <ele>615.4</ele>
        <time>2024-06-16T13:36:07Z</time>
      </trkpt>
      <trkpt lat="42.87212" lon="1.18889">
        <ele>615.8</ele>
        <time>2024-06-16T13:36:08Z</time>
      </trkpt>
      <trkpt lat="42.87213" lon="1.1889">
        <ele>616.6</ele>
        <time>2024-06-16T13:36:09Z</time>
      </trkpt>
      <trkpt lat="42.87214" lon="1.1889">
        <ele>616.6</ele>
        <time>2024-06-16T13:36:10Z</time>
      </trkpt>
      <trkpt lat="42.87215" lon="1.18891">
        <ele>617</ele>
        <time>2024-06-16T13:36:11Z</time>
      </trkpt>
      <trkpt lat="42.87217" lon="1.18892">
        <ele>617.6</ele>
        <time>2024-06-16T13:36:12Z</time>
      </trkpt>
      <trkpt lat="42.8722" lon="1.18892">
        <ele>618</ele>
        <time>2024-06-16T13:36:13Z</time>
      </trkpt>
      <trkpt lat="42.87221" lon="1.18893">
        <ele>618.4</ele>
        <time>2024-06-16T13:36:14Z</time>
      </trkpt>
      <trkpt lat="42.87223" lon="1.18894">
        <ele>619</ele>
        <time>2024-06-16T13:36:15Z</time>
      </trkpt>
      <trkpt lat="42.87225" lon="1.18894">
        <ele>619.6</ele>
        <time>2024-06-16T13:36:16Z</time>
      </trkpt>
      <trkpt lat="42.87226" lon="1.18893">
        <ele>620.2</ele>
        <time>2024-06-16T13:36:17Z</time>
      </trkpt>
      <trkpt lat="42.87227" lon="1.18893">
        <ele>620.6</ele>
        <time>2024-06-16T13:36:18Z</time>
      </trkpt>
      <trkpt lat="42.87228" lon="1.18893">
        <ele>621.2</ele>
        <time>2024-06-16T13:36:19Z</time>
      </trkpt>
      <trkpt lat="42.87238" lon="1.18888">
        <ele>621.8</ele>
        <time>2024-06-16T13:36:24Z</time>
      </trkpt>
      <trkpt lat="42.8724" lon="1.18886">
        <ele>622.2</ele>
        <time>2024-06-16T13:36:25Z</time>
      </trkpt>
      <trkpt lat="42.87243" lon="1.18885">
        <ele>622.6</ele>
        <time>2024-06-16T13:36:26Z</time>
      </trkpt>
      <trkpt lat="42.87244" lon="1.18884">
        <ele>623</ele>
        <time>2024-06-16T13:36:27Z</time>
      </trkpt>
      <trkpt lat="42.87246" lon="1.18882">
        <ele>623.4</ele>
        <time>2024-06-16T13:36:28Z</time>
      </trkpt>
      <trkpt lat="42.87247" lon="1.18881">
        <ele>623.4</ele>
        <time>2024-06-16T13:36:29Z</time>
      </trkpt>
      <trkpt lat="42.87249" lon="1.1888">
        <ele>623.4</ele>
        <time>2024-06-16T13:36:30Z</time>
      </trkpt>
      <trkpt lat="42.87256" lon="1.18874">
        <ele>623.4</ele>
        <time>2024-06-16T13:36:33Z</time>
      </trkpt>
      <trkpt lat="42.8726" lon="1.18871">
        <ele>623.4</ele>
        <time>2024-06-16T13:36:35Z</time>
      </trkpt>
      <trkpt lat="42.87274" lon="1.18864">
        <ele>623.4</ele>
        <time>2024-06-16T13:36:41Z</time>
      </trkpt>
      <trkpt lat="42.87287" lon="1.18858">
        <ele>623.4</ele>
        <time>2024-06-16T13:36:47Z</time>
      </trkpt>
      <trkpt lat="42.87302" lon="1.1885">
        <ele>623.4</ele>
        <time>2024-06-16T13:36:54Z</time>
      </trkpt>
      <trkpt lat="42.87318" lon="1.18846">
        <ele>623.8</ele>
        <time>2024-06-16T13:37:00Z</time>
      </trkpt>
      <trkpt lat="42.87321" lon="1.18845">
        <ele>624.2</ele>
        <time>2024-06-16T13:37:01Z</time>
      </trkpt>
      <trkpt lat="42.87324" lon="1.18844">
        <ele>624.6</ele>
        <time>2024-06-16T13:37:02Z</time>
      </trkpt>
      <trkpt lat="42.87326" lon="1.18842">
        <ele>625</ele>
        <time>2024-06-16T13:37:03Z</time>
      </trkpt>
      <trkpt lat="42.87329" lon="1.18841">
        <ele>625.4</ele>
        <time>2024-06-16T13:37:04Z</time>
      </trkpt>
      <trkpt lat="42.87337" lon="1.18837">
        <ele>625.4</ele>
        <time>2024-06-16T13:37:08Z</time>
      </trkpt>
      <trkpt lat="42.87351" lon="1.18839">
        <ele>625.4</ele>
        <time>2024-06-16T13:37:13Z</time>
      </trkpt>
      <trkpt lat="42.87357" lon="1.18841">
        <ele>626</ele>
        <time>2024-06-16T13:37:15Z</time>
      </trkpt>
      <trkpt lat="42.87358" lon="1.18841">
        <ele>626.4</ele>
        <time>2024-06-16T13:37:16Z</time>
      </trkpt>
      <trkpt lat="42.87361" lon="1.18842">
        <ele>626.8</ele>
        <time>2024-06-16T13:37:17Z</time>
      </trkpt>
      <trkpt lat="42.87363" lon="1.18842">
        <ele>627.2</ele>
        <time>2024-06-16T13:37:18Z</time>
      </trkpt>
      <trkpt lat="42.87366" lon="1.18841">
        <ele>627.6</ele>
        <time>2024-06-16T13:37:19Z</time>
      </trkpt>
      <trkpt lat="42.87367" lon="1.1884">
        <ele>627.6</ele>
        <time>2024-06-16T13:37:20Z</time>
      </trkpt>
      <trkpt lat="42.8737" lon="1.18837">
        <ele>627.6</ele>
        <time>2024-06-16T13:37:22Z</time>
      </trkpt>
      <trkpt lat="42.87371" lon="1.18835">
        <ele>628.2</ele>
        <time>2024-06-16T13:37:23Z</time>
      </trkpt>
      <trkpt lat="42.87372" lon="1.18833">
        <ele>628.6</ele>
        <time>2024-06-16T13:37:24Z</time>
      </trkpt>
      <trkpt lat="42.87373" lon="1.1883">
        <ele>629</ele>
        <time>2024-06-16T13:37:25Z</time>
      </trkpt>
      <trkpt lat="42.87376" lon="1.18828">
        <ele>629.4</ele>
        <time>2024-06-16T13:37:26Z</time>
      </trkpt>
      <trkpt lat="42.87377" lon="1.18825">
        <ele>629.8</ele>
        <time>2024-06-16T13:37:27Z</time>
      </trkpt>
      <trkpt lat="42.87386" lon="1.18814">
        <ele>630.2</ele>
        <time>2024-06-16T13:37:31Z</time>
      </trkpt>
      <trkpt lat="42.87388" lon="1.18811">
        <ele>630.6</ele>
        <time>2024-06-16T13:37:32Z</time>
      </trkpt>
      <trkpt lat="42.8739" lon="1.18808">
        <ele>631</ele>
        <time>2024-06-16T13:37:33Z</time>
      </trkpt>
      <trkpt lat="42.87393" lon="1.18804">
        <ele>631.4</ele>
        <time>2024-06-16T13:37:34Z</time>
      </trkpt>
      <trkpt lat="42.87395" lon="1.18801">
        <ele>631.8</ele>
        <time>2024-06-16T13:37:35Z</time>
      </trkpt>
      <trkpt lat="42.87407" lon="1.18782">
        <ele>631.8</ele>
        <time>2024-06-16T13:37:40Z</time>
      </trkpt>
      <trkpt lat="42.87424" lon="1.18767">
        <ele>631.8</ele>
        <time>2024-06-16T13:37:46Z</time>
      </trkpt>
      <trkpt lat="42.87436" lon="1.18759">
        <ele>631.8</ele>
        <time>2024-06-16T13:37:51Z</time>
      </trkpt>
      <trkpt lat="42.87451" lon="1.18756">
        <ele>632.2</ele>
        <time>2024-06-16T13:37:56Z</time>
      </trkpt>
      <trkpt lat="42.87453" lon="1.18756">
        <ele>632.8</ele>
        <time>2024-06-16T13:37:57Z</time>
      </trkpt>
      <trkpt lat="42.87456" lon="1.18756">
        <ele>633.2</ele>
        <time>2024-06-16T13:37:58Z</time>
      </trkpt>
      <trkpt lat="42.87459" lon="1.18756">
        <ele>633.6</ele>
        <time>2024-06-16T13:37:59Z</time>
      </trkpt>
      <trkpt lat="42.87461" lon="1.18756">
        <ele>634</ele>
        <time>2024-06-16T13:38:00Z</time>
      </trkpt>
      <trkpt lat="42.87465" lon="1.18757">
        <ele>634.4</ele>
        <time>2024-06-16T13:38:02Z</time>
      </trkpt>
      <trkpt lat="42.87468" lon="1.18757">
        <ele>635</ele>
        <time>2024-06-16T13:38:03Z</time>
      </trkpt>
      <trkpt lat="42.87471" lon="1.18757">
        <ele>635.4</ele>
        <time>2024-06-16T13:38:04Z</time>
      </trkpt>
      <trkpt lat="42.87473" lon="1.18758">
        <ele>635.8</ele>
        <time>2024-06-16T13:38:05Z</time>
      </trkpt>
      <trkpt lat="42.87475" lon="1.18758">
        <ele>636.2</ele>
        <time>2024-06-16T13:38:06Z</time>
      </trkpt>
      <trkpt lat="42.8748" lon="1.18758">
        <ele>636.6</ele>
        <time>2024-06-16T13:38:08Z</time>
      </trkpt>
      <trkpt lat="42.87482" lon="1.18758">
        <ele>637</ele>
        <time>2024-06-16T13:38:09Z</time>
      </trkpt>
      <trkpt lat="42.87484" lon="1.18759">
        <ele>637.4</ele>
        <time>2024-06-16T13:38:10Z</time>
      </trkpt>
      <trkpt lat="42.87486" lon="1.18758">
        <ele>637.8</ele>
        <time>2024-06-16T13:38:11Z</time>
      </trkpt>
      <trkpt lat="42.87488" lon="1.18758">
        <ele>638.4</ele>
        <time>2024-06-16T13:38:12Z</time>
      </trkpt>
      <trkpt lat="42.8749" lon="1.18758">
        <ele>638.8</ele>
        <time>2024-06-16T13:38:13Z</time>
      </trkpt>
      <trkpt lat="42.87493" lon="1.18759">
        <ele>639.2</ele>
        <time>2024-06-16T13:38:14Z</time>
      </trkpt>
      <trkpt lat="42.87495" lon="1.18759">
        <ele>639.6</ele>
        <time>2024-06-16T13:38:15Z</time>
      </trkpt>
      <trkpt lat="42.87497" lon="1.18758">
        <ele>640</ele>
        <time>2024-06-16T13:38:16Z</time>
      </trkpt>
      <trkpt lat="42.87499" lon="1.18759">
        <ele>640.4</ele>
        <time>2024-06-16T13:38:17Z</time>
      </trkpt>
      <trkpt lat="42.87503" lon="1.18758">
        <ele>640.4</ele>
        <time>2024-06-16T13:38:19Z</time>
      </trkpt>
      <trkpt lat="42.87507" lon="1.18756">
        <ele>641</ele>
        <time>2024-06-16T13:38:22Z</time>
      </trkpt>
      <trkpt lat="42.87509" lon="1.18756">
        <ele>641.4</ele>
        <time>2024-06-16T13:38:23Z</time>
      </trkpt>
      <trkpt lat="42.8751" lon="1.18756">
        <ele>641.8</ele>
        <time>2024-06-16T13:38:24Z</time>
      </trkpt>
      <trkpt lat="42.8751" lon="1.18756">
        <ele>642.2</ele>
        <time>2024-06-16T13:38:25Z</time>
      </trkpt>
      <trkpt lat="42.87511" lon="1.18755">
        <ele>642.6</ele>
        <time>2024-06-16T13:38:26Z</time>
      </trkpt>
      <trkpt lat="42.87518" lon="1.18753">
        <ele>642.6</ele>
        <time>2024-06-16T13:38:31Z</time>
      </trkpt>
      <trkpt lat="42.87524" lon="1.18753">
        <ele>644.6</ele>
        <time>2024-06-16T13:41:30Z</time>
      </trkpt>
      <trkpt lat="42.87532" lon="1.18746">
        <ele>645</ele>
        <time>2024-06-16T13:41:34Z</time>
      </trkpt>
      <trkpt lat="42.87534" lon="1.18743">
        <ele>645.4</ele>
        <time>2024-06-16T13:41:35Z</time>
      </trkpt>
      <trkpt lat="42.87535" lon="1.1874">
        <ele>645.8</ele>
        <time>2024-06-16T13:41:36Z</time>
      </trkpt>
      <trkpt lat="42.87536" lon="1.18736">
        <ele>646.2</ele>
        <time>2024-06-16T13:41:37Z</time>
      </trkpt>
      <trkpt lat="42.87537" lon="1.18733">
        <ele>646.8</ele>
        <time>2024-06-16T13:41:38Z</time>
      </trkpt>
      <trkpt lat="42.87539" lon="1.18728">
        <ele>646.8</ele>
        <time>2024-06-16T13:41:40Z</time>
      </trkpt>
      <trkpt lat="42.87542" lon="1.18726">
        <ele>646.8</ele>
        <time>2024-06-16T13:41:42Z</time>
      </trkpt>
      <trkpt lat="42.87543" lon="1.18726">
        <ele>647.2</ele>
        <time>2024-06-16T13:41:43Z</time>
      </trkpt>
      <trkpt lat="42.87545" lon="1.18726">
        <ele>647.6</ele>
        <time>2024-06-16T13:41:44Z</time>
      </trkpt>
      <trkpt lat="42.87547" lon="1.18727">
        <ele>648.2</ele>
        <time>2024-06-16T13:41:45Z</time>
      </trkpt>
      <trkpt lat="42.87549" lon="1.18726">
        <ele>648.6</ele>
        <time>2024-06-16T13:41:46Z</time>
      </trkpt>
      <trkpt lat="42.87551" lon="1.18726">
        <ele>649.2</ele>
        <time>2024-06-16T13:41:47Z</time>
      </trkpt>
      <trkpt lat="42.87552" lon="1.18726">
        <ele>649.8</ele>
        <time>2024-06-16T13:41:48Z</time>
      </trkpt>
      <trkpt lat="42.87554" lon="1.18726">
        <ele>650.4</ele>
        <time>2024-06-16T13:41:49Z</time>
      </trkpt>
      <trkpt lat="42.87556" lon="1.18727">
        <ele>650.8</ele>
        <time>2024-06-16T13:41:50Z</time>
      </trkpt>
      <trkpt lat="42.87556" lon="1.18729">
        <ele>651.4</ele>
        <time>2024-06-16T13:41:51Z</time>
      </trkpt>
      <trkpt lat="42.87557" lon="1.18732">
        <ele>651.4</ele>
        <time>2024-06-16T13:41:53Z</time>
      </trkpt>
      <trkpt lat="42.87557" lon="1.18734">
        <ele>651.4</ele>
        <time>2024-06-16T13:41:54Z</time>
      </trkpt>
      <trkpt lat="42.87555" lon="1.18741">
        <ele>651.8</ele>
        <time>2024-06-16T13:41:57Z</time>
      </trkpt>
      <trkpt lat="42.87555" lon="1.18743">
        <ele>652.4</ele>
        <time>2024-06-16T13:41:58Z</time>
      </trkpt>
      <trkpt lat="42.87554" lon="1.18746">
        <ele>652.8</ele>
        <time>2024-06-16T13:41:59Z</time>
      </trkpt>
      <trkpt lat="42.87554" lon="1.18748">
        <ele>653.2</ele>
        <time>2024-06-16T13:42:00Z</time>
      </trkpt>
      <trkpt lat="42.87554" lon="1.18751">
        <ele>653.6</ele>
        <time>2024-06-16T13:42:01Z</time>
      </trkpt>
      <trkpt lat="42.87553" lon="1.18767">
        <ele>653.6</ele>
        <time>2024-06-16T13:42:08Z</time>
      </trkpt>
      <trkpt lat="42.87552" lon="1.1877">
        <ele>654</ele>
        <time>2024-06-16T13:42:09Z</time>
      </trkpt>
      <trkpt lat="42.87552" lon="1.18772">
        <ele>654.4</ele>
        <time>2024-06-16T13:42:10Z</time>
      </trkpt>
      <trkpt lat="42.87552" lon="1.18774">
        <ele>654.8</ele>
        <time>2024-06-16T13:42:11Z</time>
      </trkpt>
      <trkpt lat="42.87552" lon="1.18777">
        <ele>655.2</ele>
        <time>2024-06-16T13:42:12Z</time>
      </trkpt>
      <trkpt lat="42.87551" lon="1.18779">
        <ele>655.6</ele>
        <time>2024-06-16T13:42:13Z</time>
      </trkpt>
      <trkpt lat="42.8755" lon="1.18783">
        <ele>655.6</ele>
        <time>2024-06-16T13:42:15Z</time>
      </trkpt>
      <trkpt lat="42.87545" lon="1.18795">
        <ele>656.6</ele>
        <time>2024-06-16T13:42:20Z</time>
      </trkpt>
      <trkpt lat="42.87544" lon="1.18797">
        <ele>657</ele>
        <time>2024-06-16T13:42:21Z</time>
      </trkpt>
      <trkpt lat="42.87543" lon="1.18799">
        <ele>657.4</ele>
        <time>2024-06-16T13:42:22Z</time>
      </trkpt>
      <trkpt lat="42.87542" lon="1.18802">
        <ele>657.8</ele>
        <time>2024-06-16T13:42:23Z</time>
      </trkpt>
      <trkpt lat="42.87536" lon="1.18815">
        <ele>657.8</ele>
        <time>2024-06-16T13:42:29Z</time>
      </trkpt>
      <trkpt lat="42.87533" lon="1.1882">
        <ele>658.2</ele>
        <time>2024-06-16T13:42:31Z</time>
      </trkpt>
      <trkpt lat="42.87532" lon="1.18822">
        <ele>658.6</ele>
        <time>2024-06-16T13:42:32Z</time>
      </trkpt>
      <trkpt lat="42.87531" lon="1.18825">
        <ele>659.2</ele>
        <time>2024-06-16T13:42:33Z</time>
      </trkpt>
      <trkpt lat="42.8753" lon="1.18829">
        <ele>659.6</ele>
        <time>2024-06-16T13:42:34Z</time>
      </trkpt>
      <trkpt lat="42.87528" lon="1.18832">
        <ele>660</ele>
        <time>2024-06-16T13:42:35Z</time>
      </trkpt>
      <trkpt lat="42.87521" lon="1.18847">
        <ele>660.4</ele>
        <time>2024-06-16T13:42:40Z</time>
      </trkpt>
      <trkpt lat="42.87519" lon="1.1885">
        <ele>660.8</ele>
        <time>2024-06-16T13:42:41Z</time>
      </trkpt>
      <trkpt lat="42.87517" lon="1.18853">
        <ele>661.4</ele>
        <time>2024-06-16T13:42:42Z</time>
      </trkpt>
      <trkpt lat="42.87516" lon="1.18856">
        <ele>661.8</ele>
        <time>2024-06-16T13:42:43Z</time>
      </trkpt>
      <trkpt lat="42.87513" lon="1.18858">
        <ele>662.2</ele>
        <time>2024-06-16T13:42:44Z</time>
      </trkpt>
      <trkpt lat="42.87511" lon="1.18864">
        <ele>662.2</ele>
        <time>2024-06-16T13:42:46Z</time>
      </trkpt>
      <trkpt lat="42.87509" lon="1.18865">
        <ele>662.6</ele>
        <time>2024-06-16T13:42:47Z</time>
      </trkpt>
      <trkpt lat="42.87508" lon="1.18867">
        <ele>663.2</ele>
        <time>2024-06-16T13:42:48Z</time>
      </trkpt>
      <trkpt lat="42.87506" lon="1.1887">
        <ele>663.6</ele>
        <time>2024-06-16T13:42:49Z</time>
      </trkpt>
      <trkpt lat="42.87504" lon="1.18872">
        <ele>664</ele>
        <time>2024-06-16T13:42:50Z</time>
      </trkpt>
      <trkpt lat="42.87503" lon="1.18875">
        <ele>664.6</ele>
        <time>2024-06-16T13:42:51Z</time>
      </trkpt>
      <trkpt lat="42.87501" lon="1.18888">
        <ele>664.6</ele>
        <time>2024-06-16T13:42:55Z</time>
      </trkpt>
      <trkpt lat="42.87504" lon="1.18889">
        <ele>664.6</ele>
        <time>2024-06-16T13:42:57Z</time>
      </trkpt>
      <trkpt lat="42.87508" lon="1.18885">
        <ele>664.6</ele>
        <time>2024-06-16T13:42:59Z</time>
      </trkpt>
      <trkpt lat="42.87511" lon="1.18881">
        <ele>664.6</ele>
        <time>2024-06-16T13:43:01Z</time>
      </trkpt>
      <trkpt lat="42.87515" lon="1.18879">
        <ele>665</ele>
        <time>2024-06-16T13:43:03Z</time>
      </trkpt>
      <trkpt lat="42.87517" lon="1.18877">
        <ele>665.4</ele>
        <time>2024-06-16T13:43:04Z</time>
      </trkpt>
      <trkpt lat="42.87519" lon="1.18876">
        <ele>665.8</ele>
        <time>2024-06-16T13:43:05Z</time>
      </trkpt>
      <trkpt lat="42.87522" lon="1.18874">
        <ele>666.2</ele>
        <time>2024-06-16T13:43:06Z</time>
      </trkpt>
      <trkpt lat="42.87523" lon="1.18874">
        <ele>666.6</ele>
        <time>2024-06-16T13:43:07Z</time>
      </trkpt>
      <trkpt lat="42.87537" lon="1.18863">
        <ele>666.6</ele>
        <time>2024-06-16T13:43:14Z</time>
      </trkpt>
      <trkpt lat="42.87544" lon="1.18857">
        <ele>667</ele>
        <time>2024-06-16T13:43:17Z</time>
      </trkpt>
      <trkpt lat="42.87545" lon="1.18857">
        <ele>667.4</ele>
        <time>2024-06-16T13:43:18Z</time>
      </trkpt>
      <trkpt lat="42.87547" lon="1.18856">
        <ele>667.8</ele>
        <time>2024-06-16T13:43:19Z</time>
      </trkpt>
      <trkpt lat="42.87549" lon="1.18854">
        <ele>668.2</ele>
        <time>2024-06-16T13:43:20Z</time>
      </trkpt>
      <trkpt lat="42.87551" lon="1.18851">
        <ele>668.6</ele>
        <time>2024-06-16T13:43:21Z</time>
      </trkpt>
      <trkpt lat="42.87564" lon="1.18845">
        <ele>668.6</ele>
        <time>2024-06-16T13:43:26Z</time>
      </trkpt>
      <trkpt lat="42.87579" lon="1.18837">
        <ele>668.6</ele>
        <time>2024-06-16T13:43:32Z</time>
      </trkpt>
      <trkpt lat="42.87592" lon="1.18828">
        <ele>669</ele>
        <time>2024-06-16T13:43:38Z</time>
      </trkpt>
      <trkpt lat="42.87594" lon="1.18827">
        <ele>669.6</ele>
        <time>2024-06-16T13:43:39Z</time>
      </trkpt>
      <trkpt lat="42.87596" lon="1.18827">
        <ele>670</ele>
        <time>2024-06-16T13:43:40Z</time>
      </trkpt>
      <trkpt lat="42.87597" lon="1.18826">
        <ele>670.4</ele>
        <time>2024-06-16T13:43:41Z</time>
      </trkpt>
      <trkpt lat="42.87599" lon="1.18825">
        <ele>670.8</ele>
        <time>2024-06-16T13:43:42Z</time>
      </trkpt>
      <trkpt lat="42.87601" lon="1.18823">
        <ele>670.8</ele>
        <time>2024-06-16T13:43:43Z</time>
      </trkpt>
      <trkpt lat="42.87619" lon="1.18814">
        <ele>670.8</ele>
        <time>2024-06-16T13:43:50Z</time>
      </trkpt>
      <trkpt lat="42.87638" lon="1.1881">
        <ele>670.8</ele>
        <time>2024-06-16T13:43:55Z</time>
      </trkpt>
      <trkpt lat="42.87658" lon="1.18806">
        <ele>670.8</ele>
        <time>2024-06-16T13:44:01Z</time>
      </trkpt>
      <trkpt lat="42.87676" lon="1.18792">
        <ele>670.8</ele>
        <time>2024-06-16T13:44:06Z</time>
      </trkpt>
      <trkpt lat="42.87681" lon="1.1879">
        <ele>670.8</ele>
        <time>2024-06-16T13:44:07Z</time>
      </trkpt>
      <trkpt lat="42.87697" lon="1.18783">
        <ele>670.8</ele>
        <time>2024-06-16T13:44:11Z</time>
      </trkpt>
      <trkpt lat="42.87719" lon="1.18767">
        <ele>670.8</ele>
        <time>2024-06-16T13:44:17Z</time>
      </trkpt>
      <trkpt lat="42.87736" lon="1.18744">
        <ele>670.8</ele>
        <time>2024-06-16T13:44:22Z</time>
      </trkpt>
      <trkpt lat="42.87739" lon="1.18738">
        <ele>670.8</ele>
        <time>2024-06-16T13:44:23Z</time>
      </trkpt>
      <trkpt lat="42.87742" lon="1.18732">
        <ele>670.4</ele>
        <time>2024-06-16T13:44:24Z</time>
      </trkpt>
      <trkpt lat="42.87745" lon="1.18726">
        <ele>670</ele>
        <time>2024-06-16T13:44:25Z</time>
      </trkpt>
      <trkpt lat="42.87746" lon="1.1872">
        <ele>669.6</ele>
        <time>2024-06-16T13:44:26Z</time>
      </trkpt>
      <trkpt lat="42.87746" lon="1.18715">
        <ele>669.2</ele>
        <time>2024-06-16T13:44:27Z</time>
      </trkpt>
      <trkpt lat="42.87746" lon="1.18709">
        <ele>668.6</ele>
        <time>2024-06-16T13:44:28Z</time>
      </trkpt>
      <trkpt lat="42.87747" lon="1.18669">
        <ele>668.2</ele>
        <time>2024-06-16T13:44:34Z</time>
      </trkpt>
      <trkpt lat="42.87749" lon="1.18662">
        <ele>667.8</ele>
        <time>2024-06-16T13:44:35Z</time>
      </trkpt>
      <trkpt lat="42.8775" lon="1.18655">
        <ele>667.4</ele>
        <time>2024-06-16T13:44:36Z</time>
      </trkpt>
      <trkpt lat="42.87752" lon="1.18647">
        <ele>667</ele>
        <time>2024-06-16T13:44:37Z</time>
      </trkpt>
      <trkpt lat="42.87753" lon="1.1864">
        <ele>666.6</ele>
        <time>2024-06-16T13:44:38Z</time>
      </trkpt>
      <trkpt lat="42.87757" lon="1.18626">
        <ele>666</ele>
        <time>2024-06-16T13:44:40Z</time>
      </trkpt>
      <trkpt lat="42.87759" lon="1.18619">
        <ele>665.6</ele>
        <time>2024-06-16T13:44:41Z</time>
      </trkpt>
      <trkpt lat="42.87761" lon="1.18612">
        <ele>665.2</ele>
        <time>2024-06-16T13:44:42Z</time>
      </trkpt>
      <trkpt lat="42.87764" lon="1.18607">
        <ele>664.6</ele>
        <time>2024-06-16T13:44:43Z</time>
      </trkpt>
      <trkpt lat="42.87766" lon="1.18603">
        <ele>664.2</ele>
        <time>2024-06-16T13:44:44Z</time>
      </trkpt>
      <trkpt lat="42.87769" lon="1.18598">
        <ele>664.2</ele>
        <time>2024-06-16T13:44:45Z</time>
      </trkpt>
      <trkpt lat="42.87773" lon="1.18595">
        <ele>664.2</ele>
        <time>2024-06-16T13:44:46Z</time>
      </trkpt>
      <trkpt lat="42.87777" lon="1.18591">
        <ele>663.8</ele>
        <time>2024-06-16T13:44:47Z</time>
      </trkpt>
      <trkpt lat="42.87782" lon="1.18588">
        <ele>663</ele>
        <time>2024-06-16T13:44:48Z</time>
      </trkpt>
      <trkpt lat="42.87785" lon="1.18585">
        <ele>662.6</ele>
        <time>2024-06-16T13:44:49Z</time>
      </trkpt>
      <trkpt lat="42.87789" lon="1.18582">
        <ele>662</ele>
        <time>2024-06-16T13:44:50Z</time>
      </trkpt>
      <trkpt lat="42.87794" lon="1.18578">
        <ele>661.6</ele>
        <time>2024-06-16T13:44:51Z</time>
      </trkpt>
      <trkpt lat="42.87799" lon="1.18574">
        <ele>661.2</ele>
        <time>2024-06-16T13:44:52Z</time>
      </trkpt>
      <trkpt lat="42.87804" lon="1.18571">
        <ele>660.8</ele>
        <time>2024-06-16T13:44:53Z</time>
      </trkpt>
      <trkpt lat="42.8781" lon="1.18564">
        <ele>660.2</ele>
        <time>2024-06-16T13:44:54Z</time>
      </trkpt>
      <trkpt lat="42.87813" lon="1.18558">
        <ele>659.6</ele>
        <time>2024-06-16T13:44:55Z</time>
      </trkpt>
      <trkpt lat="42.87815" lon="1.18551">
        <ele>659</ele>
        <time>2024-06-16T13:44:56Z</time>
      </trkpt>
      <trkpt lat="42.87816" lon="1.18543">
        <ele>658.4</ele>
        <time>2024-06-16T13:44:57Z</time>
      </trkpt>
      <trkpt lat="42.87816" lon="1.18535">
        <ele>657.8</ele>
        <time>2024-06-16T13:44:58Z</time>
      </trkpt>
      <trkpt lat="42.87814" lon="1.18529">
        <ele>657.4</ele>
        <time>2024-06-16T13:44:59Z</time>
      </trkpt>
      <trkpt lat="42.87811" lon="1.18522">
        <ele>657</ele>
        <time>2024-06-16T13:45:00Z</time>
      </trkpt>
      <trkpt lat="42.87809" lon="1.18515">
        <ele>656.6</ele>
        <time>2024-06-16T13:45:01Z</time>
      </trkpt>
      <trkpt lat="42.87808" lon="1.18508">
        <ele>656.2</ele>
        <time>2024-06-16T13:45:02Z</time>
      </trkpt>
      <trkpt lat="42.87808" lon="1.185">
        <ele>655.8</ele>
        <time>2024-06-16T13:45:03Z</time>
      </trkpt>
      <trkpt lat="42.87807" lon="1.18491">
        <ele>655.4</ele>
        <time>2024-06-16T13:45:05Z</time>
      </trkpt>
      <trkpt lat="42.87807" lon="1.18491">
        <ele>654.8</ele>
        <time>2024-06-16T13:45:06Z</time>
      </trkpt>
      <trkpt lat="42.87808" lon="1.18491">
        <ele>654.4</ele>
        <time>2024-06-16T13:45:07Z</time>
      </trkpt>
      <trkpt lat="42.87807" lon="1.18489">
        <ele>653.4</ele>
        <time>2024-06-16T13:45:10Z</time>
      </trkpt>
      <trkpt lat="42.87807" lon="1.18489">
        <ele>653.4</ele>
        <time>2024-06-16T13:45:12Z</time>
      </trkpt>
      <trkpt lat="42.87807" lon="1.1849">
        <ele>653.4</ele>
        <time>2024-06-16T13:45:16Z</time>
      </trkpt>
      <trkpt lat="42.87808" lon="1.18491">
        <ele>653.4</ele>
        <time>2024-06-16T13:45:17Z</time>
      </trkpt>
      <trkpt lat="42.87811" lon="1.18502">
        <ele>653.4</ele>
        <time>2024-06-16T13:45:22Z</time>
      </trkpt>
      <trkpt lat="42.87812" lon="1.18513">
        <ele>653.4</ele>
        <time>2024-06-16T13:45:26Z</time>
      </trkpt>
      <trkpt lat="42.87815" lon="1.18515">
        <ele>653.4</ele>
        <time>2024-06-16T13:45:29Z</time>
      </trkpt>
      <trkpt lat="42.87815" lon="1.18516">
        <ele>653.4</ele>
        <time>2024-06-16T13:45:30Z</time>
      </trkpt>
      <trkpt lat="42.87814" lon="1.18514">
        <ele>653.4</ele>
        <time>2024-06-16T13:45:32Z</time>
      </trkpt>
      <trkpt lat="42.87813" lon="1.18512">
        <ele>653.4</ele>
        <time>2024-06-16T13:45:35Z</time>
      </trkpt>
      <trkpt lat="42.87812" lon="1.18511">
        <ele>653.4</ele>
        <time>2024-06-16T13:45:38Z</time>
      </trkpt>
      <trkpt lat="42.87812" lon="1.1851">
        <ele>653.4</ele>
        <time>2024-06-16T13:46:40Z</time>
      </trkpt>
      <trkpt lat="42.87813" lon="1.18508">
        <ele>653.4</ele>
        <time>2024-06-16T13:46:41Z</time>
      </trkpt>
      <trkpt lat="42.87811" lon="1.18497">
        <ele>653.4</ele>
        <time>2024-06-16T13:46:44Z</time>
      </trkpt>
      <trkpt lat="42.87811" lon="1.18493">
        <ele>653.4</ele>
        <time>2024-06-16T13:46:45Z</time>
      </trkpt>
      <trkpt lat="42.87811" lon="1.18477">
        <ele>653.4</ele>
        <time>2024-06-16T13:46:48Z</time>
      </trkpt>
      <trkpt lat="42.87813" lon="1.18464">
        <ele>653.4</ele>
        <time>2024-06-16T13:46:50Z</time>
      </trkpt>
      <trkpt lat="42.87814" lon="1.18457">
        <ele>653</ele>
        <time>2024-06-16T13:46:51Z</time>
      </trkpt>
      <trkpt lat="42.87817" lon="1.1845">
        <ele>652.6</ele>
        <time>2024-06-16T13:46:52Z</time>
      </trkpt>
      <trkpt lat="42.8782" lon="1.18443">
        <ele>652.2</ele>
        <time>2024-06-16T13:46:53Z</time>
      </trkpt>
      <trkpt lat="42.87825" lon="1.18437">
        <ele>651.8</ele>
        <time>2024-06-16T13:46:54Z</time>
      </trkpt>
      <trkpt lat="42.8783" lon="1.18431">
        <ele>651.2</ele>
        <time>2024-06-16T13:46:55Z</time>
      </trkpt>
      <trkpt lat="42.87836" lon="1.18425">
        <ele>650.8</ele>
        <time>2024-06-16T13:46:56Z</time>
      </trkpt>
      <trkpt lat="42.87843" lon="1.1842">
        <ele>650.2</ele>
        <time>2024-06-16T13:46:57Z</time>
      </trkpt>
      <trkpt lat="42.8785" lon="1.18417">
        <ele>649.8</ele>
        <time>2024-06-16T13:46:58Z</time>
      </trkpt>
      <trkpt lat="42.87857" lon="1.18415">
        <ele>649.2</ele>
        <time>2024-06-16T13:46:59Z</time>
      </trkpt>
      <trkpt lat="42.87864" lon="1.18414">
        <ele>648.8</ele>
        <time>2024-06-16T13:47:00Z</time>
      </trkpt>
      <trkpt lat="42.87871" lon="1.18413">
        <ele>648.2</ele>
        <time>2024-06-16T13:47:01Z</time>
      </trkpt>
      <trkpt lat="42.87877" lon="1.18412">
        <ele>647.8</ele>
        <time>2024-06-16T13:47:02Z</time>
      </trkpt>
      <trkpt lat="42.87884" lon="1.1841">
        <ele>647.2</ele>
        <time>2024-06-16T13:47:03Z</time>
      </trkpt>
      <trkpt lat="42.87891" lon="1.18408">
        <ele>646.6</ele>
        <time>2024-06-16T13:47:04Z</time>
      </trkpt>
      <trkpt lat="42.87898" lon="1.18406">
        <ele>646</ele>
        <time>2024-06-16T13:47:05Z</time>
      </trkpt>
      <trkpt lat="42.87904" lon="1.18404">
        <ele>645.2</ele>
        <time>2024-06-16T13:47:06Z</time>
      </trkpt>
      <trkpt lat="42.87907" lon="1.18401">
        <ele>644.6</ele>
        <time>2024-06-16T13:47:07Z</time>
      </trkpt>
      <trkpt lat="42.87909" lon="1.18396">
        <ele>644</ele>
        <time>2024-06-16T13:47:08Z</time>
      </trkpt>
      <trkpt lat="42.87909" lon="1.18387">
        <ele>643.2</ele>
        <time>2024-06-16T13:47:09Z</time>
      </trkpt>
      <trkpt lat="42.87907" lon="1.18382">
        <ele>642.6</ele>
        <time>2024-06-16T13:47:10Z</time>
      </trkpt>
      <trkpt lat="42.87904" lon="1.18378">
        <ele>642</ele>
        <time>2024-06-16T13:47:11Z</time>
      </trkpt>
      <trkpt lat="42.879" lon="1.18374">
        <ele>641.4</ele>
        <time>2024-06-16T13:47:12Z</time>
      </trkpt>
      <trkpt lat="42.87895" lon="1.18371">
        <ele>640.8</ele>
        <time>2024-06-16T13:47:13Z</time>
      </trkpt>
      <trkpt lat="42.8789" lon="1.18368">
        <ele>640.4</ele>
        <time>2024-06-16T13:47:14Z</time>
      </trkpt>
      <trkpt lat="42.87884" lon="1.18366">
        <ele>639.8</ele>
        <time>2024-06-16T13:47:15Z</time>
      </trkpt>
      <trkpt lat="42.87878" lon="1.18364">
        <ele>638.8</ele>
        <time>2024-06-16T13:47:16Z</time>
      </trkpt>
      <trkpt lat="42.87872" lon="1.18363">
        <ele>638.4</ele>
        <time>2024-06-16T13:47:17Z</time>
      </trkpt>
      <trkpt lat="42.87866" lon="1.18361">
        <ele>638</ele>
        <time>2024-06-16T13:47:18Z</time>
      </trkpt>
      <trkpt lat="42.87857" lon="1.18358">
        <ele>637.6</ele>
        <time>2024-06-16T13:47:19Z</time>
      </trkpt>
      <trkpt lat="42.87847" lon="1.18354">
        <ele>637</ele>
        <time>2024-06-16T13:47:20Z</time>
      </trkpt>
      <trkpt lat="42.8784" lon="1.18347">
        <ele>636.6</ele>
        <time>2024-06-16T13:47:21Z</time>
      </trkpt>
      <trkpt lat="42.87832" lon="1.1834">
        <ele>636</ele>
        <time>2024-06-16T13:47:22Z</time>
      </trkpt>
      <trkpt lat="42.87825" lon="1.18332">
        <ele>635.6</ele>
        <time>2024-06-16T13:47:23Z</time>
      </trkpt>
      <trkpt lat="42.87818" lon="1.18324">
        <ele>635</ele>
        <time>2024-06-16T13:47:24Z</time>
      </trkpt>
      <trkpt lat="42.87812" lon="1.18313">
        <ele>634.4</ele>
        <time>2024-06-16T13:47:25Z</time>
      </trkpt>
      <trkpt lat="42.87808" lon="1.18301">
        <ele>634</ele>
        <time>2024-06-16T13:47:26Z</time>
      </trkpt>
      <trkpt lat="42.87804" lon="1.18288">
        <ele>633.4</ele>
        <time>2024-06-16T13:47:27Z</time>
      </trkpt>
      <trkpt lat="42.87801" lon="1.18276">
        <ele>632.8</ele>
        <time>2024-06-16T13:47:28Z</time>
      </trkpt>
      <trkpt lat="42.87799" lon="1.18265">
        <ele>632.2</ele>
        <time>2024-06-16T13:47:29Z</time>
      </trkpt>
      <trkpt lat="42.87798" lon="1.18255">
        <ele>631.6</ele>
        <time>2024-06-16T13:47:30Z</time>
      </trkpt>
      <trkpt lat="42.87799" lon="1.18245">
        <ele>631</ele>
        <time>2024-06-16T13:47:31Z</time>
      </trkpt>
      <trkpt lat="42.878" lon="1.18237">
        <ele>630.4</ele>
        <time>2024-06-16T13:47:32Z</time>
      </trkpt>
      <trkpt lat="42.87802" lon="1.18229">
        <ele>630</ele>
        <time>2024-06-16T13:47:33Z</time>
      </trkpt>
      <trkpt lat="42.87803" lon="1.18222">
        <ele>629.4</ele>
        <time>2024-06-16T13:47:34Z</time>
      </trkpt>
      <trkpt lat="42.87805" lon="1.18215">
        <ele>628.8</ele>
        <time>2024-06-16T13:47:35Z</time>
      </trkpt>
      <trkpt lat="42.87808" lon="1.18208">
        <ele>628.2</ele>
        <time>2024-06-16T13:47:36Z</time>
      </trkpt>
      <trkpt lat="42.8781" lon="1.18202">
        <ele>627.6</ele>
        <time>2024-06-16T13:47:37Z</time>
      </trkpt>
      <trkpt lat="42.87813" lon="1.18195">
        <ele>626.8</ele>
        <time>2024-06-16T13:47:38Z</time>
      </trkpt>
      <trkpt lat="42.87816" lon="1.18189">
        <ele>626.2</ele>
        <time>2024-06-16T13:47:39Z</time>
      </trkpt>
      <trkpt lat="42.87819" lon="1.18184">
        <ele>626.2</ele>
        <time>2024-06-16T13:47:40Z</time>
      </trkpt>
      <trkpt lat="42.87834" lon="1.18166">
        <ele>625.8</ele>
        <time>2024-06-16T13:47:44Z</time>
      </trkpt>
      <trkpt lat="42.87839" lon="1.18162">
        <ele>625.4</ele>
        <time>2024-06-16T13:47:45Z</time>
      </trkpt>
      <trkpt lat="42.87844" lon="1.18157">
        <ele>624.8</ele>
        <time>2024-06-16T13:47:46Z</time>
      </trkpt>
      <trkpt lat="42.87849" lon="1.18152">
        <ele>624.4</ele>
        <time>2024-06-16T13:47:47Z</time>
      </trkpt>
      <trkpt lat="42.87854" lon="1.18147">
        <ele>624</ele>
        <time>2024-06-16T13:47:48Z</time>
      </trkpt>
      <trkpt lat="42.87859" lon="1.18139">
        <ele>623.6</ele>
        <time>2024-06-16T13:47:49Z</time>
      </trkpt>
      <trkpt lat="42.87862" lon="1.18131">
        <ele>623.2</ele>
        <time>2024-06-16T13:47:50Z</time>
      </trkpt>
      <trkpt lat="42.87863" lon="1.18122">
        <ele>622.8</ele>
        <time>2024-06-16T13:47:51Z</time>
      </trkpt>
      <trkpt lat="42.87865" lon="1.18113">
        <ele>622.4</ele>
        <time>2024-06-16T13:47:52Z</time>
      </trkpt>
      <trkpt lat="42.87867" lon="1.18104">
        <ele>621.8</ele>
        <time>2024-06-16T13:47:53Z</time>
      </trkpt>
      <trkpt lat="42.8787" lon="1.18094">
        <ele>621.4</ele>
        <time>2024-06-16T13:47:54Z</time>
      </trkpt>
      <trkpt lat="42.87875" lon="1.18086">
        <ele>621</ele>
        <time>2024-06-16T13:47:55Z</time>
      </trkpt>
      <trkpt lat="42.8788" lon="1.18078">
        <ele>620.6</ele>
        <time>2024-06-16T13:47:56Z</time>
      </trkpt>
      <trkpt lat="42.87886" lon="1.18069">
        <ele>620</ele>
        <time>2024-06-16T13:47:57Z</time>
      </trkpt>
      <trkpt lat="42.87892" lon="1.18061">
        <ele>619.4</ele>
        <time>2024-06-16T13:47:58Z</time>
      </trkpt>
      <trkpt lat="42.87898" lon="1.18053">
        <ele>618.8</ele>
        <time>2024-06-16T13:47:59Z</time>
      </trkpt>
      <trkpt lat="42.87903" lon="1.18045">
        <ele>618.2</ele>
        <time>2024-06-16T13:48:00Z</time>
      </trkpt>
      <trkpt lat="42.87909" lon="1.18037">
        <ele>617.6</ele>
        <time>2024-06-16T13:48:01Z</time>
      </trkpt>
      <trkpt lat="42.87915" lon="1.18029">
        <ele>617</ele>
        <time>2024-06-16T13:48:02Z</time>
      </trkpt>
      <trkpt lat="42.8792" lon="1.18021">
        <ele>616.4</ele>
        <time>2024-06-16T13:48:03Z</time>
      </trkpt>
      <trkpt lat="42.87926" lon="1.18013">
        <ele>615.8</ele>
        <time>2024-06-16T13:48:04Z</time>
      </trkpt>
      <trkpt lat="42.87931" lon="1.18006">
        <ele>615.2</ele>
        <time>2024-06-16T13:48:05Z</time>
      </trkpt>
      <trkpt lat="42.87936" lon="1.17998">
        <ele>614</ele>
        <time>2024-06-16T13:48:06Z</time>
      </trkpt>
      <trkpt lat="42.87941" lon="1.17991">
        <ele>613.4</ele>
        <time>2024-06-16T13:48:07Z</time>
      </trkpt>
      <trkpt lat="42.87946" lon="1.17985">
        <ele>612.6</ele>
        <time>2024-06-16T13:48:08Z</time>
      </trkpt>
      <trkpt lat="42.87951" lon="1.1798">
        <ele>612</ele>
        <time>2024-06-16T13:48:09Z</time>
      </trkpt>
      <trkpt lat="42.8796" lon="1.1797">
        <ele>611.6</ele>
        <time>2024-06-16T13:48:11Z</time>
      </trkpt>
      <trkpt lat="42.87962" lon="1.17963">
        <ele>611.2</ele>
        <time>2024-06-16T13:48:12Z</time>
      </trkpt>
      <trkpt lat="42.87963" lon="1.17955">
        <ele>610.8</ele>
        <time>2024-06-16T13:48:13Z</time>
      </trkpt>
      <trkpt lat="42.87961" lon="1.17949">
        <ele>610.4</ele>
        <time>2024-06-16T13:48:14Z</time>
      </trkpt>
      <trkpt lat="42.87959" lon="1.17944">
        <ele>610</ele>
        <time>2024-06-16T13:48:15Z</time>
      </trkpt>
      <trkpt lat="42.87951" lon="1.17938">
        <ele>610</ele>
        <time>2024-06-16T13:48:18Z</time>
      </trkpt>
      <trkpt lat="42.87945" lon="1.17937">
        <ele>610</ele>
        <time>2024-06-16T13:48:20Z</time>
      </trkpt>
      <trkpt lat="42.87935" lon="1.17939">
        <ele>610</ele>
        <time>2024-06-16T13:48:23Z</time>
      </trkpt>
      <trkpt lat="42.8792" lon="1.17937">
        <ele>610.4</ele>
        <time>2024-06-16T13:48:28Z</time>
      </trkpt>
      <trkpt lat="42.87917" lon="1.17936">
        <ele>610.8</ele>
        <time>2024-06-16T13:48:29Z</time>
      </trkpt>
      <trkpt lat="42.87914" lon="1.17936">
        <ele>611.2</ele>
        <time>2024-06-16T13:48:30Z</time>
      </trkpt>
      <trkpt lat="42.87911" lon="1.17935">
        <ele>612</ele>
        <time>2024-06-16T13:48:31Z</time>
      </trkpt>
      <trkpt lat="42.87903" lon="1.17931">
        <ele>612.6</ele>
        <time>2024-06-16T13:48:34Z</time>
      </trkpt>
      <trkpt lat="42.87901" lon="1.1793">
        <ele>613</ele>
        <time>2024-06-16T13:48:35Z</time>
      </trkpt>
      <trkpt lat="42.87898" lon="1.17929">
        <ele>613.4</ele>
        <time>2024-06-16T13:48:36Z</time>
      </trkpt>
      <trkpt lat="42.87896" lon="1.17928">
        <ele>613.8</ele>
        <time>2024-06-16T13:48:37Z</time>
      </trkpt>
      <trkpt lat="42.87893" lon="1.17926">
        <ele>614.2</ele>
        <time>2024-06-16T13:48:38Z</time>
      </trkpt>
      <trkpt lat="42.87891" lon="1.17925">
        <ele>614.2</ele>
        <time>2024-06-16T13:48:39Z</time>
      </trkpt>
      <trkpt lat="42.87889" lon="1.17923">
        <ele>614.6</ele>
        <time>2024-06-16T13:48:40Z</time>
      </trkpt>
      <trkpt lat="42.87887" lon="1.17922">
        <ele>615</ele>
        <time>2024-06-16T13:48:41Z</time>
      </trkpt>
      <trkpt lat="42.87884" lon="1.17921">
        <ele>615.6</ele>
        <time>2024-06-16T13:48:42Z</time>
      </trkpt>
      <trkpt lat="42.87881" lon="1.1792">
        <ele>616</ele>
        <time>2024-06-16T13:48:43Z</time>
      </trkpt>
      <trkpt lat="42.87879" lon="1.17919">
        <ele>616.4</ele>
        <time>2024-06-16T13:48:44Z</time>
      </trkpt>
      <trkpt lat="42.8787" lon="1.17916">
        <ele>616.8</ele>
        <time>2024-06-16T13:48:47Z</time>
      </trkpt>
      <trkpt lat="42.87868" lon="1.17916">
        <ele>617.2</ele>
        <time>2024-06-16T13:48:48Z</time>
      </trkpt>
      <trkpt lat="42.87865" lon="1.17917">
        <ele>617.6</ele>
        <time>2024-06-16T13:48:49Z</time>
      </trkpt>
      <trkpt lat="42.87862" lon="1.17918">
        <ele>618.2</ele>
        <time>2024-06-16T13:48:50Z</time>
      </trkpt>
      <trkpt lat="42.87859" lon="1.17919">
        <ele>618.6</ele>
        <time>2024-06-16T13:48:51Z</time>
      </trkpt>
      <trkpt lat="42.87855" lon="1.1792">
        <ele>618.6</ele>
        <time>2024-06-16T13:48:52Z</time>
      </trkpt>
      <trkpt lat="42.87845" lon="1.17925">
        <ele>619.4</ele>
        <time>2024-06-16T13:48:55Z</time>
      </trkpt>
      <trkpt lat="42.87843" lon="1.17927">
        <ele>619.8</ele>
        <time>2024-06-16T13:48:56Z</time>
      </trkpt>
      <trkpt lat="42.8784" lon="1.17928">
        <ele>620.2</ele>
        <time>2024-06-16T13:48:57Z</time>
      </trkpt>
      <trkpt lat="42.87838" lon="1.1793">
        <ele>620.6</ele>
        <time>2024-06-16T13:48:58Z</time>
      </trkpt>
      <trkpt lat="42.87828" lon="1.17935">
        <ele>621</ele>
        <time>2024-06-16T13:49:02Z</time>
      </trkpt>
      <trkpt lat="42.87825" lon="1.17936">
        <ele>621.6</ele>
        <time>2024-06-16T13:49:03Z</time>
      </trkpt>
      <trkpt lat="42.87822" lon="1.17937">
        <ele>622</ele>
        <time>2024-06-16T13:49:04Z</time>
      </trkpt>
      <trkpt lat="42.87819" lon="1.17937">
        <ele>622.4</ele>
        <time>2024-06-16T13:49:05Z</time>
      </trkpt>
      <trkpt lat="42.87815" lon="1.17937">
        <ele>623</ele>
        <time>2024-06-16T13:49:06Z</time>
      </trkpt>
      <trkpt lat="42.87806" lon="1.17937">
        <ele>623</ele>
        <time>2024-06-16T13:49:09Z</time>
      </trkpt>
      <trkpt lat="42.87803" lon="1.17937">
        <ele>623.4</ele>
        <time>2024-06-16T13:49:10Z</time>
      </trkpt>
      <trkpt lat="42.87801" lon="1.17937">
        <ele>623.8</ele>
        <time>2024-06-16T13:49:11Z</time>
      </trkpt>
      <trkpt lat="42.87798" lon="1.17936">
        <ele>624.2</ele>
        <time>2024-06-16T13:49:12Z</time>
      </trkpt>
      <trkpt lat="42.87795" lon="1.17936">
        <ele>624.6</ele>
        <time>2024-06-16T13:49:13Z</time>
      </trkpt>
      <trkpt lat="42.87792" lon="1.17935">
        <ele>625</ele>
        <time>2024-06-16T13:49:14Z</time>
      </trkpt>
      <trkpt lat="42.87782" lon="1.17939">
        <ele>625.4</ele>
        <time>2024-06-16T13:49:17Z</time>
      </trkpt>
      <trkpt lat="42.87779" lon="1.17939">
        <ele>625.8</ele>
        <time>2024-06-16T13:49:18Z</time>
      </trkpt>
      <trkpt lat="42.87776" lon="1.1794">
        <ele>626.6</ele>
        <time>2024-06-16T13:49:19Z</time>
      </trkpt>
      <trkpt lat="42.87773" lon="1.17941">
        <ele>627</ele>
        <time>2024-06-16T13:49:20Z</time>
      </trkpt>
      <trkpt lat="42.87766" lon="1.17943">
        <ele>627.6</ele>
        <time>2024-06-16T13:49:23Z</time>
      </trkpt>
      <trkpt lat="42.87763" lon="1.17944">
        <ele>628</ele>
        <time>2024-06-16T13:49:24Z</time>
      </trkpt>
      <trkpt lat="42.8776" lon="1.17946">
        <ele>628.4</ele>
        <time>2024-06-16T13:49:25Z</time>
      </trkpt>
      <trkpt lat="42.87757" lon="1.17948">
        <ele>628.8</ele>
        <time>2024-06-16T13:49:26Z</time>
      </trkpt>
      <trkpt lat="42.87755" lon="1.1795">
        <ele>629.2</ele>
        <time>2024-06-16T13:49:27Z</time>
      </trkpt>
      <trkpt lat="42.87748" lon="1.17951">
        <ele>629.6</ele>
        <time>2024-06-16T13:49:30Z</time>
      </trkpt>
      <trkpt lat="42.87746" lon="1.17952">
        <ele>630.2</ele>
        <time>2024-06-16T13:49:31Z</time>
      </trkpt>
      <trkpt lat="42.87744" lon="1.17953">
        <ele>630.6</ele>
        <time>2024-06-16T13:49:32Z</time>
      </trkpt>
      <trkpt lat="42.87741" lon="1.17953">
        <ele>631</ele>
        <time>2024-06-16T13:49:33Z</time>
      </trkpt>
      <trkpt lat="42.87739" lon="1.17952">
        <ele>631.4</ele>
        <time>2024-06-16T13:49:34Z</time>
      </trkpt>
      <trkpt lat="42.87733" lon="1.17952">
        <ele>631.4</ele>
        <time>2024-06-16T13:49:36Z</time>
      </trkpt>
      <trkpt lat="42.87717" lon="1.17946">
        <ele>631.4</ele>
        <time>2024-06-16T13:49:42Z</time>
      </trkpt>
      <trkpt lat="42.87714" lon="1.17945">
        <ele>631.8</ele>
        <time>2024-06-16T13:49:43Z</time>
      </trkpt>
      <trkpt lat="42.87711" lon="1.17943">
        <ele>632.8</ele>
        <time>2024-06-16T13:49:44Z</time>
      </trkpt>
      <trkpt lat="42.87707" lon="1.17941">
        <ele>633.2</ele>
        <time>2024-06-16T13:49:45Z</time>
      </trkpt>
      <trkpt lat="42.87704" lon="1.17941">
        <ele>633.6</ele>
        <time>2024-06-16T13:49:46Z</time>
      </trkpt>
      <trkpt lat="42.87697" lon="1.17941">
        <ele>633.6</ele>
        <time>2024-06-16T13:49:48Z</time>
      </trkpt>
      <trkpt lat="42.87679" lon="1.17952">
        <ele>634</ele>
        <time>2024-06-16T13:49:54Z</time>
      </trkpt>
      <trkpt lat="42.87677" lon="1.17954">
        <ele>634.4</ele>
        <time>2024-06-16T13:49:55Z</time>
      </trkpt>
      <trkpt lat="42.87674" lon="1.17957">
        <ele>634.8</ele>
        <time>2024-06-16T13:49:56Z</time>
      </trkpt>
      <trkpt lat="42.87672" lon="1.17959">
        <ele>635.2</ele>
        <time>2024-06-16T13:49:57Z</time>
      </trkpt>
      <trkpt lat="42.8767" lon="1.17961">
        <ele>635.6</ele>
        <time>2024-06-16T13:49:58Z</time>
      </trkpt>
      <trkpt lat="42.87667" lon="1.17964">
        <ele>635.6</ele>
        <time>2024-06-16T13:49:59Z</time>
      </trkpt>
      <trkpt lat="42.87657" lon="1.17979">
        <ele>635.6</ele>
        <time>2024-06-16T13:50:04Z</time>
      </trkpt>
      <trkpt lat="42.87655" lon="1.17981">
        <ele>636</ele>
        <time>2024-06-16T13:50:05Z</time>
      </trkpt>
      <trkpt lat="42.87654" lon="1.17984">
        <ele>636.6</ele>
        <time>2024-06-16T13:50:06Z</time>
      </trkpt>
      <trkpt lat="42.87653" lon="1.17986">
        <ele>637</ele>
        <time>2024-06-16T13:50:07Z</time>
      </trkpt>
      <trkpt lat="42.87651" lon="1.17988">
        <ele>637.4</ele>
        <time>2024-06-16T13:50:08Z</time>
      </trkpt>
      <trkpt lat="42.87649" lon="1.17991">
        <ele>637.8</ele>
        <time>2024-06-16T13:50:09Z</time>
      </trkpt>
      <trkpt lat="42.87644" lon="1.17996">
        <ele>637.8</ele>
        <time>2024-06-16T13:50:11Z</time>
      </trkpt>
      <trkpt lat="42.87634" lon="1.18004">
        <ele>638.2</ele>
        <time>2024-06-16T13:50:16Z</time>
      </trkpt>
      <trkpt lat="42.87631" lon="1.18005">
        <ele>638.6</ele>
        <time>2024-06-16T13:50:17Z</time>
      </trkpt>
      <trkpt lat="42.87628" lon="1.18007">
        <ele>639</ele>
        <time>2024-06-16T13:50:18Z</time>
      </trkpt>
      <trkpt lat="42.87625" lon="1.18009">
        <ele>639.4</ele>
        <time>2024-06-16T13:50:19Z</time>
      </trkpt>
      <trkpt lat="42.87621" lon="1.1801">
        <ele>639.8</ele>
        <time>2024-06-16T13:50:20Z</time>
      </trkpt>
      <trkpt lat="42.87606" lon="1.18016">
        <ele>639.8</ele>
        <time>2024-06-16T13:50:25Z</time>
      </trkpt>
      <trkpt lat="42.87603" lon="1.18016">
        <ele>640.2</ele>
        <time>2024-06-16T13:50:26Z</time>
      </trkpt>
      <trkpt lat="42.87601" lon="1.18016">
        <ele>640.8</ele>
        <time>2024-06-16T13:50:27Z</time>
      </trkpt>
      <trkpt lat="42.87598" lon="1.18016">
        <ele>641.2</ele>
        <time>2024-06-16T13:50:28Z</time>
      </trkpt>
      <trkpt lat="42.87596" lon="1.18016">
        <ele>641.6</ele>
        <time>2024-06-16T13:50:29Z</time>
      </trkpt>
      <trkpt lat="42.87592" lon="1.18016">
        <ele>642</ele>
        <time>2024-06-16T13:50:30Z</time>
      </trkpt>
      <trkpt lat="42.87586" lon="1.18017">
        <ele>642</ele>
        <time>2024-06-16T13:50:32Z</time>
      </trkpt>
      <trkpt lat="42.87581" lon="1.18016">
        <ele>642.4</ele>
        <time>2024-06-16T13:50:34Z</time>
      </trkpt>
      <trkpt lat="42.87579" lon="1.18015">
        <ele>643</ele>
        <time>2024-06-16T13:50:35Z</time>
      </trkpt>
      <trkpt lat="42.87576" lon="1.18015">
        <ele>643.4</ele>
        <time>2024-06-16T13:50:36Z</time>
      </trkpt>
      <trkpt lat="42.87574" lon="1.18013">
        <ele>643.8</ele>
        <time>2024-06-16T13:50:37Z</time>
      </trkpt>
      <trkpt lat="42.87571" lon="1.18012">
        <ele>644.2</ele>
        <time>2024-06-16T13:50:38Z</time>
      </trkpt>
      <trkpt lat="42.87557" lon="1.17996">
        <ele>644.6</ele>
        <time>2024-06-16T13:50:45Z</time>
      </trkpt>
      <trkpt lat="42.87555" lon="1.17994">
        <ele>645.2</ele>
        <time>2024-06-16T13:50:46Z</time>
      </trkpt>
      <trkpt lat="42.87551" lon="1.17989">
        <ele>645.6</ele>
        <time>2024-06-16T13:50:47Z</time>
      </trkpt>
      <trkpt lat="42.87549" lon="1.17986">
        <ele>646</ele>
        <time>2024-06-16T13:50:48Z</time>
      </trkpt>
      <trkpt lat="42.87548" lon="1.17982">
        <ele>646.4</ele>
        <time>2024-06-16T13:50:49Z</time>
      </trkpt>
      <trkpt lat="42.87547" lon="1.17976">
        <ele>646.8</ele>
        <time>2024-06-16T13:50:51Z</time>
      </trkpt>
      <trkpt lat="42.87549" lon="1.17974">
        <ele>647.4</ele>
        <time>2024-06-16T13:50:52Z</time>
      </trkpt>
      <trkpt lat="42.8755" lon="1.17971">
        <ele>647.8</ele>
        <time>2024-06-16T13:50:53Z</time>
      </trkpt>
      <trkpt lat="42.87551" lon="1.17969">
        <ele>648.2</ele>
        <time>2024-06-16T13:50:54Z</time>
      </trkpt>
      <trkpt lat="42.87552" lon="1.17966">
        <ele>648.6</ele>
        <time>2024-06-16T13:50:55Z</time>
      </trkpt>
      <trkpt lat="42.87555" lon="1.17961">
        <ele>648.6</ele>
        <time>2024-06-16T13:50:57Z</time>
      </trkpt>
      <trkpt lat="42.87556" lon="1.17958">
        <ele>649.4</ele>
        <time>2024-06-16T13:50:58Z</time>
      </trkpt>
      <trkpt lat="42.87557" lon="1.17956">
        <ele>649.8</ele>
        <time>2024-06-16T13:50:59Z</time>
      </trkpt>
      <trkpt lat="42.87558" lon="1.17953">
        <ele>650.2</ele>
        <time>2024-06-16T13:51:00Z</time>
      </trkpt>
      <trkpt lat="42.87559" lon="1.17951">
        <ele>650.6</ele>
        <time>2024-06-16T13:51:01Z</time>
      </trkpt>
      <trkpt lat="42.87562" lon="1.17946">
        <ele>650.6</ele>
        <time>2024-06-16T13:51:03Z</time>
      </trkpt>
      <trkpt lat="42.87565" lon="1.17941">
        <ele>651.2</ele>
        <time>2024-06-16T13:51:05Z</time>
      </trkpt>
      <trkpt lat="42.87567" lon="1.17939">
        <ele>651.6</ele>
        <time>2024-06-16T13:51:06Z</time>
      </trkpt>
      <trkpt lat="42.87568" lon="1.17936">
        <ele>652</ele>
        <time>2024-06-16T13:51:07Z</time>
      </trkpt>
      <trkpt lat="42.87569" lon="1.17933">
        <ele>652.6</ele>
        <time>2024-06-16T13:51:08Z</time>
      </trkpt>
      <trkpt lat="42.8757" lon="1.1793">
        <ele>653</ele>
        <time>2024-06-16T13:51:09Z</time>
      </trkpt>
      <trkpt lat="42.8757" lon="1.17928">
        <ele>653</ele>
        <time>2024-06-16T13:51:10Z</time>
      </trkpt>
      <trkpt lat="42.87573" lon="1.17923">
        <ele>653.4</ele>
        <time>2024-06-16T13:51:12Z</time>
      </trkpt>
      <trkpt lat="42.87574" lon="1.1792">
        <ele>653.8</ele>
        <time>2024-06-16T13:51:13Z</time>
      </trkpt>
      <trkpt lat="42.87576" lon="1.17918">
        <ele>654.4</ele>
        <time>2024-06-16T13:51:14Z</time>
      </trkpt>
      <trkpt lat="42.87577" lon="1.17916">
        <ele>654.8</ele>
        <time>2024-06-16T13:51:15Z</time>
      </trkpt>
      <trkpt lat="42.87578" lon="1.17914">
        <ele>655.2</ele>
        <time>2024-06-16T13:51:16Z</time>
      </trkpt>
      <trkpt lat="42.87583" lon="1.17904">
        <ele>655.6</ele>
        <time>2024-06-16T13:51:20Z</time>
      </trkpt>
      <trkpt lat="42.87585" lon="1.17901">
        <ele>656</ele>
        <time>2024-06-16T13:51:21Z</time>
      </trkpt>
      <trkpt lat="42.87586" lon="1.17899">
        <ele>656.4</ele>
        <time>2024-06-16T13:51:22Z</time>
      </trkpt>
      <trkpt lat="42.87587" lon="1.17896">
        <ele>657.2</ele>
        <time>2024-06-16T13:51:23Z</time>
      </trkpt>
      <trkpt lat="42.87592" lon="1.17885">
        <ele>657.6</ele>
        <time>2024-06-16T13:51:27Z</time>
      </trkpt>
      <trkpt lat="42.87593" lon="1.17883">
        <ele>658.2</ele>
        <time>2024-06-16T13:51:28Z</time>
      </trkpt>
      <trkpt lat="42.87595" lon="1.17881">
        <ele>658.6</ele>
        <time>2024-06-16T13:51:29Z</time>
      </trkpt>
      <trkpt lat="42.87596" lon="1.17879">
        <ele>659</ele>
        <time>2024-06-16T13:51:30Z</time>
      </trkpt>
      <trkpt lat="42.87597" lon="1.17876">
        <ele>659.4</ele>
        <time>2024-06-16T13:51:31Z</time>
      </trkpt>
      <trkpt lat="42.87602" lon="1.1787">
        <ele>659.4</ele>
        <time>2024-06-16T13:51:34Z</time>
      </trkpt>
      <trkpt lat="42.87604" lon="1.17868">
        <ele>659.8</ele>
        <time>2024-06-16T13:51:35Z</time>
      </trkpt>
      <trkpt lat="42.87605" lon="1.17866">
        <ele>660.2</ele>
        <time>2024-06-16T13:51:36Z</time>
      </trkpt>
      <trkpt lat="42.87606" lon="1.17863">
        <ele>660.6</ele>
        <time>2024-06-16T13:51:37Z</time>
      </trkpt>
      <trkpt lat="42.87608" lon="1.17861">
        <ele>661.2</ele>
        <time>2024-06-16T13:51:38Z</time>
      </trkpt>
      <trkpt lat="42.87609" lon="1.17859">
        <ele>661.6</ele>
        <time>2024-06-16T13:51:39Z</time>
      </trkpt>
      <trkpt lat="42.87612" lon="1.17854">
        <ele>661.6</ele>
        <time>2024-06-16T13:51:41Z</time>
      </trkpt>
      <trkpt lat="42.87614" lon="1.17852">
        <ele>662</ele>
        <time>2024-06-16T13:51:42Z</time>
      </trkpt>
      <trkpt lat="42.87615" lon="1.1785">
        <ele>662.4</ele>
        <time>2024-06-16T13:51:43Z</time>
      </trkpt>
      <trkpt lat="42.87617" lon="1.17847">
        <ele>663</ele>
        <time>2024-06-16T13:51:44Z</time>
      </trkpt>
      <trkpt lat="42.87618" lon="1.17845">
        <ele>663.4</ele>
        <time>2024-06-16T13:51:45Z</time>
      </trkpt>
      <trkpt lat="42.8762" lon="1.17843">
        <ele>663.8</ele>
        <time>2024-06-16T13:51:46Z</time>
      </trkpt>
      <trkpt lat="42.87623" lon="1.17835">
        <ele>664.2</ele>
        <time>2024-06-16T13:51:49Z</time>
      </trkpt>
      <trkpt lat="42.87624" lon="1.17833">
        <ele>664.6</ele>
        <time>2024-06-16T13:51:50Z</time>
      </trkpt>
      <trkpt lat="42.87625" lon="1.1783">
        <ele>665</ele>
        <time>2024-06-16T13:51:51Z</time>
      </trkpt>
      <trkpt lat="42.87626" lon="1.17827">
        <ele>665.6</ele>
        <time>2024-06-16T13:51:52Z</time>
      </trkpt>
      <trkpt lat="42.87627" lon="1.17824">
        <ele>666</ele>
        <time>2024-06-16T13:51:53Z</time>
      </trkpt>
      <trkpt lat="42.8763" lon="1.17816">
        <ele>666.4</ele>
        <time>2024-06-16T13:51:56Z</time>
      </trkpt>
      <trkpt lat="42.87631" lon="1.17813">
        <ele>666.8</ele>
        <time>2024-06-16T13:51:57Z</time>
      </trkpt>
      <trkpt lat="42.87631" lon="1.1781">
        <ele>667.2</ele>
        <time>2024-06-16T13:51:58Z</time>
      </trkpt>
      <trkpt lat="42.87632" lon="1.17807">
        <ele>667.6</ele>
        <time>2024-06-16T13:51:59Z</time>
      </trkpt>
      <trkpt lat="42.87633" lon="1.17804">
        <ele>668</ele>
        <time>2024-06-16T13:52:00Z</time>
      </trkpt>
      <trkpt lat="42.87634" lon="1.17799">
        <ele>668</ele>
        <time>2024-06-16T13:52:02Z</time>
      </trkpt>
      <trkpt lat="42.87634" lon="1.17797">
        <ele>668.4</ele>
        <time>2024-06-16T13:52:03Z</time>
      </trkpt>
      <trkpt lat="42.87635" lon="1.17794">
        <ele>668.8</ele>
        <time>2024-06-16T13:52:04Z</time>
      </trkpt>
      <trkpt lat="42.87636" lon="1.17791">
        <ele>669.4</ele>
        <time>2024-06-16T13:52:05Z</time>
      </trkpt>
      <trkpt lat="42.87637" lon="1.17789">
        <ele>669.8</ele>
        <time>2024-06-16T13:52:06Z</time>
      </trkpt>
      <trkpt lat="42.87637" lon="1.17786">
        <ele>670.2</ele>
        <time>2024-06-16T13:52:07Z</time>
      </trkpt>
      <trkpt lat="42.8764" lon="1.17778">
        <ele>670.6</ele>
        <time>2024-06-16T13:52:10Z</time>
      </trkpt>
      <trkpt lat="42.87641" lon="1.17775">
        <ele>671</ele>
        <time>2024-06-16T13:52:11Z</time>
      </trkpt>
      <trkpt lat="42.87641" lon="1.17772">
        <ele>671.8</ele>
        <time>2024-06-16T13:52:12Z</time>
      </trkpt>
      <trkpt lat="42.87642" lon="1.1777">
        <ele>672.4</ele>
        <time>2024-06-16T13:52:13Z</time>
      </trkpt>
      <trkpt lat="42.87644" lon="1.17758">
        <ele>672.8</ele>
        <time>2024-06-16T13:52:18Z</time>
      </trkpt>
      <trkpt lat="42.87645" lon="1.17755">
        <ele>673.2</ele>
        <time>2024-06-16T13:52:19Z</time>
      </trkpt>
      <trkpt lat="42.87645" lon="1.17753">
        <ele>673.6</ele>
        <time>2024-06-16T13:52:20Z</time>
      </trkpt>
      <trkpt lat="42.87646" lon="1.1775">
        <ele>674</ele>
        <time>2024-06-16T13:52:21Z</time>
      </trkpt>
      <trkpt lat="42.87646" lon="1.17748">
        <ele>674.6</ele>
        <time>2024-06-16T13:52:22Z</time>
      </trkpt>
      <trkpt lat="42.87647" lon="1.17743">
        <ele>675</ele>
        <time>2024-06-16T13:52:24Z</time>
      </trkpt>
      <trkpt lat="42.87647" lon="1.17741">
        <ele>675.4</ele>
        <time>2024-06-16T13:52:25Z</time>
      </trkpt>
      <trkpt lat="42.87648" lon="1.17739">
        <ele>675.8</ele>
        <time>2024-06-16T13:52:26Z</time>
      </trkpt>
      <trkpt lat="42.87649" lon="1.17736">
        <ele>676.4</ele>
        <time>2024-06-16T13:52:27Z</time>
      </trkpt>
      <trkpt lat="42.87649" lon="1.17734">
        <ele>676.8</ele>
        <time>2024-06-16T13:52:28Z</time>
      </trkpt>
      <trkpt lat="42.8765" lon="1.17732">
        <ele>677.2</ele>
        <time>2024-06-16T13:52:29Z</time>
      </trkpt>
      <trkpt lat="42.8765" lon="1.1773">
        <ele>677.6</ele>
        <time>2024-06-16T13:52:30Z</time>
      </trkpt>
      <trkpt lat="42.87651" lon="1.17728">
        <ele>678.2</ele>
        <time>2024-06-16T13:52:31Z</time>
      </trkpt>
      <trkpt lat="42.87652" lon="1.17726">
        <ele>678.6</ele>
        <time>2024-06-16T13:52:32Z</time>
      </trkpt>
      <trkpt lat="42.87653" lon="1.17724">
        <ele>679</ele>
        <time>2024-06-16T13:52:33Z</time>
      </trkpt>
      <trkpt lat="42.87654" lon="1.17719">
        <ele>679.4</ele>
        <time>2024-06-16T13:52:35Z</time>
      </trkpt>
      <trkpt lat="42.87655" lon="1.17718">
        <ele>680.2</ele>
        <time>2024-06-16T13:52:36Z</time>
      </trkpt>
      <trkpt lat="42.87656" lon="1.17716">
        <ele>680.8</ele>
        <time>2024-06-16T13:52:37Z</time>
      </trkpt>
      <trkpt lat="42.87658" lon="1.17715">
        <ele>681.2</ele>
        <time>2024-06-16T13:52:38Z</time>
      </trkpt>
      <trkpt lat="42.87659" lon="1.17712">
        <ele>681.6</ele>
        <time>2024-06-16T13:52:40Z</time>
      </trkpt>
      <trkpt lat="42.87661" lon="1.17711">
        <ele>682</ele>
        <time>2024-06-16T13:52:41Z</time>
      </trkpt>
      <trkpt lat="42.87662" lon="1.17711">
        <ele>682.4</ele>
        <time>2024-06-16T13:52:42Z</time>
      </trkpt>
      <trkpt lat="42.87664" lon="1.1771">
        <ele>683</ele>
        <time>2024-06-16T13:52:43Z</time>
      </trkpt>
      <trkpt lat="42.87665" lon="1.17709">
        <ele>683.4</ele>
        <time>2024-06-16T13:52:44Z</time>
      </trkpt>
      <trkpt lat="42.87667" lon="1.17708">
        <ele>683.8</ele>
        <time>2024-06-16T13:52:45Z</time>
      </trkpt>
      <trkpt lat="42.87668" lon="1.17706">
        <ele>684.4</ele>
        <time>2024-06-16T13:52:46Z</time>
      </trkpt>
      <trkpt lat="42.8767" lon="1.17705">
        <ele>684.8</ele>
        <time>2024-06-16T13:52:47Z</time>
      </trkpt>
      <trkpt lat="42.87671" lon="1.17704">
        <ele>685.2</ele>
        <time>2024-06-16T13:52:48Z</time>
      </trkpt>
      <trkpt lat="42.87672" lon="1.17703">
        <ele>685.8</ele>
        <time>2024-06-16T13:52:49Z</time>
      </trkpt>
      <trkpt lat="42.87675" lon="1.17701">
        <ele>686.2</ele>
        <time>2024-06-16T13:52:51Z</time>
      </trkpt>
      <trkpt lat="42.87677" lon="1.177">
        <ele>686.6</ele>
        <time>2024-06-16T13:52:52Z</time>
      </trkpt>
      <trkpt lat="42.87679" lon="1.177">
        <ele>687</ele>
        <time>2024-06-16T13:52:53Z</time>
      </trkpt>
      <trkpt lat="42.8768" lon="1.17699">
        <ele>687.4</ele>
        <time>2024-06-16T13:52:54Z</time>
      </trkpt>
      <trkpt lat="42.87682" lon="1.17698">
        <ele>687.8</ele>
        <time>2024-06-16T13:52:55Z</time>
      </trkpt>
      <trkpt lat="42.87683" lon="1.17697">
        <ele>687.8</ele>
        <time>2024-06-16T13:52:56Z</time>
      </trkpt>
      <trkpt lat="42.87687" lon="1.17692">
        <ele>688.2</ele>
        <time>2024-06-16T13:52:59Z</time>
      </trkpt>
      <trkpt lat="42.87688" lon="1.17691">
        <ele>688.8</ele>
        <time>2024-06-16T13:53:00Z</time>
      </trkpt>
      <trkpt lat="42.87689" lon="1.1769">
        <ele>689.6</ele>
        <time>2024-06-16T13:53:01Z</time>
      </trkpt>
      <trkpt lat="42.87691" lon="1.17688">
        <ele>690.2</ele>
        <time>2024-06-16T13:53:02Z</time>
      </trkpt>
      <trkpt lat="42.87693" lon="1.17685">
        <ele>690.2</ele>
        <time>2024-06-16T13:53:04Z</time>
      </trkpt>
      <trkpt lat="42.87695" lon="1.17681">
        <ele>690.6</ele>
        <time>2024-06-16T13:53:06Z</time>
      </trkpt>
      <trkpt lat="42.87696" lon="1.17679">
        <ele>691</ele>
        <time>2024-06-16T13:53:07Z</time>
      </trkpt>
      <trkpt lat="42.87697" lon="1.17677">
        <ele>691.4</ele>
        <time>2024-06-16T13:53:08Z</time>
      </trkpt>
      <trkpt lat="42.87697" lon="1.17675">
        <ele>692</ele>
        <time>2024-06-16T13:53:09Z</time>
      </trkpt>
      <trkpt lat="42.87697" lon="1.17672">
        <ele>692.4</ele>
        <time>2024-06-16T13:53:10Z</time>
      </trkpt>
      <trkpt lat="42.87697" lon="1.1767">
        <ele>692.4</ele>
        <time>2024-06-16T13:53:11Z</time>
      </trkpt>
      <trkpt lat="42.87697" lon="1.17663">
        <ele>692.8</ele>
        <time>2024-06-16T13:53:14Z</time>
      </trkpt>
      <trkpt lat="42.87698" lon="1.17661">
        <ele>693.2</ele>
        <time>2024-06-16T13:53:15Z</time>
      </trkpt>
      <trkpt lat="42.877" lon="1.1766">
        <ele>693.6</ele>
        <time>2024-06-16T13:53:16Z</time>
      </trkpt>
      <trkpt lat="42.87701" lon="1.17658">
        <ele>694.2</ele>
        <time>2024-06-16T13:53:17Z</time>
      </trkpt>
      <trkpt lat="42.87701" lon="1.17656">
        <ele>694.6</ele>
        <time>2024-06-16T13:53:18Z</time>
      </trkpt>
      <trkpt lat="42.87705" lon="1.17647">
        <ele>695</ele>
        <time>2024-06-16T13:53:23Z</time>
      </trkpt>
      <trkpt lat="42.87706" lon="1.17646">
        <ele>695.4</ele>
        <time>2024-06-16T13:53:24Z</time>
      </trkpt>
      <trkpt lat="42.87708" lon="1.17644">
        <ele>695.8</ele>
        <time>2024-06-16T13:53:25Z</time>
      </trkpt>
      <trkpt lat="42.87709" lon="1.17643">
        <ele>696.8</ele>
        <time>2024-06-16T13:53:26Z</time>
      </trkpt>
      <trkpt lat="42.87713" lon="1.1764">
        <ele>697.2</ele>
        <time>2024-06-16T13:53:29Z</time>
      </trkpt>
      <trkpt lat="42.87714" lon="1.17638">
        <ele>697.6</ele>
        <time>2024-06-16T13:53:30Z</time>
      </trkpt>
      <trkpt lat="42.87715" lon="1.17636">
        <ele>698.2</ele>
        <time>2024-06-16T13:53:31Z</time>
      </trkpt>
      <trkpt lat="42.87717" lon="1.17634">
        <ele>698.6</ele>
        <time>2024-06-16T13:53:32Z</time>
      </trkpt>
      <trkpt lat="42.87718" lon="1.17632">
        <ele>699</ele>
        <time>2024-06-16T13:53:33Z</time>
      </trkpt>
      <trkpt lat="42.87721" lon="1.17629">
        <ele>699</ele>
        <time>2024-06-16T13:53:35Z</time>
      </trkpt>
      <trkpt lat="42.87724" lon="1.17621">
        <ele>699</ele>
        <time>2024-06-16T13:53:40Z</time>
      </trkpt>
      <trkpt lat="42.87725" lon="1.17619">
        <ele>699.4</ele>
        <time>2024-06-16T13:53:41Z</time>
      </trkpt>
      <trkpt lat="42.87726" lon="1.17617">
        <ele>700</ele>
        <time>2024-06-16T13:53:42Z</time>
      </trkpt>
      <trkpt lat="42.87728" lon="1.17615">
        <ele>700.4</ele>
        <time>2024-06-16T13:53:43Z</time>
      </trkpt>
      <trkpt lat="42.87729" lon="1.17614">
        <ele>700.8</ele>
        <time>2024-06-16T13:53:44Z</time>
      </trkpt>
      <trkpt lat="42.8773" lon="1.17612">
        <ele>701.2</ele>
        <time>2024-06-16T13:53:45Z</time>
      </trkpt>
      <trkpt lat="42.87735" lon="1.17609">
        <ele>701.2</ele>
        <time>2024-06-16T13:53:48Z</time>
      </trkpt>
      <trkpt lat="42.8774" lon="1.17604">
        <ele>702</ele>
        <time>2024-06-16T13:53:51Z</time>
      </trkpt>
      <trkpt lat="42.87741" lon="1.17602">
        <ele>702.4</ele>
        <time>2024-06-16T13:53:52Z</time>
      </trkpt>
      <trkpt lat="42.87743" lon="1.176">
        <ele>702.8</ele>
        <time>2024-06-16T13:53:53Z</time>
      </trkpt>
      <trkpt lat="42.87745" lon="1.17599">
        <ele>703.2</ele>
        <time>2024-06-16T13:53:54Z</time>
      </trkpt>
      <trkpt lat="42.87759" lon="1.17589">
        <ele>703.2</ele>
        <time>2024-06-16T13:54:01Z</time>
      </trkpt>
      <trkpt lat="42.87764" lon="1.17581">
        <ele>703.8</ele>
        <time>2024-06-16T13:54:05Z</time>
      </trkpt>
      <trkpt lat="42.87764" lon="1.17579">
        <ele>704.2</ele>
        <time>2024-06-16T13:54:06Z</time>
      </trkpt>
      <trkpt lat="42.87764" lon="1.17577">
        <ele>704.6</ele>
        <time>2024-06-16T13:54:07Z</time>
      </trkpt>
      <trkpt lat="42.87763" lon="1.17575">
        <ele>705</ele>
        <time>2024-06-16T13:54:08Z</time>
      </trkpt>
      <trkpt lat="42.87761" lon="1.17574">
        <ele>705.4</ele>
        <time>2024-06-16T13:54:09Z</time>
      </trkpt>
      <trkpt lat="42.87758" lon="1.17573">
        <ele>705.4</ele>
        <time>2024-06-16T13:54:11Z</time>
      </trkpt>
      <trkpt lat="42.87751" lon="1.17575">
        <ele>705.8</ele>
        <time>2024-06-16T13:54:15Z</time>
      </trkpt>
      <trkpt lat="42.8775" lon="1.17576">
        <ele>706.2</ele>
        <time>2024-06-16T13:54:16Z</time>
      </trkpt>
      <trkpt lat="42.87749" lon="1.17576">
        <ele>706.6</ele>
        <time>2024-06-16T13:54:17Z</time>
      </trkpt>
      <trkpt lat="42.87747" lon="1.17576">
        <ele>707</ele>
        <time>2024-06-16T13:54:18Z</time>
      </trkpt>
      <trkpt lat="42.87745" lon="1.17577">
        <ele>707.4</ele>
        <time>2024-06-16T13:54:19Z</time>
      </trkpt>
      <trkpt lat="42.87739" lon="1.1758">
        <ele>707.4</ele>
        <time>2024-06-16T13:54:22Z</time>
      </trkpt>
      <trkpt lat="42.87737" lon="1.17581">
        <ele>707.4</ele>
        <time>2024-06-16T13:54:23Z</time>
      </trkpt>
      <trkpt lat="42.87731" lon="1.17584">
        <ele>707.8</ele>
        <time>2024-06-16T13:54:27Z</time>
      </trkpt>
      <trkpt lat="42.8773" lon="1.17585">
        <ele>708.4</ele>
        <time>2024-06-16T13:54:28Z</time>
      </trkpt>
      <trkpt lat="42.87728" lon="1.17585">
        <ele>708.8</ele>
        <time>2024-06-16T13:54:29Z</time>
      </trkpt>
      <trkpt lat="42.87726" lon="1.17586">
        <ele>709.2</ele>
        <time>2024-06-16T13:54:30Z</time>
      </trkpt>
      <trkpt lat="42.87724" lon="1.17587">
        <ele>709.6</ele>
        <time>2024-06-16T13:54:31Z</time>
      </trkpt>
      <trkpt lat="42.8771" lon="1.17589">
        <ele>710</ele>
        <time>2024-06-16T13:54:37Z</time>
      </trkpt>
      <trkpt lat="42.87708" lon="1.17589">
        <ele>710.4</ele>
        <time>2024-06-16T13:54:38Z</time>
      </trkpt>
      <trkpt lat="42.87706" lon="1.17589">
        <ele>711</ele>
        <time>2024-06-16T13:54:39Z</time>
      </trkpt>
      <trkpt lat="42.87704" lon="1.17588">
        <ele>711.8</ele>
        <time>2024-06-16T13:54:40Z</time>
      </trkpt>
      <trkpt lat="42.87699" lon="1.17588">
        <ele>711.8</ele>
        <time>2024-06-16T13:54:43Z</time>
      </trkpt>
      <trkpt lat="42.87696" lon="1.17585">
        <ele>711.8</ele>
        <time>2024-06-16T13:54:45Z</time>
      </trkpt>
      <trkpt lat="42.87693" lon="1.17582">
        <ele>711.8</ele>
        <time>2024-06-16T13:54:47Z</time>
      </trkpt>
      <trkpt lat="42.8769" lon="1.17578">
        <ele>712.2</ele>
        <time>2024-06-16T13:54:49Z</time>
      </trkpt>
      <trkpt lat="42.87688" lon="1.17576">
        <ele>712.6</ele>
        <time>2024-06-16T13:54:50Z</time>
      </trkpt>
      <trkpt lat="42.87687" lon="1.17574">
        <ele>713</ele>
        <time>2024-06-16T13:54:51Z</time>
      </trkpt>
      <trkpt lat="42.87686" lon="1.17572">
        <ele>713.4</ele>
        <time>2024-06-16T13:54:52Z</time>
      </trkpt>
      <trkpt lat="42.87686" lon="1.17569">
        <ele>713.8</ele>
        <time>2024-06-16T13:54:53Z</time>
      </trkpt>
      <trkpt lat="42.8768" lon="1.17552">
        <ele>713.8</ele>
        <time>2024-06-16T13:54:59Z</time>
      </trkpt>
      <trkpt lat="42.8768" lon="1.17548">
        <ele>714.2</ele>
        <time>2024-06-16T13:55:00Z</time>
      </trkpt>
      <trkpt lat="42.87679" lon="1.17545">
        <ele>714.6</ele>
        <time>2024-06-16T13:55:01Z</time>
      </trkpt>
      <trkpt lat="42.87678" lon="1.17542">
        <ele>715.2</ele>
        <time>2024-06-16T13:55:02Z</time>
      </trkpt>
      <trkpt lat="42.87679" lon="1.17539">
        <ele>715.6</ele>
        <time>2024-06-16T13:55:03Z</time>
      </trkpt>
      <trkpt lat="42.87679" lon="1.17537">
        <ele>716</ele>
        <time>2024-06-16T13:55:04Z</time>
      </trkpt>
      <trkpt lat="42.87679" lon="1.17534">
        <ele>716</ele>
        <time>2024-06-16T13:55:05Z</time>
      </trkpt>
      <trkpt lat="42.8768" lon="1.17524">
        <ele>716.4</ele>
        <time>2024-06-16T13:55:09Z</time>
      </trkpt>
      <trkpt lat="42.87681" lon="1.17521">
        <ele>716.8</ele>
        <time>2024-06-16T13:55:10Z</time>
      </trkpt>
      <trkpt lat="42.8768" lon="1.17518">
        <ele>717.2</ele>
        <time>2024-06-16T13:55:11Z</time>
      </trkpt>
      <trkpt lat="42.8768" lon="1.17515">
        <ele>717.6</ele>
        <time>2024-06-16T13:55:12Z</time>
      </trkpt>
      <trkpt lat="42.8768" lon="1.17511">
        <ele>718.2</ele>
        <time>2024-06-16T13:55:13Z</time>
      </trkpt>
      <trkpt lat="42.87679" lon="1.17494">
        <ele>718.2</ele>
        <time>2024-06-16T13:55:18Z</time>
      </trkpt>
      <trkpt lat="42.87679" lon="1.1749">
        <ele>718.6</ele>
        <time>2024-06-16T13:55:19Z</time>
      </trkpt>
      <trkpt lat="42.87679" lon="1.17487">
        <ele>719</ele>
        <time>2024-06-16T13:55:20Z</time>
      </trkpt>
      <trkpt lat="42.8768" lon="1.17483">
        <ele>719.4</ele>
        <time>2024-06-16T13:55:21Z</time>
      </trkpt>
      <trkpt lat="42.87681" lon="1.1748">
        <ele>719.8</ele>
        <time>2024-06-16T13:55:22Z</time>
      </trkpt>
      <trkpt lat="42.87681" lon="1.17476">
        <ele>720.2</ele>
        <time>2024-06-16T13:55:23Z</time>
      </trkpt>
      <trkpt lat="42.87684" lon="1.17468">
        <ele>720.2</ele>
        <time>2024-06-16T13:55:26Z</time>
      </trkpt>
      <trkpt lat="42.87689" lon="1.17457">
        <ele>721</ele>
        <time>2024-06-16T13:55:30Z</time>
      </trkpt>
      <trkpt lat="42.87689" lon="1.17454">
        <ele>721.4</ele>
        <time>2024-06-16T13:55:31Z</time>
      </trkpt>
      <trkpt lat="42.8769" lon="1.1745">
        <ele>722</ele>
        <time>2024-06-16T13:55:32Z</time>
      </trkpt>
      <trkpt lat="42.87691" lon="1.17447">
        <ele>722.4</ele>
        <time>2024-06-16T13:55:33Z</time>
      </trkpt>
      <trkpt lat="42.87692" lon="1.17445">
        <ele>722.4</ele>
        <time>2024-06-16T13:55:34Z</time>
      </trkpt>
      <trkpt lat="42.87699" lon="1.1743">
        <ele>722.8</ele>
        <time>2024-06-16T13:55:39Z</time>
      </trkpt>
      <trkpt lat="42.87701" lon="1.17427">
        <ele>723.2</ele>
        <time>2024-06-16T13:55:40Z</time>
      </trkpt>
      <trkpt lat="42.87702" lon="1.17425">
        <ele>723.6</ele>
        <time>2024-06-16T13:55:41Z</time>
      </trkpt>
      <trkpt lat="42.87703" lon="1.17422">
        <ele>724</ele>
        <time>2024-06-16T13:55:42Z</time>
      </trkpt>
      <trkpt lat="42.87704" lon="1.17419">
        <ele>724.4</ele>
        <time>2024-06-16T13:55:43Z</time>
      </trkpt>
      <trkpt lat="42.87705" lon="1.17411">
        <ele>724.4</ele>
        <time>2024-06-16T13:55:46Z</time>
      </trkpt>
      <trkpt lat="42.87707" lon="1.17403">
        <ele>724.8</ele>
        <time>2024-06-16T13:55:49Z</time>
      </trkpt>
      <trkpt lat="42.87707" lon="1.17399">
        <ele>725.2</ele>
        <time>2024-06-16T13:55:50Z</time>
      </trkpt>
      <trkpt lat="42.87708" lon="1.17396">
        <ele>725.6</ele>
        <time>2024-06-16T13:55:51Z</time>
      </trkpt>
      <trkpt lat="42.87709" lon="1.17392">
        <ele>726</ele>
        <time>2024-06-16T13:55:52Z</time>
      </trkpt>
      <trkpt lat="42.8771" lon="1.17388">
        <ele>726.4</ele>
        <time>2024-06-16T13:55:53Z</time>
      </trkpt>
      <trkpt lat="42.87714" lon="1.1737">
        <ele>726.4</ele>
        <time>2024-06-16T13:55:59Z</time>
      </trkpt>
      <trkpt lat="42.87715" lon="1.17364">
        <ele>726.8</ele>
        <time>2024-06-16T13:56:01Z</time>
      </trkpt>
      <trkpt lat="42.87715" lon="1.17361">
        <ele>727.4</ele>
        <time>2024-06-16T13:56:02Z</time>
      </trkpt>
      <trkpt lat="42.87715" lon="1.17358">
        <ele>727.8</ele>
        <time>2024-06-16T13:56:03Z</time>
      </trkpt>
      <trkpt lat="42.87716" lon="1.17354">
        <ele>728.2</ele>
        <time>2024-06-16T13:56:04Z</time>
      </trkpt>
      <trkpt lat="42.87717" lon="1.17351">
        <ele>728.6</ele>
        <time>2024-06-16T13:56:05Z</time>
      </trkpt>
      <trkpt lat="42.87721" lon="1.17332">
        <ele>728.6</ele>
        <time>2024-06-16T13:56:11Z</time>
      </trkpt>
      <trkpt lat="42.87725" lon="1.17315">
        <ele>728.6</ele>
        <time>2024-06-16T13:56:17Z</time>
      </trkpt>
      <trkpt lat="42.87725" lon="1.17313">
        <ele>729</ele>
        <time>2024-06-16T13:56:18Z</time>
      </trkpt>
      <trkpt lat="42.87725" lon="1.1731">
        <ele>729.8</ele>
        <time>2024-06-16T13:56:19Z</time>
      </trkpt>
      <trkpt lat="42.87726" lon="1.17307">
        <ele>730.4</ele>
        <time>2024-06-16T13:56:20Z</time>
      </trkpt>
      <trkpt lat="42.87726" lon="1.17304">
        <ele>730.8</ele>
        <time>2024-06-16T13:56:21Z</time>
      </trkpt>
      <trkpt lat="42.87726" lon="1.17298">
        <ele>730.8</ele>
        <time>2024-06-16T13:56:23Z</time>
      </trkpt>
      <trkpt lat="42.87726" lon="1.1728">
        <ele>731.2</ele>
        <time>2024-06-16T13:56:29Z</time>
      </trkpt>
      <trkpt lat="42.87726" lon="1.17277">
        <ele>731.6</ele>
        <time>2024-06-16T13:56:30Z</time>
      </trkpt>
      <trkpt lat="42.87726" lon="1.17273">
        <ele>732</ele>
        <time>2024-06-16T13:56:31Z</time>
      </trkpt>
      <trkpt lat="42.87726" lon="1.1727">
        <ele>732.4</ele>
        <time>2024-06-16T13:56:32Z</time>
      </trkpt>
      <trkpt lat="42.87726" lon="1.17267">
        <ele>732.8</ele>
        <time>2024-06-16T13:56:33Z</time>
      </trkpt>
      <trkpt lat="42.87727" lon="1.17254">
        <ele>732.8</ele>
        <time>2024-06-16T13:56:37Z</time>
      </trkpt>
      <trkpt lat="42.87726" lon="1.17244">
        <ele>733.2</ele>
        <time>2024-06-16T13:56:40Z</time>
      </trkpt>
      <trkpt lat="42.87725" lon="1.17241">
        <ele>733.8</ele>
        <time>2024-06-16T13:56:41Z</time>
      </trkpt>
      <trkpt lat="42.87725" lon="1.17237">
        <ele>734.2</ele>
        <time>2024-06-16T13:56:42Z</time>
      </trkpt>
      <trkpt lat="42.87725" lon="1.17234">
        <ele>734.6</ele>
        <time>2024-06-16T13:56:43Z</time>
      </trkpt>
      <trkpt lat="42.87725" lon="1.17231">
        <ele>735</ele>
        <time>2024-06-16T13:56:44Z</time>
      </trkpt>
      <trkpt lat="42.87724" lon="1.17224">
        <ele>735.4</ele>
        <time>2024-06-16T13:56:46Z</time>
      </trkpt>
      <trkpt lat="42.87724" lon="1.17221">
        <ele>735.8</ele>
        <time>2024-06-16T13:56:47Z</time>
      </trkpt>
      <trkpt lat="42.87723" lon="1.17218">
        <ele>736.2</ele>
        <time>2024-06-16T13:56:48Z</time>
      </trkpt>
      <trkpt lat="42.87722" lon="1.17215">
        <ele>736.8</ele>
        <time>2024-06-16T13:56:49Z</time>
      </trkpt>
      <trkpt lat="42.87722" lon="1.17212">
        <ele>737.2</ele>
        <time>2024-06-16T13:56:50Z</time>
      </trkpt>
      <trkpt lat="42.87721" lon="1.17209">
        <ele>737.2</ele>
        <time>2024-06-16T13:56:51Z</time>
      </trkpt>
      <trkpt lat="42.8772" lon="1.17204">
        <ele>737.6</ele>
        <time>2024-06-16T13:56:53Z</time>
      </trkpt>
      <trkpt lat="42.8772" lon="1.17202">
        <ele>738</ele>
        <time>2024-06-16T13:56:54Z</time>
      </trkpt>
      <trkpt lat="42.87719" lon="1.172">
        <ele>738.4</ele>
        <time>2024-06-16T13:56:55Z</time>
      </trkpt>
      <trkpt lat="42.87717" lon="1.17198">
        <ele>738.8</ele>
        <time>2024-06-16T13:56:56Z</time>
      </trkpt>
      <trkpt lat="42.87716" lon="1.17197">
        <ele>739.4</ele>
        <time>2024-06-16T13:56:57Z</time>
      </trkpt>
      <trkpt lat="42.87713" lon="1.1719">
        <ele>739.8</ele>
        <time>2024-06-16T13:57:00Z</time>
      </trkpt>
      <trkpt lat="42.87712" lon="1.17187">
        <ele>740.2</ele>
        <time>2024-06-16T13:57:01Z</time>
      </trkpt>
      <trkpt lat="42.8771" lon="1.17185">
        <ele>740.6</ele>
        <time>2024-06-16T13:57:02Z</time>
      </trkpt>
      <trkpt lat="42.8771" lon="1.17182">
        <ele>741</ele>
        <time>2024-06-16T13:57:03Z</time>
      </trkpt>
      <trkpt lat="42.87709" lon="1.17179">
        <ele>741.4</ele>
        <time>2024-06-16T13:57:04Z</time>
      </trkpt>
      <trkpt lat="42.87704" lon="1.17165">
        <ele>742.2</ele>
        <time>2024-06-16T13:57:09Z</time>
      </trkpt>
      <trkpt lat="42.87703" lon="1.17162">
        <ele>742.8</ele>
        <time>2024-06-16T13:57:10Z</time>
      </trkpt>
      <trkpt lat="42.87702" lon="1.1716">
        <ele>743.2</ele>
        <time>2024-06-16T13:57:11Z</time>
      </trkpt>
      <trkpt lat="42.87702" lon="1.17158">
        <ele>743.6</ele>
        <time>2024-06-16T13:57:12Z</time>
      </trkpt>
      <trkpt lat="42.87702" lon="1.17146">
        <ele>744</ele>
        <time>2024-06-16T13:57:17Z</time>
      </trkpt>
      <trkpt lat="42.87701" lon="1.17143">
        <ele>744.4</ele>
        <time>2024-06-16T13:57:18Z</time>
      </trkpt>
      <trkpt lat="42.87701" lon="1.17139">
        <ele>745</ele>
        <time>2024-06-16T13:57:19Z</time>
      </trkpt>
      <trkpt lat="42.877" lon="1.17136">
        <ele>745.4</ele>
        <time>2024-06-16T13:57:20Z</time>
      </trkpt>
      <trkpt lat="42.87699" lon="1.17131">
        <ele>745.8</ele>
        <time>2024-06-16T13:57:21Z</time>
      </trkpt>
      <trkpt lat="42.87697" lon="1.17125">
        <ele>745.8</ele>
        <time>2024-06-16T13:57:23Z</time>
      </trkpt>
      <trkpt lat="42.87695" lon="1.17114">
        <ele>746.2</ele>
        <time>2024-06-16T13:57:27Z</time>
      </trkpt>
      <trkpt lat="42.87695" lon="1.17111">
        <ele>746.6</ele>
        <time>2024-06-16T13:57:28Z</time>
      </trkpt>
      <trkpt lat="42.87694" lon="1.17107">
        <ele>747</ele>
        <time>2024-06-16T13:57:29Z</time>
      </trkpt>
      <trkpt lat="42.87694" lon="1.17104">
        <ele>747.4</ele>
        <time>2024-06-16T13:57:30Z</time>
      </trkpt>
      <trkpt lat="42.87693" lon="1.17101">
        <ele>747.8</ele>
        <time>2024-06-16T13:57:31Z</time>
      </trkpt>
      <trkpt lat="42.87689" lon="1.17086">
        <ele>748.2</ele>
        <time>2024-06-16T13:57:36Z</time>
      </trkpt>
      <trkpt lat="42.87689" lon="1.17083">
        <ele>748.6</ele>
        <time>2024-06-16T13:57:37Z</time>
      </trkpt>
      <trkpt lat="42.87689" lon="1.1708">
        <ele>749.2</ele>
        <time>2024-06-16T13:57:38Z</time>
      </trkpt>
      <trkpt lat="42.87689" lon="1.17077">
        <ele>749.6</ele>
        <time>2024-06-16T13:57:39Z</time>
      </trkpt>
      <trkpt lat="42.87688" lon="1.17074">
        <ele>750</ele>
        <time>2024-06-16T13:57:40Z</time>
      </trkpt>
      <trkpt lat="42.87689" lon="1.17071">
        <ele>750</ele>
        <time>2024-06-16T13:57:41Z</time>
      </trkpt>
      <trkpt lat="42.8769" lon="1.17069">
        <ele>750</ele>
        <time>2024-06-16T13:57:42Z</time>
      </trkpt>
      <trkpt lat="42.87694" lon="1.17061">
        <ele>750.4</ele>
        <time>2024-06-16T13:57:45Z</time>
      </trkpt>
      <trkpt lat="42.87695" lon="1.17059">
        <ele>750.8</ele>
        <time>2024-06-16T13:57:46Z</time>
      </trkpt>
      <trkpt lat="42.87697" lon="1.17056">
        <ele>751.2</ele>
        <time>2024-06-16T13:57:47Z</time>
      </trkpt>
      <trkpt lat="42.87698" lon="1.17052">
        <ele>751.6</ele>
        <time>2024-06-16T13:57:48Z</time>
      </trkpt>
      <trkpt lat="42.877" lon="1.1705">
        <ele>752</ele>
        <time>2024-06-16T13:57:49Z</time>
      </trkpt>
      <trkpt lat="42.87704" lon="1.17044">
        <ele>752.4</ele>
        <time>2024-06-16T13:57:52Z</time>
      </trkpt>
      <trkpt lat="42.87705" lon="1.1704">
        <ele>752.8</ele>
        <time>2024-06-16T13:57:53Z</time>
      </trkpt>
      <trkpt lat="42.87706" lon="1.17037">
        <ele>753.2</ele>
        <time>2024-06-16T13:57:54Z</time>
      </trkpt>
      <trkpt lat="42.87707" lon="1.17033">
        <ele>753.6</ele>
        <time>2024-06-16T13:57:55Z</time>
      </trkpt>
      <trkpt lat="42.87708" lon="1.1703">
        <ele>754.2</ele>
        <time>2024-06-16T13:57:56Z</time>
      </trkpt>
      <trkpt lat="42.87709" lon="1.17024">
        <ele>754.6</ele>
        <time>2024-06-16T13:57:58Z</time>
      </trkpt>
      <trkpt lat="42.8771" lon="1.17021">
        <ele>755</ele>
        <time>2024-06-16T13:57:59Z</time>
      </trkpt>
      <trkpt lat="42.87712" lon="1.17018">
        <ele>755.4</ele>
        <time>2024-06-16T13:58:00Z</time>
      </trkpt>
      <trkpt lat="42.87713" lon="1.17016">
        <ele>755.8</ele>
        <time>2024-06-16T13:58:01Z</time>
      </trkpt>
      <trkpt lat="42.87714" lon="1.17013">
        <ele>756.2</ele>
        <time>2024-06-16T13:58:02Z</time>
      </trkpt>
      <trkpt lat="42.87716" lon="1.17007">
        <ele>756.6</ele>
        <time>2024-06-16T13:58:04Z</time>
      </trkpt>
      <trkpt lat="42.87716" lon="1.17005">
        <ele>757</ele>
        <time>2024-06-16T13:58:05Z</time>
      </trkpt>
      <trkpt lat="42.87716" lon="1.17001">
        <ele>757.4</ele>
        <time>2024-06-16T13:58:06Z</time>
      </trkpt>
      <trkpt lat="42.87717" lon="1.16998">
        <ele>757.8</ele>
        <time>2024-06-16T13:58:07Z</time>
      </trkpt>
      <trkpt lat="42.87718" lon="1.16995">
        <ele>758.2</ele>
        <time>2024-06-16T13:58:08Z</time>
      </trkpt>
      <trkpt lat="42.87719" lon="1.16988">
        <ele>758.6</ele>
        <time>2024-06-16T13:58:10Z</time>
      </trkpt>
      <trkpt lat="42.87719" lon="1.16984">
        <ele>759.2</ele>
        <time>2024-06-16T13:58:11Z</time>
      </trkpt>
      <trkpt lat="42.8772" lon="1.16981">
        <ele>759.6</ele>
        <time>2024-06-16T13:58:12Z</time>
      </trkpt>
      <trkpt lat="42.8772" lon="1.16979">
        <ele>760</ele>
        <time>2024-06-16T13:58:13Z</time>
      </trkpt>
      <trkpt lat="42.87721" lon="1.16976">
        <ele>760.4</ele>
        <time>2024-06-16T13:58:14Z</time>
      </trkpt>
      <trkpt lat="42.87722" lon="1.1697">
        <ele>760.8</ele>
        <time>2024-06-16T13:58:16Z</time>
      </trkpt>
      <trkpt lat="42.87723" lon="1.16967">
        <ele>761.2</ele>
        <time>2024-06-16T13:58:17Z</time>
      </trkpt>
      <trkpt lat="42.87724" lon="1.16964">
        <ele>761.6</ele>
        <time>2024-06-16T13:58:18Z</time>
      </trkpt>
      <trkpt lat="42.87724" lon="1.1696">
        <ele>762</ele>
        <time>2024-06-16T13:58:19Z</time>
      </trkpt>
      <trkpt lat="42.87724" lon="1.16957">
        <ele>762.4</ele>
        <time>2024-06-16T13:58:20Z</time>
      </trkpt>
      <trkpt lat="42.87727" lon="1.16944">
        <ele>763</ele>
        <time>2024-06-16T13:58:24Z</time>
      </trkpt>
      <trkpt lat="42.87727" lon="1.16941">
        <ele>763.4</ele>
        <time>2024-06-16T13:58:25Z</time>
      </trkpt>
      <trkpt lat="42.87728" lon="1.16938">
        <ele>763.8</ele>
        <time>2024-06-16T13:58:26Z</time>
      </trkpt>
      <trkpt lat="42.87728" lon="1.16935">
        <ele>764.2</ele>
        <time>2024-06-16T13:58:27Z</time>
      </trkpt>
      <trkpt lat="42.87729" lon="1.16932">
        <ele>764.6</ele>
        <time>2024-06-16T13:58:28Z</time>
      </trkpt>
      <trkpt lat="42.87732" lon="1.16922">
        <ele>764.6</ele>
        <time>2024-06-16T13:58:31Z</time>
      </trkpt>
      <trkpt lat="42.87736" lon="1.16909">
        <ele>765</ele>
        <time>2024-06-16T13:58:36Z</time>
      </trkpt>
      <trkpt lat="42.87738" lon="1.16906">
        <ele>765.4</ele>
        <time>2024-06-16T13:58:37Z</time>
      </trkpt>
      <trkpt lat="42.87739" lon="1.16904">
        <ele>765.8</ele>
        <time>2024-06-16T13:58:38Z</time>
      </trkpt>
      <trkpt lat="42.87741" lon="1.16902">
        <ele>766.4</ele>
        <time>2024-06-16T13:58:39Z</time>
      </trkpt>
      <trkpt lat="42.87742" lon="1.169">
        <ele>766.8</ele>
        <time>2024-06-16T13:58:40Z</time>
      </trkpt>
      <trkpt lat="42.87746" lon="1.16885">
        <ele>766.8</ele>
        <time>2024-06-16T13:58:45Z</time>
      </trkpt>
      <trkpt lat="42.87746" lon="1.16882">
        <ele>767.2</ele>
        <time>2024-06-16T13:58:46Z</time>
      </trkpt>
      <trkpt lat="42.87747" lon="1.1688">
        <ele>767.6</ele>
        <time>2024-06-16T13:58:47Z</time>
      </trkpt>
      <trkpt lat="42.87748" lon="1.16877">
        <ele>768.6</ele>
        <time>2024-06-16T13:58:48Z</time>
      </trkpt>
      <trkpt lat="42.87749" lon="1.16873">
        <ele>769</ele>
        <time>2024-06-16T13:58:49Z</time>
      </trkpt>
      <trkpt lat="42.8775" lon="1.16871">
        <ele>769</ele>
        <time>2024-06-16T13:58:50Z</time>
      </trkpt>
      <trkpt lat="42.87754" lon="1.16857">
        <ele>769.4</ele>
        <time>2024-06-16T13:58:54Z</time>
      </trkpt>
      <trkpt lat="42.87755" lon="1.16854">
        <ele>769.8</ele>
        <time>2024-06-16T13:58:55Z</time>
      </trkpt>
      <trkpt lat="42.87755" lon="1.16851">
        <ele>770.4</ele>
        <time>2024-06-16T13:58:56Z</time>
      </trkpt>
      <trkpt lat="42.87755" lon="1.16847">
        <ele>770.8</ele>
        <time>2024-06-16T13:58:57Z</time>
      </trkpt>
      <trkpt lat="42.87756" lon="1.16843">
        <ele>771.2</ele>
        <time>2024-06-16T13:58:58Z</time>
      </trkpt>
      <trkpt lat="42.87759" lon="1.16833">
        <ele>771.6</ele>
        <time>2024-06-16T13:59:01Z</time>
      </trkpt>
      <trkpt lat="42.87759" lon="1.1683">
        <ele>772</ele>
        <time>2024-06-16T13:59:02Z</time>
      </trkpt>
      <trkpt lat="42.8776" lon="1.16829">
        <ele>772.4</ele>
        <time>2024-06-16T13:59:03Z</time>
      </trkpt>
      <trkpt lat="42.87761" lon="1.16826">
        <ele>773</ele>
        <time>2024-06-16T13:59:04Z</time>
      </trkpt>
      <trkpt lat="42.87762" lon="1.16822">
        <ele>773.4</ele>
        <time>2024-06-16T13:59:05Z</time>
      </trkpt>
      <trkpt lat="42.87763" lon="1.16812">
        <ele>773.4</ele>
        <time>2024-06-16T13:59:08Z</time>
      </trkpt>
      <trkpt lat="42.87767" lon="1.16796">
        <ele>773.8</ele>
        <time>2024-06-16T13:59:13Z</time>
      </trkpt>
      <trkpt lat="42.87768" lon="1.16792">
        <ele>774.2</ele>
        <time>2024-06-16T13:59:14Z</time>
      </trkpt>
      <trkpt lat="42.87769" lon="1.16789">
        <ele>774.6</ele>
        <time>2024-06-16T13:59:15Z</time>
      </trkpt>
      <trkpt lat="42.8777" lon="1.16786">
        <ele>775</ele>
        <time>2024-06-16T13:59:16Z</time>
      </trkpt>
      <trkpt lat="42.87771" lon="1.16783">
        <ele>775.4</ele>
        <time>2024-06-16T13:59:17Z</time>
      </trkpt>
      <trkpt lat="42.87771" lon="1.16775">
        <ele>775.4</ele>
        <time>2024-06-16T13:59:19Z</time>
      </trkpt>
      <trkpt lat="42.8777" lon="1.16752">
        <ele>775.4</ele>
        <time>2024-06-16T13:59:24Z</time>
      </trkpt>
      <trkpt lat="42.8777" lon="1.16707">
        <ele>775.4</ele>
        <time>2024-06-16T13:59:33Z</time>
      </trkpt>
      <trkpt lat="42.8777" lon="1.16675">
        <ele>775.4</ele>
        <time>2024-06-16T13:59:40Z</time>
      </trkpt>
      <trkpt lat="42.87767" lon="1.1665">
        <ele>775.4</ele>
        <time>2024-06-16T13:59:46Z</time>
      </trkpt>
      <trkpt lat="42.87765" lon="1.16625">
        <ele>775.4</ele>
        <time>2024-06-16T13:59:52Z</time>
      </trkpt>
      <trkpt lat="42.87758" lon="1.16604">
        <ele>775.4</ele>
        <time>2024-06-16T13:59:57Z</time>
      </trkpt>
      <trkpt lat="42.87751" lon="1.16584">
        <ele>775.4</ele>
        <time>2024-06-16T14:00:02Z</time>
      </trkpt>
      <trkpt lat="42.87744" lon="1.16564">
        <ele>775.4</ele>
        <time>2024-06-16T14:00:08Z</time>
      </trkpt>
      <trkpt lat="42.87737" lon="1.16544">
        <ele>775.4</ele>
        <time>2024-06-16T14:00:14Z</time>
      </trkpt>
      <trkpt lat="42.87725" lon="1.1651">
        <ele>775.4</ele>
        <time>2024-06-16T14:00:22Z</time>
      </trkpt>
      <trkpt lat="42.87719" lon="1.16478">
        <ele>775.4</ele>
        <time>2024-06-16T14:00:29Z</time>
      </trkpt>
      <trkpt lat="42.87721" lon="1.16455">
        <ele>775.4</ele>
        <time>2024-06-16T14:00:35Z</time>
      </trkpt>
      <trkpt lat="42.87734" lon="1.16432">
        <ele>775.4</ele>
        <time>2024-06-16T14:00:42Z</time>
      </trkpt>
      <trkpt lat="42.87751" lon="1.16418">
        <ele>775.4</ele>
        <time>2024-06-16T14:00:48Z</time>
      </trkpt>
      <trkpt lat="42.87762" lon="1.16407">
        <ele>775.4</ele>
        <time>2024-06-16T14:00:53Z</time>
      </trkpt>
      <trkpt lat="42.87776" lon="1.16386">
        <ele>775.4</ele>
        <time>2024-06-16T14:00:59Z</time>
      </trkpt>
      <trkpt lat="42.87781" lon="1.16363">
        <ele>775.4</ele>
        <time>2024-06-16T14:01:04Z</time>
      </trkpt>
      <trkpt lat="42.87791" lon="1.1634">
        <ele>775.4</ele>
        <time>2024-06-16T14:01:10Z</time>
      </trkpt>
      <trkpt lat="42.87807" lon="1.16322">
        <ele>775.4</ele>
        <time>2024-06-16T14:01:16Z</time>
      </trkpt>
      <trkpt lat="42.87825" lon="1.16303">
        <ele>775.4</ele>
        <time>2024-06-16T14:01:23Z</time>
      </trkpt>
      <trkpt lat="42.87836" lon="1.16294">
        <ele>775.8</ele>
        <time>2024-06-16T14:01:27Z</time>
      </trkpt>
      <trkpt lat="42.87839" lon="1.16292">
        <ele>776.2</ele>
        <time>2024-06-16T14:01:28Z</time>
      </trkpt>
      <trkpt lat="42.87842" lon="1.1629">
        <ele>776.6</ele>
        <time>2024-06-16T14:01:29Z</time>
      </trkpt>
      <trkpt lat="42.87845" lon="1.16289">
        <ele>777</ele>
        <time>2024-06-16T14:01:30Z</time>
      </trkpt>
      <trkpt lat="42.87847" lon="1.16288">
        <ele>777.4</ele>
        <time>2024-06-16T14:01:31Z</time>
      </trkpt>
      <trkpt lat="42.87856" lon="1.16285">
        <ele>777.4</ele>
        <time>2024-06-16T14:01:34Z</time>
      </trkpt>
      <trkpt lat="42.8788" lon="1.16276">
        <ele>777.4</ele>
        <time>2024-06-16T14:01:41Z</time>
      </trkpt>
      <trkpt lat="42.87883" lon="1.16274">
        <ele>777.8</ele>
        <time>2024-06-16T14:01:42Z</time>
      </trkpt>
      <trkpt lat="42.87886" lon="1.16271">
        <ele>778.2</ele>
        <time>2024-06-16T14:01:43Z</time>
      </trkpt>
      <trkpt lat="42.87889" lon="1.16268">
        <ele>778.6</ele>
        <time>2024-06-16T14:01:44Z</time>
      </trkpt>
      <trkpt lat="42.87891" lon="1.16265">
        <ele>779</ele>
        <time>2024-06-16T14:01:45Z</time>
      </trkpt>
      <trkpt lat="42.87894" lon="1.16263">
        <ele>779.4</ele>
        <time>2024-06-16T14:01:46Z</time>
      </trkpt>
      <trkpt lat="42.87897" lon="1.1626">
        <ele>779.4</ele>
        <time>2024-06-16T14:01:47Z</time>
      </trkpt>
      <trkpt lat="42.87912" lon="1.16241">
        <ele>779.4</ele>
        <time>2024-06-16T14:01:53Z</time>
      </trkpt>
      <trkpt lat="42.87922" lon="1.16228">
        <ele>779.8</ele>
        <time>2024-06-16T14:01:57Z</time>
      </trkpt>
      <trkpt lat="42.87925" lon="1.16225">
        <ele>780.2</ele>
        <time>2024-06-16T14:01:58Z</time>
      </trkpt>
      <trkpt lat="42.87928" lon="1.16222">
        <ele>780.6</ele>
        <time>2024-06-16T14:01:59Z</time>
      </trkpt>
      <trkpt lat="42.87931" lon="1.1622">
        <ele>781</ele>
        <time>2024-06-16T14:02:00Z</time>
      </trkpt>
      <trkpt lat="42.87934" lon="1.16217">
        <ele>781.4</ele>
        <time>2024-06-16T14:02:01Z</time>
      </trkpt>
      <trkpt lat="42.87946" lon="1.1621">
        <ele>781.4</ele>
        <time>2024-06-16T14:02:05Z</time>
      </trkpt>
      <trkpt lat="42.87959" lon="1.16215">
        <ele>781.4</ele>
        <time>2024-06-16T14:02:09Z</time>
      </trkpt>
      <trkpt lat="42.8798" lon="1.16232">
        <ele>781.4</ele>
        <time>2024-06-16T14:02:16Z</time>
      </trkpt>
      <trkpt lat="42.87986" lon="1.16236">
        <ele>781.8</ele>
        <time>2024-06-16T14:02:18Z</time>
      </trkpt>
      <trkpt lat="42.87989" lon="1.16238">
        <ele>782.4</ele>
        <time>2024-06-16T14:02:19Z</time>
      </trkpt>
      <trkpt lat="42.87992" lon="1.16239">
        <ele>782.8</ele>
        <time>2024-06-16T14:02:20Z</time>
      </trkpt>
      <trkpt lat="42.87995" lon="1.1624">
        <ele>783.2</ele>
        <time>2024-06-16T14:02:21Z</time>
      </trkpt>
      <trkpt lat="42.87998" lon="1.16241">
        <ele>783.8</ele>
        <time>2024-06-16T14:02:22Z</time>
      </trkpt>
      <trkpt lat="42.88007" lon="1.16242">
        <ele>784.2</ele>
        <time>2024-06-16T14:02:25Z</time>
      </trkpt>
      <trkpt lat="42.8801" lon="1.16241">
        <ele>784.6</ele>
        <time>2024-06-16T14:02:26Z</time>
      </trkpt>
      <trkpt lat="42.88013" lon="1.16241">
        <ele>785</ele>
        <time>2024-06-16T14:02:27Z</time>
      </trkpt>
      <trkpt lat="42.88016" lon="1.1624">
        <ele>785.4</ele>
        <time>2024-06-16T14:02:28Z</time>
      </trkpt>
      <trkpt lat="42.88019" lon="1.1624">
        <ele>785.8</ele>
        <time>2024-06-16T14:02:29Z</time>
      </trkpt>
      <trkpt lat="42.88035" lon="1.16232">
        <ele>785.8</ele>
        <time>2024-06-16T14:02:35Z</time>
      </trkpt>
      <trkpt lat="42.88038" lon="1.16231">
        <ele>786.2</ele>
        <time>2024-06-16T14:02:36Z</time>
      </trkpt>
      <trkpt lat="42.8804" lon="1.16229">
        <ele>786.6</ele>
        <time>2024-06-16T14:02:37Z</time>
      </trkpt>
      <trkpt lat="42.88043" lon="1.16227">
        <ele>787</ele>
        <time>2024-06-16T14:02:38Z</time>
      </trkpt>
      <trkpt lat="42.88046" lon="1.16226">
        <ele>787.4</ele>
        <time>2024-06-16T14:02:39Z</time>
      </trkpt>
      <trkpt lat="42.88048" lon="1.16224">
        <ele>788</ele>
        <time>2024-06-16T14:02:40Z</time>
      </trkpt>
      <trkpt lat="42.88053" lon="1.1622">
        <ele>788</ele>
        <time>2024-06-16T14:02:42Z</time>
      </trkpt>
      <trkpt lat="42.88055" lon="1.16219">
        <ele>788.4</ele>
        <time>2024-06-16T14:02:43Z</time>
      </trkpt>
      <trkpt lat="42.88058" lon="1.16217">
        <ele>788.8</ele>
        <time>2024-06-16T14:02:44Z</time>
      </trkpt>
      <trkpt lat="42.8806" lon="1.16215">
        <ele>789.2</ele>
        <time>2024-06-16T14:02:45Z</time>
      </trkpt>
      <trkpt lat="42.88063" lon="1.16213">
        <ele>789.8</ele>
        <time>2024-06-16T14:02:46Z</time>
      </trkpt>
      <trkpt lat="42.88065" lon="1.16211">
        <ele>790.2</ele>
        <time>2024-06-16T14:02:47Z</time>
      </trkpt>
      <trkpt lat="42.88072" lon="1.16205">
        <ele>790.6</ele>
        <time>2024-06-16T14:02:50Z</time>
      </trkpt>
      <trkpt lat="42.88074" lon="1.16203">
        <ele>791</ele>
        <time>2024-06-16T14:02:51Z</time>
      </trkpt>
      <trkpt lat="42.88076" lon="1.162">
        <ele>791.4</ele>
        <time>2024-06-16T14:02:52Z</time>
      </trkpt>
      <trkpt lat="42.88078" lon="1.16198">
        <ele>791.8</ele>
        <time>2024-06-16T14:02:53Z</time>
      </trkpt>
      <trkpt lat="42.88079" lon="1.16196">
        <ele>792.2</ele>
        <time>2024-06-16T14:02:54Z</time>
      </trkpt>
      <trkpt lat="42.88083" lon="1.16188">
        <ele>792.2</ele>
        <time>2024-06-16T14:02:57Z</time>
      </trkpt>
      <trkpt lat="42.88095" lon="1.16169">
        <ele>792.2</ele>
        <time>2024-06-16T14:03:02Z</time>
      </trkpt>
      <trkpt lat="42.88099" lon="1.16164">
        <ele>792.2</ele>
        <time>2024-06-16T14:03:03Z</time>
      </trkpt>
      <trkpt lat="42.88114" lon="1.16151">
        <ele>792.2</ele>
        <time>2024-06-16T14:03:06Z</time>
      </trkpt>
      <trkpt lat="42.88124" lon="1.1614">
        <ele>792.2</ele>
        <time>2024-06-16T14:03:08Z</time>
      </trkpt>
      <trkpt lat="42.88132" lon="1.16127">
        <ele>791.8</ele>
        <time>2024-06-16T14:03:10Z</time>
      </trkpt>
      <trkpt lat="42.88136" lon="1.16121">
        <ele>791.4</ele>
        <time>2024-06-16T14:03:11Z</time>
      </trkpt>
      <trkpt lat="42.88139" lon="1.16115">
        <ele>791</ele>
        <time>2024-06-16T14:03:12Z</time>
      </trkpt>
      <trkpt lat="42.88143" lon="1.16109">
        <ele>790.6</ele>
        <time>2024-06-16T14:03:13Z</time>
      </trkpt>
      <trkpt lat="42.88147" lon="1.16105">
        <ele>790.2</ele>
        <time>2024-06-16T14:03:14Z</time>
      </trkpt>
      <trkpt lat="42.88151" lon="1.16105">
        <ele>790.2</ele>
        <time>2024-06-16T14:03:15Z</time>
      </trkpt>
      <trkpt lat="42.88157" lon="1.16115">
        <ele>790.2</ele>
        <time>2024-06-16T14:03:17Z</time>
      </trkpt>
      <trkpt lat="42.8816" lon="1.16123">
        <ele>790.2</ele>
        <time>2024-06-16T14:03:19Z</time>
      </trkpt>
      <trkpt lat="42.88161" lon="1.16132">
        <ele>790.2</ele>
        <time>2024-06-16T14:03:21Z</time>
      </trkpt>
      <trkpt lat="42.88173" lon="1.16152">
        <ele>790.2</ele>
        <time>2024-06-16T14:03:27Z</time>
      </trkpt>
      <trkpt lat="42.8818" lon="1.16153">
        <ele>790.6</ele>
        <time>2024-06-16T14:03:29Z</time>
      </trkpt>
      <trkpt lat="42.88184" lon="1.16153">
        <ele>791</ele>
        <time>2024-06-16T14:03:30Z</time>
      </trkpt>
      <trkpt lat="42.88187" lon="1.16152">
        <ele>791.4</ele>
        <time>2024-06-16T14:03:31Z</time>
      </trkpt>
      <trkpt lat="42.88189" lon="1.16152">
        <ele>791.8</ele>
        <time>2024-06-16T14:03:32Z</time>
      </trkpt>
      <trkpt lat="42.88191" lon="1.16151">
        <ele>792.2</ele>
        <time>2024-06-16T14:03:33Z</time>
      </trkpt>
      <trkpt lat="42.88201" lon="1.16146">
        <ele>792.2</ele>
        <time>2024-06-16T14:03:38Z</time>
      </trkpt>
      <trkpt lat="42.88217" lon="1.16136">
        <ele>792.2</ele>
        <time>2024-06-16T14:03:43Z</time>
      </trkpt>
      <trkpt lat="42.88225" lon="1.16137">
        <ele>792.2</ele>
        <time>2024-06-16T14:03:45Z</time>
      </trkpt>
      <trkpt lat="42.88228" lon="1.16139">
        <ele>792.2</ele>
        <time>2024-06-16T14:03:46Z</time>
      </trkpt>
      <trkpt lat="42.88247" lon="1.16147">
        <ele>792.2</ele>
        <time>2024-06-16T14:03:52Z</time>
      </trkpt>
      <trkpt lat="42.88263" lon="1.16141">
        <ele>792.2</ele>
        <time>2024-06-16T14:03:57Z</time>
      </trkpt>
      <trkpt lat="42.88284" lon="1.16132">
        <ele>792.2</ele>
        <time>2024-06-16T14:04:03Z</time>
      </trkpt>
      <trkpt lat="42.88318" lon="1.16127">
        <ele>792.2</ele>
        <time>2024-06-16T14:04:11Z</time>
      </trkpt>
      <trkpt lat="42.8835" lon="1.16123">
        <ele>792.2</ele>
        <time>2024-06-16T14:04:18Z</time>
      </trkpt>
      <trkpt lat="42.88362" lon="1.16123">
        <ele>792.6</ele>
        <time>2024-06-16T14:04:21Z</time>
      </trkpt>
      <trkpt lat="42.88366" lon="1.16122">
        <ele>793</ele>
        <time>2024-06-16T14:04:22Z</time>
      </trkpt>
      <trkpt lat="42.8837" lon="1.1612">
        <ele>793.4</ele>
        <time>2024-06-16T14:04:23Z</time>
      </trkpt>
      <trkpt lat="42.88374" lon="1.16117">
        <ele>793.8</ele>
        <time>2024-06-16T14:04:24Z</time>
      </trkpt>
      <trkpt lat="42.88377" lon="1.16113">
        <ele>794.2</ele>
        <time>2024-06-16T14:04:25Z</time>
      </trkpt>
      <trkpt lat="42.88383" lon="1.16103">
        <ele>794.2</ele>
        <time>2024-06-16T14:04:27Z</time>
      </trkpt>
      <trkpt lat="42.88386" lon="1.16099">
        <ele>794.2</ele>
        <time>2024-06-16T14:04:28Z</time>
      </trkpt>
      <trkpt lat="42.88396" lon="1.16095">
        <ele>794.2</ele>
        <time>2024-06-16T14:04:31Z</time>
      </trkpt>
      <trkpt lat="42.88408" lon="1.16106">
        <ele>794.2</ele>
        <time>2024-06-16T14:04:35Z</time>
      </trkpt>
      <trkpt lat="42.8842" lon="1.16113">
        <ele>794.2</ele>
        <time>2024-06-16T14:04:38Z</time>
      </trkpt>
      <trkpt lat="42.88424" lon="1.16114">
        <ele>794.2</ele>
        <time>2024-06-16T14:04:39Z</time>
      </trkpt>
      <trkpt lat="42.88429" lon="1.16115">
        <ele>794.2</ele>
        <time>2024-06-16T14:04:40Z</time>
      </trkpt>
      <trkpt lat="42.88446" lon="1.16121">
        <ele>794.2</ele>
        <time>2024-06-16T14:04:43Z</time>
      </trkpt>
      <trkpt lat="42.88456" lon="1.16127">
        <ele>793.8</ele>
        <time>2024-06-16T14:04:45Z</time>
      </trkpt>
      <trkpt lat="42.8846" lon="1.16131">
        <ele>793.4</ele>
        <time>2024-06-16T14:04:46Z</time>
      </trkpt>
      <trkpt lat="42.88464" lon="1.16134">
        <ele>793</ele>
        <time>2024-06-16T14:04:47Z</time>
      </trkpt>
      <trkpt lat="42.88469" lon="1.16137">
        <ele>792.4</ele>
        <time>2024-06-16T14:04:48Z</time>
      </trkpt>
      <trkpt lat="42.88473" lon="1.1614">
        <ele>792</ele>
        <time>2024-06-16T14:04:49Z</time>
      </trkpt>
      <trkpt lat="42.8848" lon="1.16144">
        <ele>792</ele>
        <time>2024-06-16T14:04:51Z</time>
      </trkpt>
      <trkpt lat="42.88498" lon="1.1615">
        <ele>792</ele>
        <time>2024-06-16T14:04:56Z</time>
      </trkpt>
      <trkpt lat="42.88511" lon="1.16152">
        <ele>792.8</ele>
        <time>2024-06-16T14:04:59Z</time>
      </trkpt>
      <trkpt lat="42.88515" lon="1.16153">
        <ele>793.4</ele>
        <time>2024-06-16T14:05:00Z</time>
      </trkpt>
      <trkpt lat="42.88519" lon="1.16153">
        <ele>793.8</ele>
        <time>2024-06-16T14:05:01Z</time>
      </trkpt>
      <trkpt lat="42.88523" lon="1.16153">
        <ele>794.2</ele>
        <time>2024-06-16T14:05:02Z</time>
      </trkpt>
      <trkpt lat="42.88528" lon="1.16152">
        <ele>794.2</ele>
        <time>2024-06-16T14:05:03Z</time>
      </trkpt>
      <trkpt lat="42.88541" lon="1.16142">
        <ele>794.2</ele>
        <time>2024-06-16T14:05:07Z</time>
      </trkpt>
      <trkpt lat="42.88544" lon="1.16126">
        <ele>794.2</ele>
        <time>2024-06-16T14:05:10Z</time>
      </trkpt>
      <trkpt lat="42.88546" lon="1.16121">
        <ele>794.2</ele>
        <time>2024-06-16T14:05:11Z</time>
      </trkpt>
      <trkpt lat="42.88547" lon="1.16111">
        <ele>794.6</ele>
        <time>2024-06-16T14:05:13Z</time>
      </trkpt>
      <trkpt lat="42.88548" lon="1.16105">
        <ele>795</ele>
        <time>2024-06-16T14:05:14Z</time>
      </trkpt>
      <trkpt lat="42.88549" lon="1.161">
        <ele>795.4</ele>
        <time>2024-06-16T14:05:15Z</time>
      </trkpt>
      <trkpt lat="42.8855" lon="1.16095">
        <ele>795.8</ele>
        <time>2024-06-16T14:05:16Z</time>
      </trkpt>
      <trkpt lat="42.88552" lon="1.1609">
        <ele>796.2</ele>
        <time>2024-06-16T14:05:17Z</time>
      </trkpt>
      <trkpt lat="42.88553" lon="1.16085">
        <ele>796.2</ele>
        <time>2024-06-16T14:05:18Z</time>
      </trkpt>
      <trkpt lat="42.88554" lon="1.1608">
        <ele>796.6</ele>
        <time>2024-06-16T14:05:19Z</time>
      </trkpt>
      <trkpt lat="42.88556" lon="1.16075">
        <ele>797.2</ele>
        <time>2024-06-16T14:05:20Z</time>
      </trkpt>
      <trkpt lat="42.88558" lon="1.1607">
        <ele>797.6</ele>
        <time>2024-06-16T14:05:21Z</time>
      </trkpt>
      <trkpt lat="42.88559" lon="1.16066">
        <ele>798</ele>
        <time>2024-06-16T14:05:22Z</time>
      </trkpt>
      <trkpt lat="42.88561" lon="1.16061">
        <ele>798.4</ele>
        <time>2024-06-16T14:05:23Z</time>
      </trkpt>
      <trkpt lat="42.88564" lon="1.16053">
        <ele>798.4</ele>
        <time>2024-06-16T14:05:25Z</time>
      </trkpt>
      <trkpt lat="42.88578" lon="1.16024">
        <ele>798.4</ele>
        <time>2024-06-16T14:05:32Z</time>
      </trkpt>
      <trkpt lat="42.88589" lon="1.16025">
        <ele>798.4</ele>
        <time>2024-06-16T14:05:36Z</time>
      </trkpt>
      <trkpt lat="42.88601" lon="1.1604">
        <ele>798.4</ele>
        <time>2024-06-16T14:05:41Z</time>
      </trkpt>
      <trkpt lat="42.88617" lon="1.1606">
        <ele>798.4</ele>
        <time>2024-06-16T14:05:48Z</time>
      </trkpt>
      <trkpt lat="42.88633" lon="1.16079">
        <ele>798.4</ele>
        <time>2024-06-16T14:05:54Z</time>
      </trkpt>
      <trkpt lat="42.88644" lon="1.16092">
        <ele>798.8</ele>
        <time>2024-06-16T14:05:58Z</time>
      </trkpt>
      <trkpt lat="42.88646" lon="1.16095">
        <ele>799.2</ele>
        <time>2024-06-16T14:05:59Z</time>
      </trkpt>
      <trkpt lat="42.88649" lon="1.16099">
        <ele>799.6</ele>
        <time>2024-06-16T14:06:00Z</time>
      </trkpt>
      <trkpt lat="42.88652" lon="1.16102">
        <ele>800</ele>
        <time>2024-06-16T14:06:01Z</time>
      </trkpt>
      <trkpt lat="42.88654" lon="1.16105">
        <ele>800.4</ele>
        <time>2024-06-16T14:06:02Z</time>
      </trkpt>
      <trkpt lat="42.88667" lon="1.16117">
        <ele>800.8</ele>
        <time>2024-06-16T14:06:06Z</time>
      </trkpt>
      <trkpt lat="42.8867" lon="1.16118">
        <ele>801.4</ele>
        <time>2024-06-16T14:06:07Z</time>
      </trkpt>
      <trkpt lat="42.88674" lon="1.16119">
        <ele>801.8</ele>
        <time>2024-06-16T14:06:08Z</time>
      </trkpt>
      <trkpt lat="42.88678" lon="1.16118">
        <ele>802.2</ele>
        <time>2024-06-16T14:06:09Z</time>
      </trkpt>
      <trkpt lat="42.88681" lon="1.16117">
        <ele>802.6</ele>
        <time>2024-06-16T14:06:10Z</time>
      </trkpt>
      <trkpt lat="42.88685" lon="1.16115">
        <ele>802.6</ele>
        <time>2024-06-16T14:06:11Z</time>
      </trkpt>
      <trkpt lat="42.88691" lon="1.1611">
        <ele>803.2</ele>
        <time>2024-06-16T14:06:13Z</time>
      </trkpt>
      <trkpt lat="42.88694" lon="1.16107">
        <ele>803.6</ele>
        <time>2024-06-16T14:06:14Z</time>
      </trkpt>
      <trkpt lat="42.88697" lon="1.16104">
        <ele>804</ele>
        <time>2024-06-16T14:06:15Z</time>
      </trkpt>
      <trkpt lat="42.887" lon="1.16101">
        <ele>804.4</ele>
        <time>2024-06-16T14:06:16Z</time>
      </trkpt>
      <trkpt lat="42.88703" lon="1.16097">
        <ele>805</ele>
        <time>2024-06-16T14:06:17Z</time>
      </trkpt>
      <trkpt lat="42.88713" lon="1.16084">
        <ele>805.4</ele>
        <time>2024-06-16T14:06:21Z</time>
      </trkpt>
      <trkpt lat="42.88716" lon="1.16081">
        <ele>805.8</ele>
        <time>2024-06-16T14:06:22Z</time>
      </trkpt>
      <trkpt lat="42.88719" lon="1.16078">
        <ele>806.2</ele>
        <time>2024-06-16T14:06:23Z</time>
      </trkpt>
      <trkpt lat="42.88722" lon="1.16075">
        <ele>806.8</ele>
        <time>2024-06-16T14:06:24Z</time>
      </trkpt>
      <trkpt lat="42.88725" lon="1.16072">
        <ele>807.2</ele>
        <time>2024-06-16T14:06:25Z</time>
      </trkpt>
      <trkpt lat="42.88743" lon="1.16056">
        <ele>807.2</ele>
        <time>2024-06-16T14:06:30Z</time>
      </trkpt>
      <trkpt lat="42.88747" lon="1.16055">
        <ele>807.2</ele>
        <time>2024-06-16T14:06:31Z</time>
      </trkpt>
      <trkpt lat="42.88762" lon="1.16053">
        <ele>807.2</ele>
        <time>2024-06-16T14:06:34Z</time>
      </trkpt>
      <trkpt lat="42.88767" lon="1.16054">
        <ele>807.2</ele>
        <time>2024-06-16T14:06:35Z</time>
      </trkpt>
      <trkpt lat="42.88784" lon="1.16059">
        <ele>807.2</ele>
        <time>2024-06-16T14:06:39Z</time>
      </trkpt>
      <trkpt lat="42.88814" lon="1.16063">
        <ele>807.2</ele>
        <time>2024-06-16T14:06:46Z</time>
      </trkpt>
      <trkpt lat="42.88823" lon="1.16061">
        <ele>807.2</ele>
        <time>2024-06-16T14:06:48Z</time>
      </trkpt>
      <trkpt lat="42.8884" lon="1.16056">
        <ele>807.2</ele>
        <time>2024-06-16T14:06:52Z</time>
      </trkpt>
      <trkpt lat="42.88871" lon="1.16057">
        <ele>807.2</ele>
        <time>2024-06-16T14:06:59Z</time>
      </trkpt>
      <trkpt lat="42.88884" lon="1.16058">
        <ele>807.2</ele>
        <time>2024-06-16T14:07:02Z</time>
      </trkpt>
      <trkpt lat="42.88902" lon="1.16061">
        <ele>807.2</ele>
        <time>2024-06-16T14:07:06Z</time>
      </trkpt>
      <trkpt lat="42.88911" lon="1.16063">
        <ele>807.6</ele>
        <time>2024-06-16T14:07:08Z</time>
      </trkpt>
      <trkpt lat="42.88915" lon="1.16063">
        <ele>808</ele>
        <time>2024-06-16T14:07:09Z</time>
      </trkpt>
      <trkpt lat="42.88918" lon="1.16064">
        <ele>808.4</ele>
        <time>2024-06-16T14:07:10Z</time>
      </trkpt>
      <trkpt lat="42.88922" lon="1.16065">
        <ele>809</ele>
        <time>2024-06-16T14:07:11Z</time>
      </trkpt>
      <trkpt lat="42.88925" lon="1.16067">
        <ele>809.4</ele>
        <time>2024-06-16T14:07:12Z</time>
      </trkpt>
      <trkpt lat="42.88929" lon="1.16069">
        <ele>809.4</ele>
        <time>2024-06-16T14:07:13Z</time>
      </trkpt>
      <trkpt lat="42.88936" lon="1.16081">
        <ele>809.8</ele>
        <time>2024-06-16T14:07:16Z</time>
      </trkpt>
      <trkpt lat="42.88938" lon="1.16086">
        <ele>810.2</ele>
        <time>2024-06-16T14:07:17Z</time>
      </trkpt>
      <trkpt lat="42.88939" lon="1.1609">
        <ele>810.6</ele>
        <time>2024-06-16T14:07:18Z</time>
      </trkpt>
      <trkpt lat="42.8894" lon="1.16095">
        <ele>811</ele>
        <time>2024-06-16T14:07:19Z</time>
      </trkpt>
      <trkpt lat="42.88942" lon="1.16099">
        <ele>811.4</ele>
        <time>2024-06-16T14:07:20Z</time>
      </trkpt>
      <trkpt lat="42.88947" lon="1.16111">
        <ele>811.4</ele>
        <time>2024-06-16T14:07:23Z</time>
      </trkpt>
      <trkpt lat="42.88959" lon="1.16129">
        <ele>812</ele>
        <time>2024-06-16T14:07:28Z</time>
      </trkpt>
      <trkpt lat="42.8896" lon="1.16132">
        <ele>812.4</ele>
        <time>2024-06-16T14:07:29Z</time>
      </trkpt>
      <trkpt lat="42.88961" lon="1.16136">
        <ele>812.8</ele>
        <time>2024-06-16T14:07:30Z</time>
      </trkpt>
      <trkpt lat="42.88961" lon="1.16139">
        <ele>813.2</ele>
        <time>2024-06-16T14:07:31Z</time>
      </trkpt>
      <trkpt lat="42.88961" lon="1.16143">
        <ele>813.6</ele>
        <time>2024-06-16T14:07:32Z</time>
      </trkpt>
      <trkpt lat="42.8896" lon="1.16149">
        <ele>814</ele>
        <time>2024-06-16T14:07:34Z</time>
      </trkpt>
      <trkpt lat="42.88959" lon="1.16153">
        <ele>814.4</ele>
        <time>2024-06-16T14:07:35Z</time>
      </trkpt>
      <trkpt lat="42.88957" lon="1.16156">
        <ele>814.8</ele>
        <time>2024-06-16T14:07:36Z</time>
      </trkpt>
      <trkpt lat="42.88955" lon="1.1616">
        <ele>815.2</ele>
        <time>2024-06-16T14:07:37Z</time>
      </trkpt>
      <trkpt lat="42.88954" lon="1.16163">
        <ele>815.8</ele>
        <time>2024-06-16T14:07:38Z</time>
      </trkpt>
      <trkpt lat="42.88952" lon="1.16166">
        <ele>815.8</ele>
        <time>2024-06-16T14:07:39Z</time>
      </trkpt>
      <trkpt lat="42.88943" lon="1.1619">
        <ele>815.8</ele>
        <time>2024-06-16T14:07:45Z</time>
      </trkpt>
      <trkpt lat="42.8894" lon="1.16202">
        <ele>815.8</ele>
        <time>2024-06-16T14:07:50Z</time>
      </trkpt>
      <trkpt lat="42.8894" lon="1.16205">
        <ele>816.2</ele>
        <time>2024-06-16T14:07:51Z</time>
      </trkpt>
      <trkpt lat="42.88938" lon="1.16208">
        <ele>817</ele>
        <time>2024-06-16T14:07:52Z</time>
      </trkpt>
      <trkpt lat="42.88937" lon="1.16211">
        <ele>817.4</ele>
        <time>2024-06-16T14:07:53Z</time>
      </trkpt>
      <trkpt lat="42.88936" lon="1.16214">
        <ele>817.8</ele>
        <time>2024-06-16T14:07:54Z</time>
      </trkpt>
      <trkpt lat="42.88934" lon="1.16223">
        <ele>817.8</ele>
        <time>2024-06-16T14:07:56Z</time>
      </trkpt>
      <trkpt lat="42.88931" lon="1.16233">
        <ele>817.8</ele>
        <time>2024-06-16T14:07:58Z</time>
      </trkpt>
      <trkpt lat="42.88926" lon="1.16241">
        <ele>817.8</ele>
        <time>2024-06-16T14:08:00Z</time>
      </trkpt>
      <trkpt lat="42.88919" lon="1.16247">
        <ele>817.8</ele>
        <time>2024-06-16T14:08:04Z</time>
      </trkpt>
      <trkpt lat="42.8891" lon="1.16258">
        <ele>817.8</ele>
        <time>2024-06-16T14:08:09Z</time>
      </trkpt>
      <trkpt lat="42.88899" lon="1.16275">
        <ele>817.8</ele>
        <time>2024-06-16T14:08:15Z</time>
      </trkpt>
      <trkpt lat="42.88887" lon="1.16295">
        <ele>817.8</ele>
        <time>2024-06-16T14:08:22Z</time>
      </trkpt>
      <trkpt lat="42.88873" lon="1.16324">
        <ele>817.8</ele>
        <time>2024-06-16T14:08:31Z</time>
      </trkpt>
      <trkpt lat="42.88871" lon="1.16328">
        <ele>818.2</ele>
        <time>2024-06-16T14:08:32Z</time>
      </trkpt>
      <trkpt lat="42.8887" lon="1.16331">
        <ele>818.6</ele>
        <time>2024-06-16T14:08:33Z</time>
      </trkpt>
      <trkpt lat="42.88869" lon="1.16334">
        <ele>819</ele>
        <time>2024-06-16T14:08:34Z</time>
      </trkpt>
      <trkpt lat="42.88868" lon="1.16337">
        <ele>819.4</ele>
        <time>2024-06-16T14:08:35Z</time>
      </trkpt>
      <trkpt lat="42.88868" lon="1.1634">
        <ele>820</ele>
        <time>2024-06-16T14:08:36Z</time>
      </trkpt>
      <trkpt lat="42.88865" lon="1.16351">
        <ele>820</ele>
        <time>2024-06-16T14:08:39Z</time>
      </trkpt>
      <trkpt lat="42.88861" lon="1.16369">
        <ele>820.4</ele>
        <time>2024-06-16T14:08:44Z</time>
      </trkpt>
      <trkpt lat="42.8886" lon="1.16373">
        <ele>820.8</ele>
        <time>2024-06-16T14:08:45Z</time>
      </trkpt>
      <trkpt lat="42.88859" lon="1.16376">
        <ele>821.2</ele>
        <time>2024-06-16T14:08:46Z</time>
      </trkpt>
      <trkpt lat="42.88858" lon="1.1638">
        <ele>821.6</ele>
        <time>2024-06-16T14:08:47Z</time>
      </trkpt>
      <trkpt lat="42.88858" lon="1.16382">
        <ele>822</ele>
        <time>2024-06-16T14:08:48Z</time>
      </trkpt>
      <trkpt lat="42.88855" lon="1.16391">
        <ele>822</ele>
        <time>2024-06-16T14:08:53Z</time>
      </trkpt>
      <trkpt lat="42.88855" lon="1.16395">
        <ele>822</ele>
        <time>2024-06-16T14:09:53Z</time>
      </trkpt>
      <trkpt lat="42.88854" lon="1.16405">
        <ele>822</ele>
        <time>2024-06-16T14:09:56Z</time>
      </trkpt>
      <trkpt lat="42.88854" lon="1.16409">
        <ele>822.4</ele>
        <time>2024-06-16T14:09:57Z</time>
      </trkpt>
      <trkpt lat="42.88853" lon="1.16414">
        <ele>822.8</ele>
        <time>2024-06-16T14:09:58Z</time>
      </trkpt>
      <trkpt lat="42.88852" lon="1.16418">
        <ele>823.2</ele>
        <time>2024-06-16T14:09:59Z</time>
      </trkpt>
      <trkpt lat="42.88851" lon="1.16423">
        <ele>823.6</ele>
        <time>2024-06-16T14:10:00Z</time>
      </trkpt>
      <trkpt lat="42.8885" lon="1.16427">
        <ele>824</ele>
        <time>2024-06-16T14:10:01Z</time>
      </trkpt>
      <trkpt lat="42.88848" lon="1.16437">
        <ele>824</ele>
        <time>2024-06-16T14:10:03Z</time>
      </trkpt>
      <trkpt lat="42.88844" lon="1.16457">
        <ele>824.4</ele>
        <time>2024-06-16T14:10:08Z</time>
      </trkpt>
      <trkpt lat="42.88843" lon="1.16461">
        <ele>824.8</ele>
        <time>2024-06-16T14:10:09Z</time>
      </trkpt>
      <trkpt lat="42.88842" lon="1.16465">
        <ele>825.4</ele>
        <time>2024-06-16T14:10:10Z</time>
      </trkpt>
      <trkpt lat="42.88842" lon="1.16469">
        <ele>825.8</ele>
        <time>2024-06-16T14:10:11Z</time>
      </trkpt>
      <trkpt lat="42.8884" lon="1.16473">
        <ele>826.2</ele>
        <time>2024-06-16T14:10:12Z</time>
      </trkpt>
      <trkpt lat="42.88834" lon="1.16488">
        <ele>826.2</ele>
        <time>2024-06-16T14:10:16Z</time>
      </trkpt>
      <trkpt lat="42.88827" lon="1.16509">
        <ele>826.6</ele>
        <time>2024-06-16T14:10:21Z</time>
      </trkpt>
      <trkpt lat="42.88826" lon="1.16513">
        <ele>827</ele>
        <time>2024-06-16T14:10:22Z</time>
      </trkpt>
      <trkpt lat="42.88825" lon="1.16517">
        <ele>827.4</ele>
        <time>2024-06-16T14:10:23Z</time>
      </trkpt>
      <trkpt lat="42.88823" lon="1.16521">
        <ele>827.8</ele>
        <time>2024-06-16T14:10:24Z</time>
      </trkpt>
      <trkpt lat="42.88821" lon="1.16525">
        <ele>828.2</ele>
        <time>2024-06-16T14:10:25Z</time>
      </trkpt>
      <trkpt lat="42.88814" lon="1.16547">
        <ele>828.2</ele>
        <time>2024-06-16T14:10:30Z</time>
      </trkpt>
      <trkpt lat="42.88807" lon="1.16568">
        <ele>828.2</ele>
        <time>2024-06-16T14:10:35Z</time>
      </trkpt>
      <trkpt lat="42.88799" lon="1.16594">
        <ele>828.8</ele>
        <time>2024-06-16T14:10:41Z</time>
      </trkpt>
      <trkpt lat="42.88798" lon="1.16598">
        <ele>829.2</ele>
        <time>2024-06-16T14:10:42Z</time>
      </trkpt>
      <trkpt lat="42.88797" lon="1.16602">
        <ele>829.6</ele>
        <time>2024-06-16T14:10:43Z</time>
      </trkpt>
      <trkpt lat="42.88797" lon="1.16607">
        <ele>830</ele>
        <time>2024-06-16T14:10:44Z</time>
      </trkpt>
      <trkpt lat="42.88796" lon="1.16611">
        <ele>830.4</ele>
        <time>2024-06-16T14:10:45Z</time>
      </trkpt>
      <trkpt lat="42.88791" lon="1.16639">
        <ele>830.4</ele>
        <time>2024-06-16T14:10:51Z</time>
      </trkpt>
      <trkpt lat="42.88788" lon="1.16653">
        <ele>830.8</ele>
        <time>2024-06-16T14:10:54Z</time>
      </trkpt>
      <trkpt lat="42.88787" lon="1.16657">
        <ele>831.2</ele>
        <time>2024-06-16T14:10:55Z</time>
      </trkpt>
      <trkpt lat="42.88786" lon="1.16662">
        <ele>831.8</ele>
        <time>2024-06-16T14:10:56Z</time>
      </trkpt>
      <trkpt lat="42.88785" lon="1.16666">
        <ele>832.2</ele>
        <time>2024-06-16T14:10:57Z</time>
      </trkpt>
      <trkpt lat="42.88784" lon="1.16671">
        <ele>832.6</ele>
        <time>2024-06-16T14:10:58Z</time>
      </trkpt>
      <trkpt lat="42.88781" lon="1.1669">
        <ele>832.6</ele>
        <time>2024-06-16T14:11:02Z</time>
      </trkpt>
      <trkpt lat="42.8878" lon="1.16721">
        <ele>833</ele>
        <time>2024-06-16T14:11:09Z</time>
      </trkpt>
      <trkpt lat="42.8878" lon="1.16725">
        <ele>833.8</ele>
        <time>2024-06-16T14:11:10Z</time>
      </trkpt>
      <trkpt lat="42.8878" lon="1.1673">
        <ele>834.2</ele>
        <time>2024-06-16T14:11:11Z</time>
      </trkpt>
      <trkpt lat="42.8878" lon="1.16734">
        <ele>834.8</ele>
        <time>2024-06-16T14:11:12Z</time>
      </trkpt>
      <trkpt lat="42.88782" lon="1.16766">
        <ele>834.8</ele>
        <time>2024-06-16T14:11:19Z</time>
      </trkpt>
      <trkpt lat="42.88785" lon="1.16773">
        <ele>835.2</ele>
        <time>2024-06-16T14:11:21Z</time>
      </trkpt>
      <trkpt lat="42.88788" lon="1.16776">
        <ele>835.6</ele>
        <time>2024-06-16T14:11:22Z</time>
      </trkpt>
      <trkpt lat="42.88791" lon="1.16778">
        <ele>836</ele>
        <time>2024-06-16T14:11:23Z</time>
      </trkpt>
      <trkpt lat="42.88794" lon="1.16779">
        <ele>836.6</ele>
        <time>2024-06-16T14:11:24Z</time>
      </trkpt>
      <trkpt lat="42.88797" lon="1.16778">
        <ele>837</ele>
        <time>2024-06-16T14:11:25Z</time>
      </trkpt>
      <trkpt lat="42.88804" lon="1.16775">
        <ele>837</ele>
        <time>2024-06-16T14:11:28Z</time>
      </trkpt>
      <trkpt lat="42.88812" lon="1.16763">
        <ele>837</ele>
        <time>2024-06-16T14:11:33Z</time>
      </trkpt>
      <trkpt lat="42.88827" lon="1.16743">
        <ele>837</ele>
        <time>2024-06-16T14:11:40Z</time>
      </trkpt>
      <trkpt lat="42.88829" lon="1.16741">
        <ele>837.4</ele>
        <time>2024-06-16T14:11:41Z</time>
      </trkpt>
      <trkpt lat="42.88831" lon="1.16739">
        <ele>837.8</ele>
        <time>2024-06-16T14:11:42Z</time>
      </trkpt>
      <trkpt lat="42.88833" lon="1.16737">
        <ele>838.2</ele>
        <time>2024-06-16T14:11:43Z</time>
      </trkpt>
      <trkpt lat="42.88835" lon="1.16734">
        <ele>838.6</ele>
        <time>2024-06-16T14:11:44Z</time>
      </trkpt>
      <trkpt lat="42.88837" lon="1.16731">
        <ele>839</ele>
        <time>2024-06-16T14:11:45Z</time>
      </trkpt>
      <trkpt lat="42.88846" lon="1.16722">
        <ele>839</ele>
        <time>2024-06-16T14:11:49Z</time>
      </trkpt>
      <trkpt lat="42.88856" lon="1.16713">
        <ele>839.4</ele>
        <time>2024-06-16T14:11:53Z</time>
      </trkpt>
      <trkpt lat="42.88859" lon="1.16712">
        <ele>839.8</ele>
        <time>2024-06-16T14:11:54Z</time>
      </trkpt>
      <trkpt lat="42.88861" lon="1.16711">
        <ele>840.2</ele>
        <time>2024-06-16T14:11:55Z</time>
      </trkpt>
      <trkpt lat="42.88864" lon="1.1671">
        <ele>840.6</ele>
        <time>2024-06-16T14:11:56Z</time>
      </trkpt>
      <trkpt lat="42.88866" lon="1.16709">
        <ele>841</ele>
        <time>2024-06-16T14:11:57Z</time>
      </trkpt>
      <trkpt lat="42.88875" lon="1.16709">
        <ele>841</ele>
        <time>2024-06-16T14:12:01Z</time>
      </trkpt>
      <trkpt lat="42.88885" lon="1.16714">
        <ele>841.4</ele>
        <time>2024-06-16T14:12:06Z</time>
      </trkpt>
      <trkpt lat="42.88887" lon="1.16715">
        <ele>841.8</ele>
        <time>2024-06-16T14:12:07Z</time>
      </trkpt>
      <trkpt lat="42.8889" lon="1.16717">
        <ele>842.2</ele>
        <time>2024-06-16T14:12:08Z</time>
      </trkpt>
      <trkpt lat="42.88893" lon="1.16718">
        <ele>842.6</ele>
        <time>2024-06-16T14:12:09Z</time>
      </trkpt>
      <trkpt lat="42.88896" lon="1.1672">
        <ele>843</ele>
        <time>2024-06-16T14:12:10Z</time>
      </trkpt>
      <trkpt lat="42.88911" lon="1.16723">
        <ele>843</ele>
        <time>2024-06-16T14:12:15Z</time>
      </trkpt>
      <trkpt lat="42.88923" lon="1.16723">
        <ele>843.4</ele>
        <time>2024-06-16T14:12:18Z</time>
      </trkpt>
      <trkpt lat="42.88927" lon="1.16723">
        <ele>843.8</ele>
        <time>2024-06-16T14:12:19Z</time>
      </trkpt>
      <trkpt lat="42.88931" lon="1.16722">
        <ele>844.4</ele>
        <time>2024-06-16T14:12:20Z</time>
      </trkpt>
      <trkpt lat="42.88934" lon="1.16721">
        <ele>844.8</ele>
        <time>2024-06-16T14:12:21Z</time>
      </trkpt>
      <trkpt lat="42.88937" lon="1.16721">
        <ele>845.2</ele>
        <time>2024-06-16T14:12:22Z</time>
      </trkpt>
      <trkpt lat="42.8895" lon="1.16717">
        <ele>845.2</ele>
        <time>2024-06-16T14:12:26Z</time>
      </trkpt>
      <trkpt lat="42.88966" lon="1.16714">
        <ele>845.6</ele>
        <time>2024-06-16T14:12:31Z</time>
      </trkpt>
      <trkpt lat="42.8897" lon="1.16713">
        <ele>846</ele>
        <time>2024-06-16T14:12:32Z</time>
      </trkpt>
      <trkpt lat="42.88972" lon="1.16711">
        <ele>846.4</ele>
        <time>2024-06-16T14:12:33Z</time>
      </trkpt>
      <trkpt lat="42.88975" lon="1.16709">
        <ele>847</ele>
        <time>2024-06-16T14:12:34Z</time>
      </trkpt>
      <trkpt lat="42.88977" lon="1.16707">
        <ele>847.4</ele>
        <time>2024-06-16T14:12:35Z</time>
      </trkpt>
      <trkpt lat="42.88985" lon="1.167">
        <ele>847.4</ele>
        <time>2024-06-16T14:12:38Z</time>
      </trkpt>
      <trkpt lat="42.88992" lon="1.16699">
        <ele>847.4</ele>
        <time>2024-06-16T14:12:41Z</time>
      </trkpt>
      <trkpt lat="42.88995" lon="1.167">
        <ele>847.4</ele>
        <time>2024-06-16T14:12:42Z</time>
      </trkpt>
      <trkpt lat="42.89006" lon="1.16696">
        <ele>847.8</ele>
        <time>2024-06-16T14:12:46Z</time>
      </trkpt>
      <trkpt lat="42.89008" lon="1.16694">
        <ele>848.2</ele>
        <time>2024-06-16T14:12:47Z</time>
      </trkpt>
      <trkpt lat="42.89011" lon="1.16692">
        <ele>848.6</ele>
        <time>2024-06-16T14:12:48Z</time>
      </trkpt>
      <trkpt lat="42.89013" lon="1.16689">
        <ele>849.4</ele>
        <time>2024-06-16T14:12:49Z</time>
      </trkpt>
      <trkpt lat="42.89017" lon="1.16685">
        <ele>849.4</ele>
        <time>2024-06-16T14:12:51Z</time>
      </trkpt>
      <trkpt lat="42.89029" lon="1.16673">
        <ele>849.8</ele>
        <time>2024-06-16T14:12:57Z</time>
      </trkpt>
      <trkpt lat="42.8903" lon="1.16671">
        <ele>850.4</ele>
        <time>2024-06-16T14:12:58Z</time>
      </trkpt>
      <trkpt lat="42.89031" lon="1.16669">
        <ele>850.8</ele>
        <time>2024-06-16T14:12:59Z</time>
      </trkpt>
      <trkpt lat="42.89032" lon="1.16667">
        <ele>851.2</ele>
        <time>2024-06-16T14:13:00Z</time>
      </trkpt>
      <trkpt lat="42.89033" lon="1.16665">
        <ele>851.6</ele>
        <time>2024-06-16T14:13:01Z</time>
      </trkpt>
      <trkpt lat="42.89034" lon="1.16663">
        <ele>851.6</ele>
        <time>2024-06-16T14:13:02Z</time>
      </trkpt>
      <trkpt lat="42.89046" lon="1.16647">
        <ele>851.6</ele>
        <time>2024-06-16T14:13:09Z</time>
      </trkpt>
      <trkpt lat="42.8905" lon="1.16641">
        <ele>852</ele>
        <time>2024-06-16T14:13:11Z</time>
      </trkpt>
      <trkpt lat="42.89052" lon="1.16639">
        <ele>852.4</ele>
        <time>2024-06-16T14:13:12Z</time>
      </trkpt>
      <trkpt lat="42.89055" lon="1.16636">
        <ele>853.2</ele>
        <time>2024-06-16T14:13:13Z</time>
      </trkpt>
      <trkpt lat="42.89057" lon="1.16633">
        <ele>853.8</ele>
        <time>2024-06-16T14:13:14Z</time>
      </trkpt>
      <trkpt lat="42.89064" lon="1.16628">
        <ele>853.8</ele>
        <time>2024-06-16T14:13:16Z</time>
      </trkpt>
      <trkpt lat="42.89078" lon="1.1662">
        <ele>853.8</ele>
        <time>2024-06-16T14:13:21Z</time>
      </trkpt>
      <trkpt lat="42.89087" lon="1.16617">
        <ele>854.2</ele>
        <time>2024-06-16T14:13:24Z</time>
      </trkpt>
      <trkpt lat="42.8909" lon="1.16616">
        <ele>854.6</ele>
        <time>2024-06-16T14:13:25Z</time>
      </trkpt>
      <trkpt lat="42.89095" lon="1.16615">
        <ele>855</ele>
        <time>2024-06-16T14:13:26Z</time>
      </trkpt>
      <trkpt lat="42.89098" lon="1.16615">
        <ele>855.4</ele>
        <time>2024-06-16T14:13:27Z</time>
      </trkpt>
      <trkpt lat="42.89102" lon="1.16614">
        <ele>855.8</ele>
        <time>2024-06-16T14:13:28Z</time>
      </trkpt>
      <trkpt lat="42.89114" lon="1.16616">
        <ele>855.8</ele>
        <time>2024-06-16T14:13:33Z</time>
      </trkpt>
      <trkpt lat="42.89118" lon="1.16618">
        <ele>856.2</ele>
        <time>2024-06-16T14:13:35Z</time>
      </trkpt>
      <trkpt lat="42.8912" lon="1.16619">
        <ele>856.6</ele>
        <time>2024-06-16T14:13:36Z</time>
      </trkpt>
      <trkpt lat="42.89123" lon="1.16621">
        <ele>857</ele>
        <time>2024-06-16T14:13:37Z</time>
      </trkpt>
      <trkpt lat="42.89125" lon="1.16621">
        <ele>857.8</ele>
        <time>2024-06-16T14:13:38Z</time>
      </trkpt>
      <trkpt lat="42.89141" lon="1.16621">
        <ele>857.8</ele>
        <time>2024-06-16T14:13:43Z</time>
      </trkpt>
      <trkpt lat="42.89155" lon="1.16621">
        <ele>858.2</ele>
        <time>2024-06-16T14:13:47Z</time>
      </trkpt>
      <trkpt lat="42.89158" lon="1.16621">
        <ele>858.8</ele>
        <time>2024-06-16T14:13:48Z</time>
      </trkpt>
      <trkpt lat="42.89162" lon="1.16621">
        <ele>859.2</ele>
        <time>2024-06-16T14:13:49Z</time>
      </trkpt>
      <trkpt lat="42.89164" lon="1.16621">
        <ele>859.6</ele>
        <time>2024-06-16T14:13:50Z</time>
      </trkpt>
      <trkpt lat="42.89166" lon="1.16621">
        <ele>860</ele>
        <time>2024-06-16T14:13:51Z</time>
      </trkpt>
      <trkpt lat="42.89173" lon="1.16617">
        <ele>860</ele>
        <time>2024-06-16T14:13:54Z</time>
      </trkpt>
      <trkpt lat="42.89183" lon="1.16608">
        <ele>860</ele>
        <time>2024-06-16T14:14:00Z</time>
      </trkpt>
      <trkpt lat="42.89188" lon="1.16605">
        <ele>860.4</ele>
        <time>2024-06-16T14:14:02Z</time>
      </trkpt>
      <trkpt lat="42.89191" lon="1.16604">
        <ele>861.4</ele>
        <time>2024-06-16T14:14:03Z</time>
      </trkpt>
      <trkpt lat="42.89194" lon="1.16602">
        <ele>861.8</ele>
        <time>2024-06-16T14:14:04Z</time>
      </trkpt>
      <trkpt lat="42.89197" lon="1.16601">
        <ele>862.2</ele>
        <time>2024-06-16T14:14:05Z</time>
      </trkpt>
      <trkpt lat="42.89212" lon="1.1659">
        <ele>862.2</ele>
        <time>2024-06-16T14:14:11Z</time>
      </trkpt>
      <trkpt lat="42.89217" lon="1.16586">
        <ele>862.6</ele>
        <time>2024-06-16T14:14:14Z</time>
      </trkpt>
      <trkpt lat="42.89218" lon="1.16585">
        <ele>863</ele>
        <time>2024-06-16T14:14:15Z</time>
      </trkpt>
      <trkpt lat="42.89219" lon="1.16585">
        <ele>863.4</ele>
        <time>2024-06-16T14:14:16Z</time>
      </trkpt>
      <trkpt lat="42.89221" lon="1.16584">
        <ele>864</ele>
        <time>2024-06-16T14:14:17Z</time>
      </trkpt>
      <trkpt lat="42.89223" lon="1.16583">
        <ele>864.4</ele>
        <time>2024-06-16T14:14:18Z</time>
      </trkpt>
      <trkpt lat="42.89228" lon="1.16581">
        <ele>864.4</ele>
        <time>2024-06-16T14:14:22Z</time>
      </trkpt>
      <trkpt lat="42.89229" lon="1.16581">
        <ele>864.8</ele>
        <time>2024-06-16T14:14:23Z</time>
      </trkpt>
      <trkpt lat="42.89241" lon="1.1659">
        <ele>866</ele>
        <time>2024-06-16T14:14:26Z</time>
      </trkpt>
      <trkpt lat="42.89242" lon="1.16591">
        <ele>866.4</ele>
        <time>2024-06-16T14:14:27Z</time>
      </trkpt>
      <trkpt lat="42.89243" lon="1.16593">
        <ele>866.4</ele>
        <time>2024-06-16T14:14:28Z</time>
      </trkpt>
      <trkpt lat="42.8931" lon="1.16643">
        <ele>867</ele>
        <time>2024-06-16T14:14:35Z</time>
      </trkpt>
      <trkpt lat="42.89312" lon="1.16644">
        <ele>867.4</ele>
        <time>2024-06-16T14:14:36Z</time>
      </trkpt>
      <trkpt lat="42.89314" lon="1.16647">
        <ele>867.8</ele>
        <time>2024-06-16T14:14:37Z</time>
      </trkpt>
      <trkpt lat="42.89317" lon="1.1665">
        <ele>868.2</ele>
        <time>2024-06-16T14:14:38Z</time>
      </trkpt>
      <trkpt lat="42.8932" lon="1.16653">
        <ele>868.6</ele>
        <time>2024-06-16T14:14:39Z</time>
      </trkpt>
      <trkpt lat="42.89324" lon="1.16659">
        <ele>868.6</ele>
        <time>2024-06-16T14:14:41Z</time>
      </trkpt>
      <trkpt lat="42.89332" lon="1.1668">
        <ele>868.6</ele>
        <time>2024-06-16T14:14:47Z</time>
      </trkpt>
      <trkpt lat="42.89332" lon="1.16685">
        <ele>869</ele>
        <time>2024-06-16T14:14:48Z</time>
      </trkpt>
      <trkpt lat="42.89333" lon="1.16688">
        <ele>869.6</ele>
        <time>2024-06-16T14:14:49Z</time>
      </trkpt>
      <trkpt lat="42.89333" lon="1.16692">
        <ele>870</ele>
        <time>2024-06-16T14:14:50Z</time>
      </trkpt>
      <trkpt lat="42.89333" lon="1.16696">
        <ele>870.4</ele>
        <time>2024-06-16T14:14:51Z</time>
      </trkpt>
      <trkpt lat="42.89334" lon="1.167">
        <ele>870.8</ele>
        <time>2024-06-16T14:14:52Z</time>
      </trkpt>
      <trkpt lat="42.89334" lon="1.16704">
        <ele>870.8</ele>
        <time>2024-06-16T14:14:53Z</time>
      </trkpt>
      <trkpt lat="42.89338" lon="1.16725">
        <ele>870.8</ele>
        <time>2024-06-16T14:14:59Z</time>
      </trkpt>
      <trkpt lat="42.89345" lon="1.16747">
        <ele>871.2</ele>
        <time>2024-06-16T14:15:05Z</time>
      </trkpt>
      <trkpt lat="42.89346" lon="1.16751">
        <ele>871.6</ele>
        <time>2024-06-16T14:15:06Z</time>
      </trkpt>
      <trkpt lat="42.89347" lon="1.16755">
        <ele>872</ele>
        <time>2024-06-16T14:15:07Z</time>
      </trkpt>
      <trkpt lat="42.89349" lon="1.16758">
        <ele>872.4</ele>
        <time>2024-06-16T14:15:08Z</time>
      </trkpt>
      <trkpt lat="42.8935" lon="1.16762">
        <ele>872.8</ele>
        <time>2024-06-16T14:15:09Z</time>
      </trkpt>
      <trkpt lat="42.89358" lon="1.16774">
        <ele>872.8</ele>
        <time>2024-06-16T14:15:14Z</time>
      </trkpt>
      <trkpt lat="42.89368" lon="1.16785">
        <ele>873.2</ele>
        <time>2024-06-16T14:15:19Z</time>
      </trkpt>
      <trkpt lat="42.89369" lon="1.16785">
        <ele>873.6</ele>
        <time>2024-06-16T14:15:20Z</time>
      </trkpt>
      <trkpt lat="42.89371" lon="1.16787">
        <ele>874.2</ele>
        <time>2024-06-16T14:15:21Z</time>
      </trkpt>
      <trkpt lat="42.89373" lon="1.16788">
        <ele>874.6</ele>
        <time>2024-06-16T14:15:22Z</time>
      </trkpt>
      <trkpt lat="42.89376" lon="1.1679">
        <ele>875</ele>
        <time>2024-06-16T14:15:23Z</time>
      </trkpt>
      <trkpt lat="42.89386" lon="1.16798">
        <ele>875</ele>
        <time>2024-06-16T14:15:27Z</time>
      </trkpt>
      <trkpt lat="42.89398" lon="1.16805">
        <ele>875</ele>
        <time>2024-06-16T14:15:31Z</time>
      </trkpt>
      <trkpt lat="42.89406" lon="1.1681">
        <ele>875</ele>
        <time>2024-06-16T14:15:34Z</time>
      </trkpt>
      <trkpt lat="42.89414" lon="1.16816">
        <ele>875</ele>
        <time>2024-06-16T14:15:39Z</time>
      </trkpt>
      <trkpt lat="42.89414" lon="1.16817">
        <ele>875</ele>
        <time>2024-06-16T14:15:41Z</time>
      </trkpt>
      <trkpt lat="42.89418" lon="1.16816">
        <ele>875</ele>
        <time>2024-06-16T14:18:13Z</time>
      </trkpt>
      <trkpt lat="42.89418" lon="1.16818">
        <ele>875</ele>
        <time>2024-06-16T14:18:14Z</time>
      </trkpt>
      <trkpt lat="42.89414" lon="1.16826">
        <ele>875</ele>
        <time>2024-06-16T14:18:18Z</time>
      </trkpt>
      <trkpt lat="42.89412" lon="1.16838">
        <ele>875</ele>
        <time>2024-06-16T14:18:23Z</time>
      </trkpt>
      <trkpt lat="42.89414" lon="1.16861">
        <ele>874.6</ele>
        <time>2024-06-16T14:18:28Z</time>
      </trkpt>
      <trkpt lat="42.89415" lon="1.16867">
        <ele>874.2</ele>
        <time>2024-06-16T14:18:29Z</time>
      </trkpt>
      <trkpt lat="42.89415" lon="1.16873">
        <ele>873.8</ele>
        <time>2024-06-16T14:18:30Z</time>
      </trkpt>
      <trkpt lat="42.89416" lon="1.1688">
        <ele>873.4</ele>
        <time>2024-06-16T14:18:31Z</time>
      </trkpt>
      <trkpt lat="42.89417" lon="1.16886">
        <ele>873</ele>
        <time>2024-06-16T14:18:32Z</time>
      </trkpt>
      <trkpt lat="42.89419" lon="1.16898">
        <ele>873</ele>
        <time>2024-06-16T14:18:34Z</time>
      </trkpt>
      <trkpt lat="42.89426" lon="1.16925">
        <ele>872.4</ele>
        <time>2024-06-16T14:18:38Z</time>
      </trkpt>
      <trkpt lat="42.89428" lon="1.16932">
        <ele>872</ele>
        <time>2024-06-16T14:18:39Z</time>
      </trkpt>
      <trkpt lat="42.8943" lon="1.1694">
        <ele>871.6</ele>
        <time>2024-06-16T14:18:40Z</time>
      </trkpt>
      <trkpt lat="42.89433" lon="1.16948">
        <ele>871.2</ele>
        <time>2024-06-16T14:18:41Z</time>
      </trkpt>
      <trkpt lat="42.89436" lon="1.16956">
        <ele>870.8</ele>
        <time>2024-06-16T14:18:42Z</time>
      </trkpt>
      <trkpt lat="42.89451" lon="1.16995">
        <ele>870.8</ele>
        <time>2024-06-16T14:18:47Z</time>
      </trkpt>
      <trkpt lat="42.89457" lon="1.1701">
        <ele>870.4</ele>
        <time>2024-06-16T14:18:49Z</time>
      </trkpt>
      <trkpt lat="42.8946" lon="1.17018">
        <ele>870</ele>
        <time>2024-06-16T14:18:50Z</time>
      </trkpt>
      <trkpt lat="42.89463" lon="1.17025">
        <ele>869.6</ele>
        <time>2024-06-16T14:18:51Z</time>
      </trkpt>
      <trkpt lat="42.89466" lon="1.17032">
        <ele>869.2</ele>
        <time>2024-06-16T14:18:52Z</time>
      </trkpt>
      <trkpt lat="42.89468" lon="1.17039">
        <ele>868.8</ele>
        <time>2024-06-16T14:18:53Z</time>
      </trkpt>
      <trkpt lat="42.89474" lon="1.17053">
        <ele>868.8</ele>
        <time>2024-06-16T14:18:55Z</time>
      </trkpt>
      <trkpt lat="42.89489" lon="1.17081">
        <ele>868.4</ele>
        <time>2024-06-16T14:18:59Z</time>
      </trkpt>
      <trkpt lat="42.89493" lon="1.17088">
        <ele>868</ele>
        <time>2024-06-16T14:19:00Z</time>
      </trkpt>
      <trkpt lat="42.89497" lon="1.17095">
        <ele>867.6</ele>
        <time>2024-06-16T14:19:01Z</time>
      </trkpt>
      <trkpt lat="42.89501" lon="1.17102">
        <ele>867</ele>
        <time>2024-06-16T14:19:02Z</time>
      </trkpt>
      <trkpt lat="42.89505" lon="1.17108">
        <ele>866.6</ele>
        <time>2024-06-16T14:19:03Z</time>
      </trkpt>
      <trkpt lat="42.89519" lon="1.17135">
        <ele>866.6</ele>
        <time>2024-06-16T14:19:07Z</time>
      </trkpt>
      <trkpt lat="42.89523" lon="1.17142">
        <ele>866.2</ele>
        <time>2024-06-16T14:19:08Z</time>
      </trkpt>
      <trkpt lat="42.89527" lon="1.17149">
        <ele>865.8</ele>
        <time>2024-06-16T14:19:09Z</time>
      </trkpt>
      <trkpt lat="42.89531" lon="1.17157">
        <ele>865.4</ele>
        <time>2024-06-16T14:19:10Z</time>
      </trkpt>
      <trkpt lat="42.89535" lon="1.17165">
        <ele>865</ele>
        <time>2024-06-16T14:19:11Z</time>
      </trkpt>
      <trkpt lat="42.8954" lon="1.17173">
        <ele>864.6</ele>
        <time>2024-06-16T14:19:12Z</time>
      </trkpt>
      <trkpt lat="42.89549" lon="1.17191">
        <ele>864.2</ele>
        <time>2024-06-16T14:19:14Z</time>
      </trkpt>
      <trkpt lat="42.89553" lon="1.172">
        <ele>863.6</ele>
        <time>2024-06-16T14:19:15Z</time>
      </trkpt>
      <trkpt lat="42.89557" lon="1.1721">
        <ele>863.2</ele>
        <time>2024-06-16T14:19:16Z</time>
      </trkpt>
      <trkpt lat="42.89561" lon="1.17219">
        <ele>862.8</ele>
        <time>2024-06-16T14:19:17Z</time>
      </trkpt>
      <trkpt lat="42.89564" lon="1.1723">
        <ele>862.2</ele>
        <time>2024-06-16T14:19:18Z</time>
      </trkpt>
      <trkpt lat="42.89567" lon="1.1724">
        <ele>861.6</ele>
        <time>2024-06-16T14:19:19Z</time>
      </trkpt>
      <trkpt lat="42.8957" lon="1.17249">
        <ele>861.2</ele>
        <time>2024-06-16T14:19:20Z</time>
      </trkpt>
      <trkpt lat="42.89572" lon="1.1726">
        <ele>860.6</ele>
        <time>2024-06-16T14:19:21Z</time>
      </trkpt>
      <trkpt lat="42.89574" lon="1.1727">
        <ele>860</ele>
        <time>2024-06-16T14:19:22Z</time>
      </trkpt>
      <trkpt lat="42.89576" lon="1.1728">
        <ele>859.4</ele>
        <time>2024-06-16T14:19:23Z</time>
      </trkpt>
      <trkpt lat="42.89577" lon="1.17291">
        <ele>858.6</ele>
        <time>2024-06-16T14:19:24Z</time>
      </trkpt>
      <trkpt lat="42.89578" lon="1.17302">
        <ele>858</ele>
        <time>2024-06-16T14:19:25Z</time>
      </trkpt>
      <trkpt lat="42.89578" lon="1.17313">
        <ele>857.4</ele>
        <time>2024-06-16T14:19:26Z</time>
      </trkpt>
      <trkpt lat="42.89579" lon="1.17322">
        <ele>857</ele>
        <time>2024-06-16T14:19:27Z</time>
      </trkpt>
      <trkpt lat="42.89579" lon="1.17332">
        <ele>856.4</ele>
        <time>2024-06-16T14:19:28Z</time>
      </trkpt>
      <trkpt lat="42.89578" lon="1.17342">
        <ele>855.8</ele>
        <time>2024-06-16T14:19:29Z</time>
      </trkpt>
      <trkpt lat="42.89577" lon="1.17351">
        <ele>855.2</ele>
        <time>2024-06-16T14:19:30Z</time>
      </trkpt>
      <trkpt lat="42.89573" lon="1.1738">
        <ele>854.8</ele>
        <time>2024-06-16T14:19:33Z</time>
      </trkpt>
      <trkpt lat="42.89571" lon="1.1739">
        <ele>854.4</ele>
        <time>2024-06-16T14:19:34Z</time>
      </trkpt>
      <trkpt lat="42.89569" lon="1.174">
        <ele>853.8</ele>
        <time>2024-06-16T14:19:35Z</time>
      </trkpt>
      <trkpt lat="42.89567" lon="1.17409">
        <ele>853.4</ele>
        <time>2024-06-16T14:19:36Z</time>
      </trkpt>
      <trkpt lat="42.89566" lon="1.17419">
        <ele>852.8</ele>
        <time>2024-06-16T14:19:37Z</time>
      </trkpt>
      <trkpt lat="42.89564" lon="1.17428">
        <ele>852.4</ele>
        <time>2024-06-16T14:19:38Z</time>
      </trkpt>
      <trkpt lat="42.89561" lon="1.17438">
        <ele>851.8</ele>
        <time>2024-06-16T14:19:39Z</time>
      </trkpt>
      <trkpt lat="42.89558" lon="1.17449">
        <ele>851.4</ele>
        <time>2024-06-16T14:19:40Z</time>
      </trkpt>
      <trkpt lat="42.89555" lon="1.17459">
        <ele>850.8</ele>
        <time>2024-06-16T14:19:41Z</time>
      </trkpt>
      <trkpt lat="42.89552" lon="1.17469">
        <ele>850.8</ele>
        <time>2024-06-16T14:19:42Z</time>
      </trkpt>
      <trkpt lat="42.89544" lon="1.17498">
        <ele>850.4</ele>
        <time>2024-06-16T14:19:45Z</time>
      </trkpt>
      <trkpt lat="42.89542" lon="1.17507">
        <ele>850</ele>
        <time>2024-06-16T14:19:46Z</time>
      </trkpt>
      <trkpt lat="42.89541" lon="1.17517">
        <ele>849.6</ele>
        <time>2024-06-16T14:19:47Z</time>
      </trkpt>
      <trkpt lat="42.8954" lon="1.17526">
        <ele>849.2</ele>
        <time>2024-06-16T14:19:48Z</time>
      </trkpt>
      <trkpt lat="42.89539" lon="1.17534">
        <ele>848.8</ele>
        <time>2024-06-16T14:19:49Z</time>
      </trkpt>
      <trkpt lat="42.89536" lon="1.17563">
        <ele>848.4</ele>
        <time>2024-06-16T14:19:52Z</time>
      </trkpt>
      <trkpt lat="42.89539" lon="1.17575">
        <ele>848</ele>
        <time>2024-06-16T14:19:53Z</time>
      </trkpt>
      <trkpt lat="42.8954" lon="1.17586">
        <ele>847.6</ele>
        <time>2024-06-16T14:19:54Z</time>
      </trkpt>
      <trkpt lat="42.89542" lon="1.17597">
        <ele>847</ele>
        <time>2024-06-16T14:19:55Z</time>
      </trkpt>
      <trkpt lat="42.89544" lon="1.17609">
        <ele>846.6</ele>
        <time>2024-06-16T14:19:56Z</time>
      </trkpt>
      <trkpt lat="42.89546" lon="1.17628">
        <ele>846.2</ele>
        <time>2024-06-16T14:19:58Z</time>
      </trkpt>
      <trkpt lat="42.89547" lon="1.17637">
        <ele>845.8</ele>
        <time>2024-06-16T14:19:59Z</time>
      </trkpt>
      <trkpt lat="42.89549" lon="1.17646">
        <ele>845.4</ele>
        <time>2024-06-16T14:20:00Z</time>
      </trkpt>
      <trkpt lat="42.89551" lon="1.17654">
        <ele>845</ele>
        <time>2024-06-16T14:20:01Z</time>
      </trkpt>
      <trkpt lat="42.89553" lon="1.17661">
        <ele>844.4</ele>
        <time>2024-06-16T14:20:02Z</time>
      </trkpt>
      <trkpt lat="42.89557" lon="1.17679">
        <ele>844.4</ele>
        <time>2024-06-16T14:20:04Z</time>
      </trkpt>
      <trkpt lat="42.89562" lon="1.17726">
        <ele>844.4</ele>
        <time>2024-06-16T14:20:10Z</time>
      </trkpt>
      <trkpt lat="42.89563" lon="1.17742">
        <ele>844</ele>
        <time>2024-06-16T14:20:12Z</time>
      </trkpt>
      <trkpt lat="42.89563" lon="1.1775">
        <ele>843.2</ele>
        <time>2024-06-16T14:20:13Z</time>
      </trkpt>
      <trkpt lat="42.89563" lon="1.17758">
        <ele>842.8</ele>
        <time>2024-06-16T14:20:14Z</time>
      </trkpt>
      <trkpt lat="42.89563" lon="1.17767">
        <ele>842.4</ele>
        <time>2024-06-16T14:20:15Z</time>
      </trkpt>
      <trkpt lat="42.89563" lon="1.17798">
        <ele>842</ele>
        <time>2024-06-16T14:20:19Z</time>
      </trkpt>
      <trkpt lat="42.89563" lon="1.17802">
        <ele>841.6</ele>
        <time>2024-06-16T14:20:20Z</time>
      </trkpt>
      <trkpt lat="42.89563" lon="1.17808">
        <ele>841</ele>
        <time>2024-06-16T14:20:21Z</time>
      </trkpt>
      <trkpt lat="42.89561" lon="1.17813">
        <ele>840.6</ele>
        <time>2024-06-16T14:20:22Z</time>
      </trkpt>
      <trkpt lat="42.89561" lon="1.17818">
        <ele>840.2</ele>
        <time>2024-06-16T14:20:23Z</time>
      </trkpt>
      <trkpt lat="42.8956" lon="1.17825">
        <ele>840.2</ele>
        <time>2024-06-16T14:20:24Z</time>
      </trkpt>
      <trkpt lat="42.89559" lon="1.1783">
        <ele>840.2</ele>
        <time>2024-06-16T14:20:25Z</time>
      </trkpt>
      <trkpt lat="42.89554" lon="1.17842">
        <ele>839.6</ele>
        <time>2024-06-16T14:20:27Z</time>
      </trkpt>
      <trkpt lat="42.8955" lon="1.17849">
        <ele>839.2</ele>
        <time>2024-06-16T14:20:28Z</time>
      </trkpt>
      <trkpt lat="42.89548" lon="1.17856">
        <ele>838.6</ele>
        <time>2024-06-16T14:20:29Z</time>
      </trkpt>
      <trkpt lat="42.89545" lon="1.17863">
        <ele>838</ele>
        <time>2024-06-16T14:20:30Z</time>
      </trkpt>
      <trkpt lat="42.89542" lon="1.17868">
        <ele>837.2</ele>
        <time>2024-06-16T14:20:31Z</time>
      </trkpt>
      <trkpt lat="42.89539" lon="1.17874">
        <ele>836.6</ele>
        <time>2024-06-16T14:20:32Z</time>
      </trkpt>
      <trkpt lat="42.89536" lon="1.17879">
        <ele>835.8</ele>
        <time>2024-06-16T14:20:33Z</time>
      </trkpt>
      <trkpt lat="42.89532" lon="1.17884">
        <ele>834.8</ele>
        <time>2024-06-16T14:20:34Z</time>
      </trkpt>
      <trkpt lat="42.8953" lon="1.17889">
        <ele>834</ele>
        <time>2024-06-16T14:20:35Z</time>
      </trkpt>
      <trkpt lat="42.89527" lon="1.17893">
        <ele>833</ele>
        <time>2024-06-16T14:20:36Z</time>
      </trkpt>
      <trkpt lat="42.89525" lon="1.17895">
        <ele>832</ele>
        <time>2024-06-16T14:20:37Z</time>
      </trkpt>
      <trkpt lat="42.89523" lon="1.17895">
        <ele>830.2</ele>
        <time>2024-06-16T14:20:38Z</time>
      </trkpt>
      <trkpt lat="42.89522" lon="1.17894">
        <ele>829.4</ele>
        <time>2024-06-16T14:20:39Z</time>
      </trkpt>
      <trkpt lat="42.89522" lon="1.17894">
        <ele>828.4</ele>
        <time>2024-06-16T14:20:40Z</time>
      </trkpt>
      <trkpt lat="42.89521" lon="1.17893">
        <ele>827.6</ele>
        <time>2024-06-16T14:20:41Z</time>
      </trkpt>
      <trkpt lat="42.8952" lon="1.17892">
        <ele>827.6</ele>
        <time>2024-06-16T14:20:42Z</time>
      </trkpt>
      <trkpt lat="42.89509" lon="1.17883">
        <ele>827.6</ele>
        <time>2024-06-16T14:20:48Z</time>
      </trkpt>
      <trkpt lat="42.89494" lon="1.17875">
        <ele>827.6</ele>
        <time>2024-06-16T14:20:53Z</time>
      </trkpt>
      <trkpt lat="42.89478" lon="1.17869">
        <ele>827.2</ele>
        <time>2024-06-16T14:20:56Z</time>
      </trkpt>
      <trkpt lat="42.89472" lon="1.17868">
        <ele>826.6</ele>
        <time>2024-06-16T14:20:57Z</time>
      </trkpt>
      <trkpt lat="42.89468" lon="1.17866">
        <ele>826.2</ele>
        <time>2024-06-16T14:20:58Z</time>
      </trkpt>
      <trkpt lat="42.89463" lon="1.17864">
        <ele>825.8</ele>
        <time>2024-06-16T14:20:59Z</time>
      </trkpt>
      <trkpt lat="42.89458" lon="1.17861">
        <ele>825.2</ele>
        <time>2024-06-16T14:21:00Z</time>
      </trkpt>
      <trkpt lat="42.89453" lon="1.1786">
        <ele>825.2</ele>
        <time>2024-06-16T14:21:01Z</time>
      </trkpt>
      <trkpt lat="42.89447" lon="1.17856">
        <ele>825.2</ele>
        <time>2024-06-16T14:21:03Z</time>
      </trkpt>
      <trkpt lat="42.89443" lon="1.17852">
        <ele>825.2</ele>
        <time>2024-06-16T14:21:05Z</time>
      </trkpt>
      <trkpt lat="42.89436" lon="1.17846">
        <ele>825.2</ele>
        <time>2024-06-16T14:21:08Z</time>
      </trkpt>
      <trkpt lat="42.89419" lon="1.17837">
        <ele>825.2</ele>
        <time>2024-06-16T14:21:13Z</time>
      </trkpt>
      <trkpt lat="42.89416" lon="1.17833">
        <ele>825.2</ele>
        <time>2024-06-16T14:21:14Z</time>
      </trkpt>
      <trkpt lat="42.8941" lon="1.17826">
        <ele>824.8</ele>
        <time>2024-06-16T14:21:16Z</time>
      </trkpt>
      <trkpt lat="42.89407" lon="1.17823">
        <ele>824.2</ele>
        <time>2024-06-16T14:21:17Z</time>
      </trkpt>
      <trkpt lat="42.89405" lon="1.17821">
        <ele>823.8</ele>
        <time>2024-06-16T14:21:18Z</time>
      </trkpt>
      <trkpt lat="42.89402" lon="1.17817">
        <ele>823.2</ele>
        <time>2024-06-16T14:21:19Z</time>
      </trkpt>
      <trkpt lat="42.894" lon="1.17815">
        <ele>822.8</ele>
        <time>2024-06-16T14:21:20Z</time>
      </trkpt>
      <trkpt lat="42.89397" lon="1.17812">
        <ele>822.4</ele>
        <time>2024-06-16T14:21:21Z</time>
      </trkpt>
      <trkpt lat="42.89395" lon="1.17809">
        <ele>822</ele>
        <time>2024-06-16T14:21:22Z</time>
      </trkpt>
      <trkpt lat="42.89392" lon="1.17806">
        <ele>821.4</ele>
        <time>2024-06-16T14:21:23Z</time>
      </trkpt>
      <trkpt lat="42.8939" lon="1.17804">
        <ele>821</ele>
        <time>2024-06-16T14:21:24Z</time>
      </trkpt>
      <trkpt lat="42.89387" lon="1.17801">
        <ele>820.6</ele>
        <time>2024-06-16T14:21:25Z</time>
      </trkpt>
      <trkpt lat="42.89381" lon="1.17797">
        <ele>820.2</ele>
        <time>2024-06-16T14:21:27Z</time>
      </trkpt>
      <trkpt lat="42.89378" lon="1.17795">
        <ele>819.6</ele>
        <time>2024-06-16T14:21:28Z</time>
      </trkpt>
      <trkpt lat="42.89374" lon="1.17792">
        <ele>818.8</ele>
        <time>2024-06-16T14:21:29Z</time>
      </trkpt>
      <trkpt lat="42.89371" lon="1.1779">
        <ele>818.2</ele>
        <time>2024-06-16T14:21:30Z</time>
      </trkpt>
      <trkpt lat="42.89367" lon="1.17786">
        <ele>817.8</ele>
        <time>2024-06-16T14:21:31Z</time>
      </trkpt>
      <trkpt lat="42.89364" lon="1.17783">
        <ele>817.4</ele>
        <time>2024-06-16T14:21:32Z</time>
      </trkpt>
      <trkpt lat="42.89361" lon="1.17782">
        <ele>817</ele>
        <time>2024-06-16T14:21:33Z</time>
      </trkpt>
      <trkpt lat="42.89358" lon="1.1778">
        <ele>816.6</ele>
        <time>2024-06-16T14:21:34Z</time>
      </trkpt>
      <trkpt lat="42.89355" lon="1.1778">
        <ele>816.2</ele>
        <time>2024-06-16T14:21:35Z</time>
      </trkpt>
      <trkpt lat="42.89352" lon="1.17781">
        <ele>815.6</ele>
        <time>2024-06-16T14:21:36Z</time>
      </trkpt>
      <trkpt lat="42.89349" lon="1.17781">
        <ele>815.2</ele>
        <time>2024-06-16T14:21:37Z</time>
      </trkpt>
      <trkpt lat="42.89347" lon="1.17782">
        <ele>814.8</ele>
        <time>2024-06-16T14:21:38Z</time>
      </trkpt>
      <trkpt lat="42.89344" lon="1.17783">
        <ele>814.2</ele>
        <time>2024-06-16T14:21:39Z</time>
      </trkpt>
      <trkpt lat="42.89339" lon="1.17783">
        <ele>813.8</ele>
        <time>2024-06-16T14:21:41Z</time>
      </trkpt>
      <trkpt lat="42.89336" lon="1.17781">
        <ele>813.2</ele>
        <time>2024-06-16T14:21:42Z</time>
      </trkpt>
      <trkpt lat="42.89333" lon="1.1778">
        <ele>812.8</ele>
        <time>2024-06-16T14:21:43Z</time>
      </trkpt>
      <trkpt lat="42.89331" lon="1.17778">
        <ele>812.2</ele>
        <time>2024-06-16T14:21:44Z</time>
      </trkpt>
      <trkpt lat="42.89329" lon="1.17776">
        <ele>811.8</ele>
        <time>2024-06-16T14:21:45Z</time>
      </trkpt>
      <trkpt lat="42.89327" lon="1.17774">
        <ele>811.4</ele>
        <time>2024-06-16T14:21:46Z</time>
      </trkpt>
      <trkpt lat="42.89325" lon="1.17772">
        <ele>811</ele>
        <time>2024-06-16T14:21:47Z</time>
      </trkpt>
      <trkpt lat="42.89322" lon="1.1777">
        <ele>810.4</ele>
        <time>2024-06-16T14:21:48Z</time>
      </trkpt>
      <trkpt lat="42.89318" lon="1.17769">
        <ele>810</ele>
        <time>2024-06-16T14:21:49Z</time>
      </trkpt>
      <trkpt lat="42.89315" lon="1.17766">
        <ele>809.6</ele>
        <time>2024-06-16T14:21:50Z</time>
      </trkpt>
      <trkpt lat="42.89311" lon="1.17764">
        <ele>809.2</ele>
        <time>2024-06-16T14:21:51Z</time>
      </trkpt>
      <trkpt lat="42.89308" lon="1.17763">
        <ele>808.8</ele>
        <time>2024-06-16T14:21:52Z</time>
      </trkpt>
      <trkpt lat="42.89305" lon="1.17762">
        <ele>808</ele>
        <time>2024-06-16T14:21:53Z</time>
      </trkpt>
      <trkpt lat="42.89302" lon="1.17761">
        <ele>807.6</ele>
        <time>2024-06-16T14:21:54Z</time>
      </trkpt>
      <trkpt lat="42.89298" lon="1.17759">
        <ele>807.6</ele>
        <time>2024-06-16T14:21:56Z</time>
      </trkpt>
      <trkpt lat="42.89296" lon="1.17759">
        <ele>807.6</ele>
        <time>2024-06-16T14:21:57Z</time>
      </trkpt>
      <trkpt lat="42.89285" lon="1.1776">
        <ele>807.6</ele>
        <time>2024-06-16T14:22:01Z</time>
      </trkpt>
      <trkpt lat="42.89275" lon="1.17762">
        <ele>807.6</ele>
        <time>2024-06-16T14:22:05Z</time>
      </trkpt>
      <trkpt lat="42.89255" lon="1.17768">
        <ele>807.6</ele>
        <time>2024-06-16T14:22:12Z</time>
      </trkpt>
      <trkpt lat="42.89243" lon="1.17765">
        <ele>807.6</ele>
        <time>2024-06-16T14:22:17Z</time>
      </trkpt>
      <trkpt lat="42.89235" lon="1.17765">
        <ele>807.6</ele>
        <time>2024-06-16T14:22:19Z</time>
      </trkpt>
      <trkpt lat="42.8923" lon="1.17764">
        <ele>807.6</ele>
        <time>2024-06-16T14:22:21Z</time>
      </trkpt>
      <trkpt lat="42.89229" lon="1.17764">
        <ele>808</ele>
        <time>2024-06-16T14:22:22Z</time>
      </trkpt>
      <trkpt lat="42.89225" lon="1.17764">
        <ele>808.4</ele>
        <time>2024-06-16T14:22:23Z</time>
      </trkpt>
      <trkpt lat="42.89223" lon="1.17765">
        <ele>809</ele>
        <time>2024-06-16T14:22:24Z</time>
      </trkpt>
      <trkpt lat="42.8922" lon="1.17768">
        <ele>809.4</ele>
        <time>2024-06-16T14:22:25Z</time>
      </trkpt>
      <trkpt lat="42.89218" lon="1.17771">
        <ele>810</ele>
        <time>2024-06-16T14:22:26Z</time>
      </trkpt>
      <trkpt lat="42.89216" lon="1.17774">
        <ele>810</ele>
        <time>2024-06-16T14:22:27Z</time>
      </trkpt>
      <trkpt lat="42.89212" lon="1.17778">
        <ele>810</ele>
        <time>2024-06-16T14:22:32Z</time>
      </trkpt>
      <trkpt lat="42.89204" lon="1.17785">
        <ele>812</ele>
        <time>2024-06-16T14:23:18Z</time>
      </trkpt>
      <trkpt lat="42.89199" lon="1.17796">
        <ele>812</ele>
        <time>2024-06-16T14:23:22Z</time>
      </trkpt>
      <trkpt lat="42.89196" lon="1.17799">
        <ele>812</ele>
        <time>2024-06-16T14:23:23Z</time>
      </trkpt>
      <trkpt lat="42.89186" lon="1.1782">
        <ele>812</ele>
        <time>2024-06-16T14:23:29Z</time>
      </trkpt>
      <trkpt lat="42.89177" lon="1.17841">
        <ele>812.4</ele>
        <time>2024-06-16T14:23:35Z</time>
      </trkpt>
      <trkpt lat="42.89175" lon="1.17845">
        <ele>812.8</ele>
        <time>2024-06-16T14:23:36Z</time>
      </trkpt>
      <trkpt lat="42.89172" lon="1.1785">
        <ele>813.2</ele>
        <time>2024-06-16T14:23:37Z</time>
      </trkpt>
      <trkpt lat="42.8917" lon="1.17855">
        <ele>813.6</ele>
        <time>2024-06-16T14:23:38Z</time>
      </trkpt>
      <trkpt lat="42.89166" lon="1.1786">
        <ele>814</ele>
        <time>2024-06-16T14:23:39Z</time>
      </trkpt>
      <trkpt lat="42.89164" lon="1.17863">
        <ele>814</ele>
        <time>2024-06-16T14:23:40Z</time>
      </trkpt>
      <trkpt lat="42.89157" lon="1.17877">
        <ele>814</ele>
        <time>2024-06-16T14:23:44Z</time>
      </trkpt>
      <trkpt lat="42.89143" lon="1.17901">
        <ele>814</ele>
        <time>2024-06-16T14:23:50Z</time>
      </trkpt>
      <trkpt lat="42.89124" lon="1.17925">
        <ele>814</ele>
        <time>2024-06-16T14:23:56Z</time>
      </trkpt>
      <trkpt lat="42.89112" lon="1.17937">
        <ele>814</ele>
        <time>2024-06-16T14:24:00Z</time>
      </trkpt>
      <trkpt lat="42.89108" lon="1.17946">
        <ele>813.6</ele>
        <time>2024-06-16T14:24:02Z</time>
      </trkpt>
      <trkpt lat="42.89105" lon="1.17949">
        <ele>813</ele>
        <time>2024-06-16T14:24:03Z</time>
      </trkpt>
      <trkpt lat="42.89102" lon="1.17951">
        <ele>812.4</ele>
        <time>2024-06-16T14:24:04Z</time>
      </trkpt>
      <trkpt lat="42.89099" lon="1.17953">
        <ele>811.8</ele>
        <time>2024-06-16T14:24:05Z</time>
      </trkpt>
      <trkpt lat="42.89096" lon="1.17952">
        <ele>811</ele>
        <time>2024-06-16T14:24:06Z</time>
      </trkpt>
      <trkpt lat="42.89091" lon="1.17949">
        <ele>810.2</ele>
        <time>2024-06-16T14:24:07Z</time>
      </trkpt>
      <trkpt lat="42.89087" lon="1.17946">
        <ele>809.4</ele>
        <time>2024-06-16T14:24:08Z</time>
      </trkpt>
      <trkpt lat="42.89083" lon="1.17943">
        <ele>808.6</ele>
        <time>2024-06-16T14:24:09Z</time>
      </trkpt>
      <trkpt lat="42.89078" lon="1.1794">
        <ele>808</ele>
        <time>2024-06-16T14:24:10Z</time>
      </trkpt>
      <trkpt lat="42.89074" lon="1.17937">
        <ele>807.2</ele>
        <time>2024-06-16T14:24:11Z</time>
      </trkpt>
      <trkpt lat="42.89069" lon="1.17935">
        <ele>806.4</ele>
        <time>2024-06-16T14:24:12Z</time>
      </trkpt>
      <trkpt lat="42.89065" lon="1.17933">
        <ele>806</ele>
        <time>2024-06-16T14:24:13Z</time>
      </trkpt>
      <trkpt lat="42.89059" lon="1.17931">
        <ele>805.6</ele>
        <time>2024-06-16T14:24:14Z</time>
      </trkpt>
      <trkpt lat="42.89054" lon="1.1793">
        <ele>805</ele>
        <time>2024-06-16T14:24:15Z</time>
      </trkpt>
      <trkpt lat="42.89048" lon="1.17929">
        <ele>804.6</ele>
        <time>2024-06-16T14:24:16Z</time>
      </trkpt>
      <trkpt lat="42.89043" lon="1.17929">
        <ele>804.2</ele>
        <time>2024-06-16T14:24:17Z</time>
      </trkpt>
      <trkpt lat="42.89038" lon="1.17928">
        <ele>803.8</ele>
        <time>2024-06-16T14:24:18Z</time>
      </trkpt>
      <trkpt lat="42.89034" lon="1.17928">
        <ele>803.2</ele>
        <time>2024-06-16T14:24:19Z</time>
      </trkpt>
      <trkpt lat="42.8903" lon="1.17928">
        <ele>802.8</ele>
        <time>2024-06-16T14:24:20Z</time>
      </trkpt>
      <trkpt lat="42.89026" lon="1.17929">
        <ele>802.4</ele>
        <time>2024-06-16T14:24:21Z</time>
      </trkpt>
      <trkpt lat="42.89022" lon="1.1793">
        <ele>801.2</ele>
        <time>2024-06-16T14:24:22Z</time>
      </trkpt>
      <trkpt lat="42.89018" lon="1.17932">
        <ele>800.6</ele>
        <time>2024-06-16T14:24:23Z</time>
      </trkpt>
      <trkpt lat="42.89013" lon="1.17936">
        <ele>800.2</ele>
        <time>2024-06-16T14:24:24Z</time>
      </trkpt>
      <trkpt lat="42.89009" lon="1.1794">
        <ele>799.6</ele>
        <time>2024-06-16T14:24:25Z</time>
      </trkpt>
      <trkpt lat="42.88995" lon="1.17947">
        <ele>799.2</ele>
        <time>2024-06-16T14:24:28Z</time>
      </trkpt>
      <trkpt lat="42.88991" lon="1.17949">
        <ele>798.8</ele>
        <time>2024-06-16T14:24:29Z</time>
      </trkpt>
      <trkpt lat="42.88988" lon="1.17952">
        <ele>798.4</ele>
        <time>2024-06-16T14:24:30Z</time>
      </trkpt>
      <trkpt lat="42.88984" lon="1.17957">
        <ele>798</ele>
        <time>2024-06-16T14:24:31Z</time>
      </trkpt>
      <trkpt lat="42.8898" lon="1.17962">
        <ele>797.4</ele>
        <time>2024-06-16T14:24:32Z</time>
      </trkpt>
      <trkpt lat="42.88972" lon="1.1797">
        <ele>797</ele>
        <time>2024-06-16T14:24:34Z</time>
      </trkpt>
      <trkpt lat="42.88967" lon="1.17973">
        <ele>796.6</ele>
        <time>2024-06-16T14:24:35Z</time>
      </trkpt>
      <trkpt lat="42.88963" lon="1.17977">
        <ele>796</ele>
        <time>2024-06-16T14:24:36Z</time>
      </trkpt>
      <trkpt lat="42.88959" lon="1.1798">
        <ele>795.6</ele>
        <time>2024-06-16T14:24:37Z</time>
      </trkpt>
      <trkpt lat="42.88954" lon="1.17983">
        <ele>795.2</ele>
        <time>2024-06-16T14:24:38Z</time>
      </trkpt>
      <trkpt lat="42.8895" lon="1.17985">
        <ele>795.2</ele>
        <time>2024-06-16T14:24:39Z</time>
      </trkpt>
      <trkpt lat="42.88941" lon="1.17991">
        <ele>795.2</ele>
        <time>2024-06-16T14:24:41Z</time>
      </trkpt>
      <trkpt lat="42.8893" lon="1.17998">
        <ele>794.8</ele>
        <time>2024-06-16T14:24:44Z</time>
      </trkpt>
      <trkpt lat="42.88927" lon="1.18">
        <ele>794.4</ele>
        <time>2024-06-16T14:24:45Z</time>
      </trkpt>
      <trkpt lat="42.88925" lon="1.18">
        <ele>793.6</ele>
        <time>2024-06-16T14:24:46Z</time>
      </trkpt>
      <trkpt lat="42.88922" lon="1.18001">
        <ele>793.2</ele>
        <time>2024-06-16T14:24:47Z</time>
      </trkpt>
      <trkpt lat="42.88916" lon="1.18004">
        <ele>793.2</ele>
        <time>2024-06-16T14:24:51Z</time>
      </trkpt>
      <trkpt lat="42.88911" lon="1.18004">
        <ele>792.6</ele>
        <time>2024-06-16T14:24:53Z</time>
      </trkpt>
      <trkpt lat="42.88908" lon="1.18003">
        <ele>792.2</ele>
        <time>2024-06-16T14:24:54Z</time>
      </trkpt>
      <trkpt lat="42.88905" lon="1.18003">
        <ele>791.8</ele>
        <time>2024-06-16T14:24:55Z</time>
      </trkpt>
      <trkpt lat="42.88901" lon="1.18004">
        <ele>791.2</ele>
        <time>2024-06-16T14:24:56Z</time>
      </trkpt>
      <trkpt lat="42.88897" lon="1.18005">
        <ele>790.8</ele>
        <time>2024-06-16T14:24:57Z</time>
      </trkpt>
      <trkpt lat="42.88894" lon="1.18006">
        <ele>790.2</ele>
        <time>2024-06-16T14:24:58Z</time>
      </trkpt>
      <trkpt lat="42.8889" lon="1.18008">
        <ele>789.8</ele>
        <time>2024-06-16T14:24:59Z</time>
      </trkpt>
      <trkpt lat="42.88887" lon="1.1801">
        <ele>789.2</ele>
        <time>2024-06-16T14:25:00Z</time>
      </trkpt>
      <trkpt lat="42.88883" lon="1.18014">
        <ele>788.8</ele>
        <time>2024-06-16T14:25:01Z</time>
      </trkpt>
      <trkpt lat="42.88879" lon="1.18018">
        <ele>788.2</ele>
        <time>2024-06-16T14:25:02Z</time>
      </trkpt>
      <trkpt lat="42.88874" lon="1.18022">
        <ele>787.6</ele>
        <time>2024-06-16T14:25:03Z</time>
      </trkpt>
      <trkpt lat="42.8887" lon="1.18027">
        <ele>787</ele>
        <time>2024-06-16T14:25:04Z</time>
      </trkpt>
      <trkpt lat="42.88866" lon="1.18031">
        <ele>786.4</ele>
        <time>2024-06-16T14:25:05Z</time>
      </trkpt>
      <trkpt lat="42.88862" lon="1.18033">
        <ele>785.8</ele>
        <time>2024-06-16T14:25:06Z</time>
      </trkpt>
      <trkpt lat="42.8885" lon="1.18041">
        <ele>785.8</ele>
        <time>2024-06-16T14:25:09Z</time>
      </trkpt>
      <trkpt lat="42.88828" lon="1.18059">
        <ele>785.8</ele>
        <time>2024-06-16T14:25:14Z</time>
      </trkpt>
      <trkpt lat="42.88824" lon="1.18063">
        <ele>785.4</ele>
        <time>2024-06-16T14:25:15Z</time>
      </trkpt>
      <trkpt lat="42.88821" lon="1.18066">
        <ele>785</ele>
        <time>2024-06-16T14:25:16Z</time>
      </trkpt>
      <trkpt lat="42.88818" lon="1.1807">
        <ele>784.4</ele>
        <time>2024-06-16T14:25:17Z</time>
      </trkpt>
      <trkpt lat="42.88814" lon="1.18073">
        <ele>784</ele>
        <time>2024-06-16T14:25:18Z</time>
      </trkpt>
      <trkpt lat="42.88811" lon="1.18078">
        <ele>783.6</ele>
        <time>2024-06-16T14:25:19Z</time>
      </trkpt>
      <trkpt lat="42.88808" lon="1.18083">
        <ele>783.2</ele>
        <time>2024-06-16T14:25:20Z</time>
      </trkpt>
      <trkpt lat="42.88803" lon="1.18087">
        <ele>782.8</ele>
        <time>2024-06-16T14:25:21Z</time>
      </trkpt>
      <trkpt lat="42.88798" lon="1.18092">
        <ele>782.2</ele>
        <time>2024-06-16T14:25:22Z</time>
      </trkpt>
      <trkpt lat="42.88794" lon="1.18096">
        <ele>781.6</ele>
        <time>2024-06-16T14:25:23Z</time>
      </trkpt>
      <trkpt lat="42.88789" lon="1.18096">
        <ele>781</ele>
        <time>2024-06-16T14:25:24Z</time>
      </trkpt>
      <trkpt lat="42.88785" lon="1.18097">
        <ele>780.4</ele>
        <time>2024-06-16T14:25:25Z</time>
      </trkpt>
      <trkpt lat="42.8878" lon="1.18098">
        <ele>779.8</ele>
        <time>2024-06-16T14:25:26Z</time>
      </trkpt>
      <trkpt lat="42.88775" lon="1.18097">
        <ele>779.2</ele>
        <time>2024-06-16T14:25:27Z</time>
      </trkpt>
      <trkpt lat="42.88771" lon="1.18096">
        <ele>778.6</ele>
        <time>2024-06-16T14:25:28Z</time>
      </trkpt>
      <trkpt lat="42.88767" lon="1.18095">
        <ele>778</ele>
        <time>2024-06-16T14:25:29Z</time>
      </trkpt>
      <trkpt lat="42.88764" lon="1.18093">
        <ele>777.4</ele>
        <time>2024-06-16T14:25:30Z</time>
      </trkpt>
      <trkpt lat="42.88762" lon="1.18089">
        <ele>776.8</ele>
        <time>2024-06-16T14:25:31Z</time>
      </trkpt>
      <trkpt lat="42.88759" lon="1.18088">
        <ele>776.2</ele>
        <time>2024-06-16T14:25:32Z</time>
      </trkpt>
      <trkpt lat="42.88754" lon="1.18088">
        <ele>775.6</ele>
        <time>2024-06-16T14:25:33Z</time>
      </trkpt>
      <trkpt lat="42.8875" lon="1.18088">
        <ele>774.8</ele>
        <time>2024-06-16T14:25:34Z</time>
      </trkpt>
      <trkpt lat="42.88746" lon="1.18088">
        <ele>773.8</ele>
        <time>2024-06-16T14:25:35Z</time>
      </trkpt>
      <trkpt lat="42.88742" lon="1.18087">
        <ele>772</ele>
        <time>2024-06-16T14:25:36Z</time>
      </trkpt>
      <trkpt lat="42.88737" lon="1.18087">
        <ele>771</ele>
        <time>2024-06-16T14:25:37Z</time>
      </trkpt>
      <trkpt lat="42.88733" lon="1.18087">
        <ele>769.8</ele>
        <time>2024-06-16T14:25:38Z</time>
      </trkpt>
      <trkpt lat="42.8873" lon="1.18087">
        <ele>768.8</ele>
        <time>2024-06-16T14:25:39Z</time>
      </trkpt>
      <trkpt lat="42.88727" lon="1.18087">
        <ele>768</ele>
        <time>2024-06-16T14:25:40Z</time>
      </trkpt>
      <trkpt lat="42.88724" lon="1.18087">
        <ele>767</ele>
        <time>2024-06-16T14:25:41Z</time>
      </trkpt>
      <trkpt lat="42.88718" lon="1.18088">
        <ele>766</ele>
        <time>2024-06-16T14:25:42Z</time>
      </trkpt>
      <trkpt lat="42.88714" lon="1.18088">
        <ele>765.2</ele>
        <time>2024-06-16T14:25:43Z</time>
      </trkpt>
      <trkpt lat="42.88711" lon="1.18088">
        <ele>764.2</ele>
        <time>2024-06-16T14:25:44Z</time>
      </trkpt>
      <trkpt lat="42.88695" lon="1.18091">
        <ele>764.2</ele>
        <time>2024-06-16T14:25:49Z</time>
      </trkpt>
      <trkpt lat="42.88681" lon="1.18098">
        <ele>763.8</ele>
        <time>2024-06-16T14:25:54Z</time>
      </trkpt>
      <trkpt lat="42.88679" lon="1.181">
        <ele>763.4</ele>
        <time>2024-06-16T14:25:55Z</time>
      </trkpt>
      <trkpt lat="42.88677" lon="1.18102">
        <ele>763</ele>
        <time>2024-06-16T14:25:56Z</time>
      </trkpt>
      <trkpt lat="42.88674" lon="1.18103">
        <ele>762.6</ele>
        <time>2024-06-16T14:25:57Z</time>
      </trkpt>
      <trkpt lat="42.88672" lon="1.18104">
        <ele>762.2</ele>
        <time>2024-06-16T14:25:58Z</time>
      </trkpt>
      <trkpt lat="42.88667" lon="1.18107">
        <ele>762.2</ele>
        <time>2024-06-16T14:26:00Z</time>
      </trkpt>
      <trkpt lat="42.88656" lon="1.18112">
        <ele>762.2</ele>
        <time>2024-06-16T14:26:07Z</time>
      </trkpt>
      <trkpt lat="42.88656" lon="1.18114">
        <ele>762.2</ele>
        <time>2024-06-16T14:27:20Z</time>
      </trkpt>
      <trkpt lat="42.88654" lon="1.18119">
        <ele>762.2</ele>
        <time>2024-06-16T14:27:22Z</time>
      </trkpt>
      <trkpt lat="42.88651" lon="1.18126">
        <ele>761.8</ele>
        <time>2024-06-16T14:27:24Z</time>
      </trkpt>
      <trkpt lat="42.88649" lon="1.18129">
        <ele>761.2</ele>
        <time>2024-06-16T14:27:25Z</time>
      </trkpt>
      <trkpt lat="42.88647" lon="1.18133">
        <ele>760.8</ele>
        <time>2024-06-16T14:27:26Z</time>
      </trkpt>
      <trkpt lat="42.88644" lon="1.18136">
        <ele>760.4</ele>
        <time>2024-06-16T14:27:27Z</time>
      </trkpt>
      <trkpt lat="42.88642" lon="1.18139">
        <ele>760</ele>
        <time>2024-06-16T14:27:28Z</time>
      </trkpt>
      <trkpt lat="42.88635" lon="1.18146">
        <ele>760</ele>
        <time>2024-06-16T14:27:31Z</time>
      </trkpt>
      <trkpt lat="42.88625" lon="1.18157">
        <ele>760</ele>
        <time>2024-06-16T14:27:36Z</time>
      </trkpt>
      <trkpt lat="42.88609" lon="1.18172">
        <ele>760</ele>
        <time>2024-06-16T14:27:42Z</time>
      </trkpt>
      <trkpt lat="42.88608" lon="1.18178">
        <ele>759.4</ele>
        <time>2024-06-16T14:27:45Z</time>
      </trkpt>
      <trkpt lat="42.88608" lon="1.18181">
        <ele>758.8</ele>
        <time>2024-06-16T14:27:46Z</time>
      </trkpt>
      <trkpt lat="42.88609" lon="1.18184">
        <ele>758.4</ele>
        <time>2024-06-16T14:27:47Z</time>
      </trkpt>
      <trkpt lat="42.88611" lon="1.18186">
        <ele>757.8</ele>
        <time>2024-06-16T14:27:48Z</time>
      </trkpt>
      <trkpt lat="42.88613" lon="1.18186">
        <ele>757</ele>
        <time>2024-06-16T14:27:49Z</time>
      </trkpt>
      <trkpt lat="42.88614" lon="1.18186">
        <ele>756.4</ele>
        <time>2024-06-16T14:27:50Z</time>
      </trkpt>
      <trkpt lat="42.88614" lon="1.18186">
        <ele>755.8</ele>
        <time>2024-06-16T14:27:51Z</time>
      </trkpt>
      <trkpt lat="42.88614" lon="1.18187">
        <ele>755.2</ele>
        <time>2024-06-16T14:27:52Z</time>
      </trkpt>
      <trkpt lat="42.88607" lon="1.1819">
        <ele>755.2</ele>
        <time>2024-06-16T14:28:42Z</time>
      </trkpt>
      <trkpt lat="42.88606" lon="1.18191">
        <ele>755.2</ele>
        <time>2024-06-16T14:28:43Z</time>
      </trkpt>
      <trkpt lat="42.88595" lon="1.1819">
        <ele>755.2</ele>
        <time>2024-06-16T14:28:47Z</time>
      </trkpt>
      <trkpt lat="42.88591" lon="1.18186">
        <ele>755.2</ele>
        <time>2024-06-16T14:28:48Z</time>
      </trkpt>
      <trkpt lat="42.88588" lon="1.18181">
        <ele>754.6</ele>
        <time>2024-06-16T14:28:49Z</time>
      </trkpt>
      <trkpt lat="42.88584" lon="1.18176">
        <ele>754.2</ele>
        <time>2024-06-16T14:28:50Z</time>
      </trkpt>
      <trkpt lat="42.88579" lon="1.18171">
        <ele>753.6</ele>
        <time>2024-06-16T14:28:51Z</time>
      </trkpt>
      <trkpt lat="42.88575" lon="1.18167">
        <ele>753</ele>
        <time>2024-06-16T14:28:52Z</time>
      </trkpt>
      <trkpt lat="42.88571" lon="1.18163">
        <ele>751.8</ele>
        <time>2024-06-16T14:28:53Z</time>
      </trkpt>
      <trkpt lat="42.88567" lon="1.18159">
        <ele>751</ele>
        <time>2024-06-16T14:28:54Z</time>
      </trkpt>
      <trkpt lat="42.88562" lon="1.18155">
        <ele>750.4</ele>
        <time>2024-06-16T14:28:55Z</time>
      </trkpt>
      <trkpt lat="42.88556" lon="1.18152">
        <ele>749.6</ele>
        <time>2024-06-16T14:28:56Z</time>
      </trkpt>
      <trkpt lat="42.8855" lon="1.1815">
        <ele>748.8</ele>
        <time>2024-06-16T14:28:57Z</time>
      </trkpt>
      <trkpt lat="42.88544" lon="1.1815">
        <ele>748</ele>
        <time>2024-06-16T14:28:58Z</time>
      </trkpt>
      <trkpt lat="42.88539" lon="1.18151">
        <ele>747.2</ele>
        <time>2024-06-16T14:28:59Z</time>
      </trkpt>
      <trkpt lat="42.88534" lon="1.18151">
        <ele>746.2</ele>
        <time>2024-06-16T14:29:00Z</time>
      </trkpt>
      <trkpt lat="42.88529" lon="1.18153">
        <ele>745.4</ele>
        <time>2024-06-16T14:29:01Z</time>
      </trkpt>
      <trkpt lat="42.88524" lon="1.18154">
        <ele>744.4</ele>
        <time>2024-06-16T14:29:02Z</time>
      </trkpt>
      <trkpt lat="42.8852" lon="1.18155">
        <ele>743.6</ele>
        <time>2024-06-16T14:29:03Z</time>
      </trkpt>
      <trkpt lat="42.88515" lon="1.18157">
        <ele>742.8</ele>
        <time>2024-06-16T14:29:04Z</time>
      </trkpt>
      <trkpt lat="42.88509" lon="1.1816">
        <ele>741.8</ele>
        <time>2024-06-16T14:29:05Z</time>
      </trkpt>
      <trkpt lat="42.88503" lon="1.18164">
        <ele>741</ele>
        <time>2024-06-16T14:29:06Z</time>
      </trkpt>
      <trkpt lat="42.88497" lon="1.18169">
        <ele>740.2</ele>
        <time>2024-06-16T14:29:07Z</time>
      </trkpt>
      <trkpt lat="42.8849" lon="1.18174">
        <ele>739.2</ele>
        <time>2024-06-16T14:29:08Z</time>
      </trkpt>
      <trkpt lat="42.88483" lon="1.18178">
        <ele>738.4</ele>
        <time>2024-06-16T14:29:09Z</time>
      </trkpt>
      <trkpt lat="42.88476" lon="1.18181">
        <ele>737.4</ele>
        <time>2024-06-16T14:29:10Z</time>
      </trkpt>
      <trkpt lat="42.88468" lon="1.18184">
        <ele>736.4</ele>
        <time>2024-06-16T14:29:11Z</time>
      </trkpt>
      <trkpt lat="42.88461" lon="1.18187">
        <ele>735.4</ele>
        <time>2024-06-16T14:29:12Z</time>
      </trkpt>
      <trkpt lat="42.88453" lon="1.1819">
        <ele>734.4</ele>
        <time>2024-06-16T14:29:13Z</time>
      </trkpt>
      <trkpt lat="42.88446" lon="1.18196">
        <ele>733.4</ele>
        <time>2024-06-16T14:29:14Z</time>
      </trkpt>
      <trkpt lat="42.88438" lon="1.18203">
        <ele>732.4</ele>
        <time>2024-06-16T14:29:15Z</time>
      </trkpt>
      <trkpt lat="42.8843" lon="1.18212">
        <ele>731.4</ele>
        <time>2024-06-16T14:29:16Z</time>
      </trkpt>
      <trkpt lat="42.88423" lon="1.18219">
        <ele>730.2</ele>
        <time>2024-06-16T14:29:17Z</time>
      </trkpt>
      <trkpt lat="42.88414" lon="1.18226">
        <ele>728.2</ele>
        <time>2024-06-16T14:29:18Z</time>
      </trkpt>
      <trkpt lat="42.88406" lon="1.18232">
        <ele>727.2</ele>
        <time>2024-06-16T14:29:19Z</time>
      </trkpt>
      <trkpt lat="42.88398" lon="1.18238">
        <ele>726.2</ele>
        <time>2024-06-16T14:29:20Z</time>
      </trkpt>
      <trkpt lat="42.8839" lon="1.18244">
        <ele>725.4</ele>
        <time>2024-06-16T14:29:21Z</time>
      </trkpt>
      <trkpt lat="42.88382" lon="1.18249">
        <ele>724.4</ele>
        <time>2024-06-16T14:29:22Z</time>
      </trkpt>
      <trkpt lat="42.88361" lon="1.18264">
        <ele>724.4</ele>
        <time>2024-06-16T14:29:25Z</time>
      </trkpt>
      <trkpt lat="42.88338" lon="1.18279">
        <ele>724.4</ele>
        <time>2024-06-16T14:29:29Z</time>
      </trkpt>
      <trkpt lat="42.88326" lon="1.18287">
        <ele>724.4</ele>
        <time>2024-06-16T14:29:33Z</time>
      </trkpt>
      <trkpt lat="42.88311" lon="1.18296">
        <ele>724.4</ele>
        <time>2024-06-16T14:29:39Z</time>
      </trkpt>
      <trkpt lat="42.88301" lon="1.18304">
        <ele>724.8</ele>
        <time>2024-06-16T14:29:43Z</time>
      </trkpt>
      <trkpt lat="42.88298" lon="1.18305">
        <ele>725.2</ele>
        <time>2024-06-16T14:29:44Z</time>
      </trkpt>
      <trkpt lat="42.88296" lon="1.18307">
        <ele>725.6</ele>
        <time>2024-06-16T14:29:45Z</time>
      </trkpt>
      <trkpt lat="42.88294" lon="1.1831">
        <ele>726</ele>
        <time>2024-06-16T14:29:46Z</time>
      </trkpt>
      <trkpt lat="42.88292" lon="1.18312">
        <ele>726.4</ele>
        <time>2024-06-16T14:29:47Z</time>
      </trkpt>
      <trkpt lat="42.88288" lon="1.18316">
        <ele>726.4</ele>
        <time>2024-06-16T14:29:49Z</time>
      </trkpt>
      <trkpt lat="42.88276" lon="1.18331">
        <ele>726.8</ele>
        <time>2024-06-16T14:29:55Z</time>
      </trkpt>
      <trkpt lat="42.88274" lon="1.18333">
        <ele>727.2</ele>
        <time>2024-06-16T14:29:56Z</time>
      </trkpt>
      <trkpt lat="42.88272" lon="1.18337">
        <ele>727.6</ele>
        <time>2024-06-16T14:29:57Z</time>
      </trkpt>
      <trkpt lat="42.8827" lon="1.1834">
        <ele>728</ele>
        <time>2024-06-16T14:29:58Z</time>
      </trkpt>
      <trkpt lat="42.88268" lon="1.18344">
        <ele>728.4</ele>
        <time>2024-06-16T14:29:59Z</time>
      </trkpt>
      <trkpt lat="42.88265" lon="1.18351">
        <ele>728.4</ele>
        <time>2024-06-16T14:30:01Z</time>
      </trkpt>
      <trkpt lat="42.88256" lon="1.18375">
        <ele>728.4</ele>
        <time>2024-06-16T14:30:06Z</time>
      </trkpt>
      <trkpt lat="42.8825" lon="1.18385">
        <ele>728.4</ele>
        <time>2024-06-16T14:30:08Z</time>
      </trkpt>
      <trkpt lat="42.88238" lon="1.18404">
        <ele>728.4</ele>
        <time>2024-06-16T14:30:11Z</time>
      </trkpt>
      <trkpt lat="42.88227" lon="1.18419">
        <ele>728</ele>
        <time>2024-06-16T14:30:13Z</time>
      </trkpt>
      <trkpt lat="42.88221" lon="1.18427">
        <ele>727.6</ele>
        <time>2024-06-16T14:30:14Z</time>
      </trkpt>
      <trkpt lat="42.88215" lon="1.18435">
        <ele>727</ele>
        <time>2024-06-16T14:30:15Z</time>
      </trkpt>
      <trkpt lat="42.8821" lon="1.18442">
        <ele>726.4</ele>
        <time>2024-06-16T14:30:16Z</time>
      </trkpt>
      <trkpt lat="42.88204" lon="1.1845">
        <ele>725.6</ele>
        <time>2024-06-16T14:30:17Z</time>
      </trkpt>
      <trkpt lat="42.88199" lon="1.18459">
        <ele>725</ele>
        <time>2024-06-16T14:30:18Z</time>
      </trkpt>
      <trkpt lat="42.88194" lon="1.18466">
        <ele>724.2</ele>
        <time>2024-06-16T14:30:19Z</time>
      </trkpt>
      <trkpt lat="42.88191" lon="1.18473">
        <ele>723.4</ele>
        <time>2024-06-16T14:30:20Z</time>
      </trkpt>
      <trkpt lat="42.88189" lon="1.1848">
        <ele>722.8</ele>
        <time>2024-06-16T14:30:21Z</time>
      </trkpt>
      <trkpt lat="42.8819" lon="1.18486">
        <ele>722</ele>
        <time>2024-06-16T14:30:22Z</time>
      </trkpt>
      <trkpt lat="42.88189" lon="1.18491">
        <ele>721.2</ele>
        <time>2024-06-16T14:30:23Z</time>
      </trkpt>
      <trkpt lat="42.88189" lon="1.18496">
        <ele>721.2</ele>
        <time>2024-06-16T14:30:24Z</time>
      </trkpt>
      <trkpt lat="42.88181" lon="1.18501">
        <ele>721.2</ele>
        <time>2024-06-16T14:30:27Z</time>
      </trkpt>
      <trkpt lat="42.88171" lon="1.18511">
        <ele>721.2</ele>
        <time>2024-06-16T14:30:31Z</time>
      </trkpt>
      <trkpt lat="42.88163" lon="1.1852">
        <ele>721.6</ele>
        <time>2024-06-16T14:30:34Z</time>
      </trkpt>
      <trkpt lat="42.8816" lon="1.18522">
        <ele>722</ele>
        <time>2024-06-16T14:30:35Z</time>
      </trkpt>
      <trkpt lat="42.88157" lon="1.18525">
        <ele>722.4</ele>
        <time>2024-06-16T14:30:36Z</time>
      </trkpt>
      <trkpt lat="42.88155" lon="1.18527">
        <ele>722.8</ele>
        <time>2024-06-16T14:30:37Z</time>
      </trkpt>
      <trkpt lat="42.88153" lon="1.18529">
        <ele>723.2</ele>
        <time>2024-06-16T14:30:38Z</time>
      </trkpt>
      <trkpt lat="42.88149" lon="1.18532">
        <ele>723.2</ele>
        <time>2024-06-16T14:30:39Z</time>
      </trkpt>
      <trkpt lat="42.88145" lon="1.18535">
        <ele>723.2</ele>
        <time>2024-06-16T14:30:40Z</time>
      </trkpt>
      <trkpt lat="42.8813" lon="1.18549">
        <ele>723.2</ele>
        <time>2024-06-16T14:30:44Z</time>
      </trkpt>
      <trkpt lat="42.88126" lon="1.18553">
        <ele>723.2</ele>
        <time>2024-06-16T14:30:45Z</time>
      </trkpt>
      <trkpt lat="42.88114" lon="1.18564">
        <ele>722.8</ele>
        <time>2024-06-16T14:30:48Z</time>
      </trkpt>
      <trkpt lat="42.8811" lon="1.18567">
        <ele>722.4</ele>
        <time>2024-06-16T14:30:49Z</time>
      </trkpt>
      <trkpt lat="42.88106" lon="1.1857">
        <ele>722</ele>
        <time>2024-06-16T14:30:50Z</time>
      </trkpt>
      <trkpt lat="42.88102" lon="1.18573">
        <ele>721.6</ele>
        <time>2024-06-16T14:30:51Z</time>
      </trkpt>
      <trkpt lat="42.88099" lon="1.18575">
        <ele>721.2</ele>
        <time>2024-06-16T14:30:52Z</time>
      </trkpt>
      <trkpt lat="42.88082" lon="1.18583">
        <ele>721.2</ele>
        <time>2024-06-16T14:30:57Z</time>
      </trkpt>
      <trkpt lat="42.88063" lon="1.18593">
        <ele>721.2</ele>
        <time>2024-06-16T14:31:02Z</time>
      </trkpt>
      <trkpt lat="42.88059" lon="1.18596">
        <ele>721.2</ele>
        <time>2024-06-16T14:31:03Z</time>
      </trkpt>
      <trkpt lat="42.88045" lon="1.18607">
        <ele>721.2</ele>
        <time>2024-06-16T14:31:08Z</time>
      </trkpt>
      <trkpt lat="42.88032" lon="1.18619">
        <ele>721.2</ele>
        <time>2024-06-16T14:31:12Z</time>
      </trkpt>
      <trkpt lat="42.88026" lon="1.18626">
        <ele>721.2</ele>
        <time>2024-06-16T14:31:14Z</time>
      </trkpt>
      <trkpt lat="42.88019" lon="1.18633">
        <ele>721.2</ele>
        <time>2024-06-16T14:31:16Z</time>
      </trkpt>
      <trkpt lat="42.87999" lon="1.18653">
        <ele>721.2</ele>
        <time>2024-06-16T14:31:22Z</time>
      </trkpt>
      <trkpt lat="42.87981" lon="1.18678">
        <ele>721.2</ele>
        <time>2024-06-16T14:31:28Z</time>
      </trkpt>
      <trkpt lat="42.8797" lon="1.18706">
        <ele>721.2</ele>
        <time>2024-06-16T14:31:33Z</time>
      </trkpt>
      <trkpt lat="42.87968" lon="1.18711">
        <ele>721.2</ele>
        <time>2024-06-16T14:31:34Z</time>
      </trkpt>
      <trkpt lat="42.8796" lon="1.18724">
        <ele>721.2</ele>
        <time>2024-06-16T14:31:37Z</time>
      </trkpt>
      <trkpt lat="42.87957" lon="1.18729">
        <ele>721.2</ele>
        <time>2024-06-16T14:31:38Z</time>
      </trkpt>
      <trkpt lat="42.87946" lon="1.18745">
        <ele>720.8</ele>
        <time>2024-06-16T14:31:41Z</time>
      </trkpt>
      <trkpt lat="42.87942" lon="1.18751">
        <ele>720.4</ele>
        <time>2024-06-16T14:31:42Z</time>
      </trkpt>
      <trkpt lat="42.8794" lon="1.18756">
        <ele>719.8</ele>
        <time>2024-06-16T14:31:43Z</time>
      </trkpt>
      <trkpt lat="42.87937" lon="1.18761">
        <ele>719.4</ele>
        <time>2024-06-16T14:31:44Z</time>
      </trkpt>
      <trkpt lat="42.87935" lon="1.18766">
        <ele>718.4</ele>
        <time>2024-06-16T14:31:45Z</time>
      </trkpt>
      <trkpt lat="42.87935" lon="1.1877">
        <ele>717.8</ele>
        <time>2024-06-16T14:31:46Z</time>
      </trkpt>
      <trkpt lat="42.87934" lon="1.18772">
        <ele>717.2</ele>
        <time>2024-06-16T14:31:47Z</time>
      </trkpt>
      <trkpt lat="42.87933" lon="1.18774">
        <ele>716.8</ele>
        <time>2024-06-16T14:31:48Z</time>
      </trkpt>
      <trkpt lat="42.8793" lon="1.18778">
        <ele>716.4</ele>
        <time>2024-06-16T14:31:50Z</time>
      </trkpt>
      <trkpt lat="42.87928" lon="1.18779">
        <ele>715.8</ele>
        <time>2024-06-16T14:31:51Z</time>
      </trkpt>
      <trkpt lat="42.87925" lon="1.18782">
        <ele>715.4</ele>
        <time>2024-06-16T14:31:52Z</time>
      </trkpt>
      <trkpt lat="42.87921" lon="1.18784">
        <ele>714.8</ele>
        <time>2024-06-16T14:31:53Z</time>
      </trkpt>
      <trkpt lat="42.87918" lon="1.18786">
        <ele>714</ele>
        <time>2024-06-16T14:31:54Z</time>
      </trkpt>
      <trkpt lat="42.87913" lon="1.18788">
        <ele>713.2</ele>
        <time>2024-06-16T14:31:55Z</time>
      </trkpt>
      <trkpt lat="42.87907" lon="1.18789">
        <ele>712.2</ele>
        <time>2024-06-16T14:31:56Z</time>
      </trkpt>
      <trkpt lat="42.87901" lon="1.18791">
        <ele>711.2</ele>
        <time>2024-06-16T14:31:57Z</time>
      </trkpt>
      <trkpt lat="42.87895" lon="1.18794">
        <ele>710.2</ele>
        <time>2024-06-16T14:31:58Z</time>
      </trkpt>
      <trkpt lat="42.87889" lon="1.18795">
        <ele>709.2</ele>
        <time>2024-06-16T14:31:59Z</time>
      </trkpt>
      <trkpt lat="42.87884" lon="1.18796">
        <ele>708.2</ele>
        <time>2024-06-16T14:32:00Z</time>
      </trkpt>
      <trkpt lat="42.87879" lon="1.18798">
        <ele>707.2</ele>
        <time>2024-06-16T14:32:01Z</time>
      </trkpt>
      <trkpt lat="42.87873" lon="1.18799">
        <ele>706</ele>
        <time>2024-06-16T14:32:02Z</time>
      </trkpt>
      <trkpt lat="42.87869" lon="1.18801">
        <ele>705</ele>
        <time>2024-06-16T14:32:03Z</time>
      </trkpt>
      <trkpt lat="42.87864" lon="1.18803">
        <ele>704</ele>
        <time>2024-06-16T14:32:04Z</time>
      </trkpt>
      <trkpt lat="42.87858" lon="1.18804">
        <ele>703.2</ele>
        <time>2024-06-16T14:32:05Z</time>
      </trkpt>
      <trkpt lat="42.87852" lon="1.18806">
        <ele>702.2</ele>
        <time>2024-06-16T14:32:06Z</time>
      </trkpt>
      <trkpt lat="42.87846" lon="1.18807">
        <ele>701.2</ele>
        <time>2024-06-16T14:32:07Z</time>
      </trkpt>
      <trkpt lat="42.87841" lon="1.18807">
        <ele>700</ele>
        <time>2024-06-16T14:32:08Z</time>
      </trkpt>
      <trkpt lat="42.87836" lon="1.18807">
        <ele>699</ele>
        <time>2024-06-16T14:32:09Z</time>
      </trkpt>
      <trkpt lat="42.87831" lon="1.18806">
        <ele>696.8</ele>
        <time>2024-06-16T14:32:10Z</time>
      </trkpt>
      <trkpt lat="42.87826" lon="1.18807">
        <ele>695.8</ele>
        <time>2024-06-16T14:32:11Z</time>
      </trkpt>
      <trkpt lat="42.87821" lon="1.1881">
        <ele>694.6</ele>
        <time>2024-06-16T14:32:12Z</time>
      </trkpt>
      <trkpt lat="42.87813" lon="1.18812">
        <ele>693.6</ele>
        <time>2024-06-16T14:32:13Z</time>
      </trkpt>
      <trkpt lat="42.87805" lon="1.18812">
        <ele>692.4</ele>
        <time>2024-06-16T14:32:14Z</time>
      </trkpt>
      <trkpt lat="42.87797" lon="1.18811">
        <ele>691.2</ele>
        <time>2024-06-16T14:32:15Z</time>
      </trkpt>
      <trkpt lat="42.8779" lon="1.18809">
        <ele>690</ele>
        <time>2024-06-16T14:32:16Z</time>
      </trkpt>
      <trkpt lat="42.87784" lon="1.18806">
        <ele>688.8</ele>
        <time>2024-06-16T14:32:17Z</time>
      </trkpt>
      <trkpt lat="42.87778" lon="1.18802">
        <ele>687.6</ele>
        <time>2024-06-16T14:32:18Z</time>
      </trkpt>
      <trkpt lat="42.87773" lon="1.18798">
        <ele>687</ele>
        <time>2024-06-16T14:32:19Z</time>
      </trkpt>
      <trkpt lat="42.87767" lon="1.18796">
        <ele>686.4</ele>
        <time>2024-06-16T14:32:20Z</time>
      </trkpt>
      <trkpt lat="42.87761" lon="1.18795">
        <ele>685.6</ele>
        <time>2024-06-16T14:32:21Z</time>
      </trkpt>
      <trkpt lat="42.87755" lon="1.18794">
        <ele>685</ele>
        <time>2024-06-16T14:32:22Z</time>
      </trkpt>
      <trkpt lat="42.87749" lon="1.18793">
        <ele>684.4</ele>
        <time>2024-06-16T14:32:23Z</time>
      </trkpt>
      <trkpt lat="42.87742" lon="1.18793">
        <ele>683.8</ele>
        <time>2024-06-16T14:32:24Z</time>
      </trkpt>
      <trkpt lat="42.87736" lon="1.18793">
        <ele>683.4</ele>
        <time>2024-06-16T14:32:25Z</time>
      </trkpt>
      <trkpt lat="42.8773" lon="1.18793">
        <ele>682.8</ele>
        <time>2024-06-16T14:32:26Z</time>
      </trkpt>
      <trkpt lat="42.87723" lon="1.18793">
        <ele>682.2</ele>
        <time>2024-06-16T14:32:27Z</time>
      </trkpt>
      <trkpt lat="42.87717" lon="1.18793">
        <ele>681.8</ele>
        <time>2024-06-16T14:32:28Z</time>
      </trkpt>
      <trkpt lat="42.8771" lon="1.18794">
        <ele>681.4</ele>
        <time>2024-06-16T14:32:29Z</time>
      </trkpt>
      <trkpt lat="42.87704" lon="1.18795">
        <ele>680.8</ele>
        <time>2024-06-16T14:32:30Z</time>
      </trkpt>
      <trkpt lat="42.87698" lon="1.18796">
        <ele>680.4</ele>
        <time>2024-06-16T14:32:31Z</time>
      </trkpt>
      <trkpt lat="42.87691" lon="1.18797">
        <ele>680</ele>
        <time>2024-06-16T14:32:32Z</time>
      </trkpt>
      <trkpt lat="42.87685" lon="1.18798">
        <ele>680</ele>
        <time>2024-06-16T14:32:33Z</time>
      </trkpt>
      <trkpt lat="42.87648" lon="1.18806">
        <ele>680</ele>
        <time>2024-06-16T14:32:40Z</time>
      </trkpt>
      <trkpt lat="42.87631" lon="1.18809">
        <ele>680</ele>
        <time>2024-06-16T14:32:45Z</time>
      </trkpt>
      <trkpt lat="42.87616" lon="1.18815">
        <ele>680</ele>
        <time>2024-06-16T14:32:50Z</time>
      </trkpt>
      <trkpt lat="42.876" lon="1.18818">
        <ele>680</ele>
        <time>2024-06-16T14:32:54Z</time>
      </trkpt>
      <trkpt lat="42.87587" lon="1.18823">
        <ele>679.6</ele>
        <time>2024-06-16T14:32:57Z</time>
      </trkpt>
      <trkpt lat="42.87583" lon="1.18826">
        <ele>679.2</ele>
        <time>2024-06-16T14:32:58Z</time>
      </trkpt>
      <trkpt lat="42.87577" lon="1.18829">
        <ele>678.4</ele>
        <time>2024-06-16T14:32:59Z</time>
      </trkpt>
      <trkpt lat="42.87572" lon="1.18833">
        <ele>678</ele>
        <time>2024-06-16T14:33:00Z</time>
      </trkpt>
      <trkpt lat="42.8755" lon="1.18848">
        <ele>678</ele>
        <time>2024-06-16T14:33:05Z</time>
      </trkpt>
      <trkpt lat="42.87546" lon="1.1885">
        <ele>677.6</ele>
        <time>2024-06-16T14:33:06Z</time>
      </trkpt>
      <trkpt lat="42.87542" lon="1.18853">
        <ele>677.2</ele>
        <time>2024-06-16T14:33:07Z</time>
      </trkpt>
      <trkpt lat="42.87538" lon="1.18856">
        <ele>676.6</ele>
        <time>2024-06-16T14:33:08Z</time>
      </trkpt>
      <trkpt lat="42.87535" lon="1.18858">
        <ele>676.2</ele>
        <time>2024-06-16T14:33:09Z</time>
      </trkpt>
      <trkpt lat="42.87532" lon="1.18861">
        <ele>675.8</ele>
        <time>2024-06-16T14:33:10Z</time>
      </trkpt>
      <trkpt lat="42.87528" lon="1.18863">
        <ele>675.8</ele>
        <time>2024-06-16T14:33:11Z</time>
      </trkpt>
      <trkpt lat="42.8751" lon="1.18877">
        <ele>675.4</ele>
        <time>2024-06-16T14:33:17Z</time>
      </trkpt>
      <trkpt lat="42.87507" lon="1.18879">
        <ele>675</ele>
        <time>2024-06-16T14:33:18Z</time>
      </trkpt>
      <trkpt lat="42.87505" lon="1.18882">
        <ele>674.6</ele>
        <time>2024-06-16T14:33:19Z</time>
      </trkpt>
      <trkpt lat="42.87503" lon="1.18884">
        <ele>674.2</ele>
        <time>2024-06-16T14:33:20Z</time>
      </trkpt>
      <trkpt lat="42.87501" lon="1.18887">
        <ele>673.6</ele>
        <time>2024-06-16T14:33:21Z</time>
      </trkpt>
      <trkpt lat="42.875" lon="1.18889">
        <ele>673.6</ele>
        <time>2024-06-16T14:33:23Z</time>
      </trkpt>
      <trkpt lat="42.87499" lon="1.18889">
        <ele>673.6</ele>
        <time>2024-06-16T14:33:24Z</time>
      </trkpt>
      <trkpt lat="42.87498" lon="1.18893">
        <ele>673.6</ele>
        <time>2024-06-16T14:34:18Z</time>
      </trkpt>
      <trkpt lat="42.87496" lon="1.18897">
        <ele>673.6</ele>
        <time>2024-06-16T14:34:20Z</time>
      </trkpt>
      <trkpt lat="42.87491" lon="1.18903">
        <ele>673.6</ele>
        <time>2024-06-16T14:34:23Z</time>
      </trkpt>
      <trkpt lat="42.87489" lon="1.18904">
        <ele>673.2</ele>
        <time>2024-06-16T14:34:24Z</time>
      </trkpt>
      <trkpt lat="42.87487" lon="1.18904">
        <ele>672.8</ele>
        <time>2024-06-16T14:34:25Z</time>
      </trkpt>
      <trkpt lat="42.87486" lon="1.18905">
        <ele>672.2</ele>
        <time>2024-06-16T14:34:26Z</time>
      </trkpt>
      <trkpt lat="42.87485" lon="1.18905">
        <ele>671.8</ele>
        <time>2024-06-16T14:34:27Z</time>
      </trkpt>
      <trkpt lat="42.87485" lon="1.18907">
        <ele>671.4</ele>
        <time>2024-06-16T14:34:43Z</time>
      </trkpt>
      <trkpt lat="42.87479" lon="1.18922">
        <ele>671.4</ele>
        <time>2024-06-16T14:34:46Z</time>
      </trkpt>
      <trkpt lat="42.87477" lon="1.18928">
        <ele>671</ele>
        <time>2024-06-16T14:34:47Z</time>
      </trkpt>
      <trkpt lat="42.87474" lon="1.18934">
        <ele>670.4</ele>
        <time>2024-06-16T14:34:48Z</time>
      </trkpt>
      <trkpt lat="42.87471" lon="1.1894">
        <ele>670</ele>
        <time>2024-06-16T14:34:49Z</time>
      </trkpt>
      <trkpt lat="42.87468" lon="1.18945">
        <ele>669.6</ele>
        <time>2024-06-16T14:34:50Z</time>
      </trkpt>
      <trkpt lat="42.87465" lon="1.18949">
        <ele>669.2</ele>
        <time>2024-06-16T14:34:51Z</time>
      </trkpt>
      <trkpt lat="42.8746" lon="1.18954">
        <ele>669.2</ele>
        <time>2024-06-16T14:34:54Z</time>
      </trkpt>
      <trkpt lat="42.87459" lon="1.18956">
        <ele>669.2</ele>
        <time>2024-06-16T14:34:55Z</time>
      </trkpt>
      <trkpt lat="42.87449" lon="1.18971">
        <ele>669.2</ele>
        <time>2024-06-16T14:35:00Z</time>
      </trkpt>
      <trkpt lat="42.87437" lon="1.18993">
        <ele>669.2</ele>
        <time>2024-06-16T14:35:06Z</time>
      </trkpt>
      <trkpt lat="42.8743" lon="1.19001">
        <ele>669.2</ele>
        <time>2024-06-16T14:35:10Z</time>
      </trkpt>
      <trkpt lat="42.87425" lon="1.19004">
        <ele>669.6</ele>
        <time>2024-06-16T14:35:13Z</time>
      </trkpt>
      <trkpt lat="42.87424" lon="1.19006">
        <ele>670</ele>
        <time>2024-06-16T14:35:14Z</time>
      </trkpt>
      <trkpt lat="42.87422" lon="1.19008">
        <ele>670.4</ele>
        <time>2024-06-16T14:35:15Z</time>
      </trkpt>
      <trkpt lat="42.8742" lon="1.1901">
        <ele>670.8</ele>
        <time>2024-06-16T14:35:16Z</time>
      </trkpt>
      <trkpt lat="42.87418" lon="1.19012">
        <ele>671.2</ele>
        <time>2024-06-16T14:35:17Z</time>
      </trkpt>
      <trkpt lat="42.87412" lon="1.19015">
        <ele>671.8</ele>
        <time>2024-06-16T14:35:20Z</time>
      </trkpt>
      <trkpt lat="42.8741" lon="1.19016">
        <ele>672.2</ele>
        <time>2024-06-16T14:35:21Z</time>
      </trkpt>
      <trkpt lat="42.87408" lon="1.19016">
        <ele>672.6</ele>
        <time>2024-06-16T14:35:22Z</time>
      </trkpt>
      <trkpt lat="42.87406" lon="1.19016">
        <ele>673.2</ele>
        <time>2024-06-16T14:35:23Z</time>
      </trkpt>
      <trkpt lat="42.87404" lon="1.19016">
        <ele>673.8</ele>
        <time>2024-06-16T14:35:24Z</time>
      </trkpt>
      <trkpt lat="42.87403" lon="1.19017">
        <ele>674.4</ele>
        <time>2024-06-16T14:35:25Z</time>
      </trkpt>
      <trkpt lat="42.87402" lon="1.19019">
        <ele>675</ele>
        <time>2024-06-16T14:35:26Z</time>
      </trkpt>
      <trkpt lat="42.87401" lon="1.1902">
        <ele>675.6</ele>
        <time>2024-06-16T14:35:27Z</time>
      </trkpt>
      <trkpt lat="42.874" lon="1.19021">
        <ele>676.2</ele>
        <time>2024-06-16T14:35:28Z</time>
      </trkpt>
      <trkpt lat="42.87397" lon="1.19023">
        <ele>676.6</ele>
        <time>2024-06-16T14:35:31Z</time>
      </trkpt>
      <trkpt lat="42.87382" lon="1.19038">
        <ele>680.4</ele>
        <time>2024-06-16T14:39:57Z</time>
      </trkpt>
      <trkpt lat="42.87377" lon="1.19045">
        <ele>680.4</ele>
        <time>2024-06-16T14:40:01Z</time>
      </trkpt>
      <trkpt lat="42.87376" lon="1.19048">
        <ele>680.4</ele>
        <time>2024-06-16T14:40:02Z</time>
      </trkpt>
      <trkpt lat="42.87373" lon="1.19055">
        <ele>680.8</ele>
        <time>2024-06-16T14:40:05Z</time>
      </trkpt>
      <trkpt lat="42.87372" lon="1.19058">
        <ele>681.2</ele>
        <time>2024-06-16T14:40:06Z</time>
      </trkpt>
      <trkpt lat="42.8737" lon="1.1906">
        <ele>681.6</ele>
        <time>2024-06-16T14:40:07Z</time>
      </trkpt>
      <trkpt lat="42.87368" lon="1.19062">
        <ele>682</ele>
        <time>2024-06-16T14:40:08Z</time>
      </trkpt>
      <trkpt lat="42.87367" lon="1.19065">
        <ele>682.6</ele>
        <time>2024-06-16T14:40:09Z</time>
      </trkpt>
      <trkpt lat="42.87364" lon="1.19069">
        <ele>682.6</ele>
        <time>2024-06-16T14:40:11Z</time>
      </trkpt>
      <trkpt lat="42.87361" lon="1.19075">
        <ele>683</ele>
        <time>2024-06-16T14:40:13Z</time>
      </trkpt>
      <trkpt lat="42.8736" lon="1.19078">
        <ele>683.4</ele>
        <time>2024-06-16T14:40:14Z</time>
      </trkpt>
      <trkpt lat="42.87358" lon="1.19081">
        <ele>683.8</ele>
        <time>2024-06-16T14:40:15Z</time>
      </trkpt>
      <trkpt lat="42.87357" lon="1.19083">
        <ele>684.2</ele>
        <time>2024-06-16T14:40:16Z</time>
      </trkpt>
      <trkpt lat="42.87355" lon="1.19085">
        <ele>684.6</ele>
        <time>2024-06-16T14:40:17Z</time>
      </trkpt>
      <trkpt lat="42.87352" lon="1.19089">
        <ele>684.6</ele>
        <time>2024-06-16T14:40:19Z</time>
      </trkpt>
      <trkpt lat="42.87348" lon="1.19096">
        <ele>685</ele>
        <time>2024-06-16T14:40:21Z</time>
      </trkpt>
      <trkpt lat="42.87347" lon="1.19099">
        <ele>685.4</ele>
        <time>2024-06-16T14:40:22Z</time>
      </trkpt>
      <trkpt lat="42.87345" lon="1.19101">
        <ele>685.8</ele>
        <time>2024-06-16T14:40:23Z</time>
      </trkpt>
      <trkpt lat="42.87343" lon="1.19104">
        <ele>686.6</ele>
        <time>2024-06-16T14:40:24Z</time>
      </trkpt>
      <trkpt lat="42.87341" lon="1.19106">
        <ele>686.6</ele>
        <time>2024-06-16T14:40:25Z</time>
      </trkpt>
      <trkpt lat="42.8733" lon="1.19124">
        <ele>687</ele>
        <time>2024-06-16T14:40:32Z</time>
      </trkpt>
      <trkpt lat="42.87328" lon="1.19127">
        <ele>687.4</ele>
        <time>2024-06-16T14:40:33Z</time>
      </trkpt>
      <trkpt lat="42.87326" lon="1.19129">
        <ele>687.8</ele>
        <time>2024-06-16T14:40:34Z</time>
      </trkpt>
      <trkpt lat="42.87323" lon="1.19131">
        <ele>688.2</ele>
        <time>2024-06-16T14:40:35Z</time>
      </trkpt>
      <trkpt lat="42.87321" lon="1.19133">
        <ele>688.6</ele>
        <time>2024-06-16T14:40:36Z</time>
      </trkpt>
      <trkpt lat="42.87315" lon="1.19142">
        <ele>688.6</ele>
        <time>2024-06-16T14:40:39Z</time>
      </trkpt>
      <trkpt lat="42.873" lon="1.19165">
        <ele>688.6</ele>
        <time>2024-06-16T14:40:46Z</time>
      </trkpt>
      <trkpt lat="42.87279" lon="1.1918">
        <ele>688.6</ele>
        <time>2024-06-16T14:40:53Z</time>
      </trkpt>
      <trkpt lat="42.87262" lon="1.19191">
        <ele>688.6</ele>
        <time>2024-06-16T14:40:58Z</time>
      </trkpt>
      <trkpt lat="42.87258" lon="1.19194">
        <ele>688.6</ele>
        <time>2024-06-16T14:40:59Z</time>
      </trkpt>
      <trkpt lat="42.87244" lon="1.19207">
        <ele>688.2</ele>
        <time>2024-06-16T14:41:03Z</time>
      </trkpt>
      <trkpt lat="42.87242" lon="1.1921">
        <ele>687.8</ele>
        <time>2024-06-16T14:41:04Z</time>
      </trkpt>
      <trkpt lat="42.8724" lon="1.19213">
        <ele>687.4</ele>
        <time>2024-06-16T14:41:05Z</time>
      </trkpt>
      <trkpt lat="42.87238" lon="1.19215">
        <ele>686.8</ele>
        <time>2024-06-16T14:41:06Z</time>
      </trkpt>
      <trkpt lat="42.87238" lon="1.19215">
        <ele>686.4</ele>
        <time>2024-06-16T14:41:07Z</time>
      </trkpt>
      <trkpt lat="42.87235" lon="1.19219">
        <ele>684.2</ele>
        <time>2024-06-16T14:44:14Z</time>
      </trkpt>
      <trkpt lat="42.87232" lon="1.19224">
        <ele>684.2</ele>
        <time>2024-06-16T14:44:16Z</time>
      </trkpt>
      <trkpt lat="42.87221" lon="1.19241">
        <ele>684.2</ele>
        <time>2024-06-16T14:44:22Z</time>
      </trkpt>
      <trkpt lat="42.87213" lon="1.19259">
        <ele>684.2</ele>
        <time>2024-06-16T14:44:27Z</time>
      </trkpt>
      <trkpt lat="42.87208" lon="1.19272">
        <ele>683.4</ele>
        <time>2024-06-16T14:44:30Z</time>
      </trkpt>
      <trkpt lat="42.87206" lon="1.19279">
        <ele>683</ele>
        <time>2024-06-16T14:44:31Z</time>
      </trkpt>
      <trkpt lat="42.87203" lon="1.19285">
        <ele>682.6</ele>
        <time>2024-06-16T14:44:32Z</time>
      </trkpt>
      <trkpt lat="42.87201" lon="1.19292">
        <ele>682.2</ele>
        <time>2024-06-16T14:44:33Z</time>
      </trkpt>
      <trkpt lat="42.87192" lon="1.19314">
        <ele>681.8</ele>
        <time>2024-06-16T14:44:36Z</time>
      </trkpt>
      <trkpt lat="42.87188" lon="1.19321">
        <ele>681.4</ele>
        <time>2024-06-16T14:44:37Z</time>
      </trkpt>
      <trkpt lat="42.87185" lon="1.19327">
        <ele>681</ele>
        <time>2024-06-16T14:44:38Z</time>
      </trkpt>
      <trkpt lat="42.87181" lon="1.19332">
        <ele>680.6</ele>
        <time>2024-06-16T14:44:39Z</time>
      </trkpt>
      <trkpt lat="42.87177" lon="1.19338">
        <ele>680</ele>
        <time>2024-06-16T14:44:40Z</time>
      </trkpt>
      <trkpt lat="42.87172" lon="1.19344">
        <ele>679.6</ele>
        <time>2024-06-16T14:44:41Z</time>
      </trkpt>
      <trkpt lat="42.87167" lon="1.19348">
        <ele>679</ele>
        <time>2024-06-16T14:44:42Z</time>
      </trkpt>
      <trkpt lat="42.87162" lon="1.19352">
        <ele>678.2</ele>
        <time>2024-06-16T14:44:43Z</time>
      </trkpt>
      <trkpt lat="42.87157" lon="1.19355">
        <ele>677.6</ele>
        <time>2024-06-16T14:44:44Z</time>
      </trkpt>
      <trkpt lat="42.87152" lon="1.19359">
        <ele>676.8</ele>
        <time>2024-06-16T14:44:45Z</time>
      </trkpt>
      <trkpt lat="42.87145" lon="1.19364">
        <ele>676</ele>
        <time>2024-06-16T14:44:46Z</time>
      </trkpt>
      <trkpt lat="42.87139" lon="1.19368">
        <ele>675.4</ele>
        <time>2024-06-16T14:44:47Z</time>
      </trkpt>
      <trkpt lat="42.87133" lon="1.19373">
        <ele>674.8</ele>
        <time>2024-06-16T14:44:48Z</time>
      </trkpt>
      <trkpt lat="42.87129" lon="1.19379">
        <ele>674.2</ele>
        <time>2024-06-16T14:44:49Z</time>
      </trkpt>
      <trkpt lat="42.87125" lon="1.19384">
        <ele>673.8</ele>
        <time>2024-06-16T14:44:50Z</time>
      </trkpt>
      <trkpt lat="42.87121" lon="1.1939">
        <ele>673.2</ele>
        <time>2024-06-16T14:44:51Z</time>
      </trkpt>
      <trkpt lat="42.87114" lon="1.19402">
        <ele>673.2</ele>
        <time>2024-06-16T14:44:53Z</time>
      </trkpt>
      <trkpt lat="42.8711" lon="1.19411">
        <ele>673.2</ele>
        <time>2024-06-16T14:44:55Z</time>
      </trkpt>
      <trkpt lat="42.87101" lon="1.19422">
        <ele>673.2</ele>
        <time>2024-06-16T14:44:58Z</time>
      </trkpt>
      <trkpt lat="42.87094" lon="1.19434">
        <ele>673.2</ele>
        <time>2024-06-16T14:45:01Z</time>
      </trkpt>
      <trkpt lat="42.8709" lon="1.19443">
        <ele>673.2</ele>
        <time>2024-06-16T14:45:05Z</time>
      </trkpt>
      <trkpt lat="42.87079" lon="1.1946">
        <ele>672.8</ele>
        <time>2024-06-16T14:45:11Z</time>
      </trkpt>
      <trkpt lat="42.87077" lon="1.19465">
        <ele>672.4</ele>
        <time>2024-06-16T14:45:12Z</time>
      </trkpt>
      <trkpt lat="42.87074" lon="1.1947">
        <ele>672</ele>
        <time>2024-06-16T14:45:13Z</time>
      </trkpt>
      <trkpt lat="42.87072" lon="1.19474">
        <ele>671.4</ele>
        <time>2024-06-16T14:45:14Z</time>
      </trkpt>
      <trkpt lat="42.87068" lon="1.19478">
        <ele>671</ele>
        <time>2024-06-16T14:45:15Z</time>
      </trkpt>
      <trkpt lat="42.87064" lon="1.19483">
        <ele>671</ele>
        <time>2024-06-16T14:45:16Z</time>
      </trkpt>
      <trkpt lat="42.87052" lon="1.1951">
        <ele>671</ele>
        <time>2024-06-16T14:45:21Z</time>
      </trkpt>
      <trkpt lat="42.87046" lon="1.19523">
        <ele>671</ele>
        <time>2024-06-16T14:45:23Z</time>
      </trkpt>
      <trkpt lat="42.87039" lon="1.19536">
        <ele>671</ele>
        <time>2024-06-16T14:45:25Z</time>
      </trkpt>
      <trkpt lat="42.87025" lon="1.19563">
        <ele>671</ele>
        <time>2024-06-16T14:45:30Z</time>
      </trkpt>
      <trkpt lat="42.87015" lon="1.1958">
        <ele>671</ele>
        <time>2024-06-16T14:45:34Z</time>
      </trkpt>
      <trkpt lat="42.87" lon="1.19612">
        <ele>671</ele>
        <time>2024-06-16T14:45:40Z</time>
      </trkpt>
      <trkpt lat="42.86995" lon="1.19634">
        <ele>671</ele>
        <time>2024-06-16T14:45:45Z</time>
      </trkpt>
      <trkpt lat="42.86995" lon="1.19635">
        <ele>671</ele>
        <time>2024-06-16T14:45:46Z</time>
      </trkpt>
      <trkpt lat="42.86994" lon="1.19641">
        <ele>671</ele>
        <time>2024-06-16T14:45:49Z</time>
      </trkpt>
      <trkpt lat="42.86994" lon="1.19643">
        <ele>671</ele>
        <time>2024-06-16T14:45:50Z</time>
      </trkpt>
      <trkpt lat="42.86991" lon="1.1965">
        <ele>671</ele>
        <time>2024-06-16T14:47:44Z</time>
      </trkpt>
      <trkpt lat="42.86987" lon="1.19657">
        <ele>671</ele>
        <time>2024-06-16T14:47:46Z</time>
      </trkpt>
      <trkpt lat="42.86973" lon="1.19684">
        <ele>671</ele>
        <time>2024-06-16T14:47:53Z</time>
      </trkpt>
      <trkpt lat="42.86961" lon="1.19704">
        <ele>670.6</ele>
        <time>2024-06-16T14:47:58Z</time>
      </trkpt>
      <trkpt lat="42.86958" lon="1.19709">
        <ele>670.2</ele>
        <time>2024-06-16T14:47:59Z</time>
      </trkpt>
      <trkpt lat="42.86955" lon="1.19714">
        <ele>669.8</ele>
        <time>2024-06-16T14:48:00Z</time>
      </trkpt>
      <trkpt lat="42.86952" lon="1.1972">
        <ele>669.4</ele>
        <time>2024-06-16T14:48:01Z</time>
      </trkpt>
      <trkpt lat="42.86949" lon="1.19726">
        <ele>669</ele>
        <time>2024-06-16T14:48:02Z</time>
      </trkpt>
      <trkpt lat="42.86947" lon="1.19732">
        <ele>669</ele>
        <time>2024-06-16T14:48:03Z</time>
      </trkpt>
      <trkpt lat="42.86935" lon="1.19758">
        <ele>668.6</ele>
        <time>2024-06-16T14:48:07Z</time>
      </trkpt>
      <trkpt lat="42.86931" lon="1.19765">
        <ele>668.2</ele>
        <time>2024-06-16T14:48:08Z</time>
      </trkpt>
      <trkpt lat="42.86927" lon="1.19772">
        <ele>667.8</ele>
        <time>2024-06-16T14:48:09Z</time>
      </trkpt>
      <trkpt lat="42.86924" lon="1.1978">
        <ele>667.4</ele>
        <time>2024-06-16T14:48:10Z</time>
      </trkpt>
      <trkpt lat="42.8692" lon="1.19787">
        <ele>667</ele>
        <time>2024-06-16T14:48:11Z</time>
      </trkpt>
      <trkpt lat="42.86917" lon="1.19794">
        <ele>666.2</ele>
        <time>2024-06-16T14:48:12Z</time>
      </trkpt>
      <trkpt lat="42.86914" lon="1.19802">
        <ele>665.6</ele>
        <time>2024-06-16T14:48:13Z</time>
      </trkpt>
      <trkpt lat="42.86912" lon="1.19809">
        <ele>665.2</ele>
        <time>2024-06-16T14:48:14Z</time>
      </trkpt>
      <trkpt lat="42.8691" lon="1.19818">
        <ele>664.8</ele>
        <time>2024-06-16T14:48:15Z</time>
      </trkpt>
      <trkpt lat="42.869" lon="1.19845">
        <ele>664.8</ele>
        <time>2024-06-16T14:48:19Z</time>
      </trkpt>
      <trkpt lat="42.869" lon="1.19855">
        <ele>664.4</ele>
        <time>2024-06-16T14:48:21Z</time>
      </trkpt>
      <trkpt lat="42.86899" lon="1.19859">
        <ele>664</ele>
        <time>2024-06-16T14:48:22Z</time>
      </trkpt>
      <trkpt lat="42.86898" lon="1.19864">
        <ele>663.6</ele>
        <time>2024-06-16T14:48:23Z</time>
      </trkpt>
      <trkpt lat="42.86897" lon="1.19868">
        <ele>663</ele>
        <time>2024-06-16T14:48:24Z</time>
      </trkpt>
      <trkpt lat="42.86896" lon="1.1987">
        <ele>662.6</ele>
        <time>2024-06-16T14:48:25Z</time>
      </trkpt>
      <trkpt lat="42.86894" lon="1.19871">
        <ele>662.6</ele>
        <time>2024-06-16T14:48:26Z</time>
      </trkpt>
      <trkpt lat="42.86892" lon="1.19872">
        <ele>662.6</ele>
        <time>2024-06-16T14:48:27Z</time>
      </trkpt>
      <trkpt lat="42.86888" lon="1.19873">
        <ele>662.6</ele>
        <time>2024-06-16T14:48:29Z</time>
      </trkpt>
      <trkpt lat="42.86885" lon="1.19878">
        <ele>662.6</ele>
        <time>2024-06-16T14:48:31Z</time>
      </trkpt>
      <trkpt lat="42.86881" lon="1.19884">
        <ele>662.2</ele>
        <time>2024-06-16T14:48:33Z</time>
      </trkpt>
      <trkpt lat="42.8688" lon="1.19885">
        <ele>661.8</ele>
        <time>2024-06-16T14:48:34Z</time>
      </trkpt>
      <trkpt lat="42.86879" lon="1.19886">
        <ele>661.4</ele>
        <time>2024-06-16T14:48:35Z</time>
      </trkpt>
      <trkpt lat="42.86877" lon="1.19888">
        <ele>661</ele>
        <time>2024-06-16T14:48:36Z</time>
      </trkpt>
      <trkpt lat="42.86876" lon="1.1989">
        <ele>660.4</ele>
        <time>2024-06-16T14:48:37Z</time>
      </trkpt>
      <trkpt lat="42.86868" lon="1.19901">
        <ele>660.4</ele>
        <time>2024-06-16T14:48:42Z</time>
      </trkpt>
      <trkpt lat="42.86865" lon="1.19903">
        <ele>660</ele>
        <time>2024-06-16T14:48:43Z</time>
      </trkpt>
      <trkpt lat="42.86862" lon="1.19904">
        <ele>659.6</ele>
        <time>2024-06-16T14:48:44Z</time>
      </trkpt>
      <trkpt lat="42.8686" lon="1.19906">
        <ele>659.2</ele>
        <time>2024-06-16T14:48:45Z</time>
      </trkpt>
      <trkpt lat="42.86857" lon="1.19909">
        <ele>658.8</ele>
        <time>2024-06-16T14:48:46Z</time>
      </trkpt>
      <trkpt lat="42.86854" lon="1.19911">
        <ele>658.4</ele>
        <time>2024-06-16T14:48:47Z</time>
      </trkpt>
      <trkpt lat="42.8685" lon="1.19912">
        <ele>658</ele>
        <time>2024-06-16T14:48:48Z</time>
      </trkpt>
      <trkpt lat="42.86847" lon="1.19914">
        <ele>657.6</ele>
        <time>2024-06-16T14:48:49Z</time>
      </trkpt>
      <trkpt lat="42.86844" lon="1.19918">
        <ele>657.2</ele>
        <time>2024-06-16T14:48:50Z</time>
      </trkpt>
      <trkpt lat="42.8684" lon="1.19921">
        <ele>656.6</ele>
        <time>2024-06-16T14:48:51Z</time>
      </trkpt>
      <trkpt lat="42.86837" lon="1.19924">
        <ele>656</ele>
        <time>2024-06-16T14:48:52Z</time>
      </trkpt>
      <trkpt lat="42.86834" lon="1.19926">
        <ele>655.4</ele>
        <time>2024-06-16T14:48:53Z</time>
      </trkpt>
      <trkpt lat="42.86831" lon="1.19929">
        <ele>654.6</ele>
        <time>2024-06-16T14:48:54Z</time>
      </trkpt>
      <trkpt lat="42.86829" lon="1.19931">
        <ele>653.8</ele>
        <time>2024-06-16T14:48:55Z</time>
      </trkpt>
      <trkpt lat="42.86827" lon="1.19933">
        <ele>653</ele>
        <time>2024-06-16T14:48:56Z</time>
      </trkpt>
      <trkpt lat="42.86825" lon="1.19936">
        <ele>652.2</ele>
        <time>2024-06-16T14:48:57Z</time>
      </trkpt>
      <trkpt lat="42.86824" lon="1.19938">
        <ele>651.4</ele>
        <time>2024-06-16T14:48:58Z</time>
      </trkpt>
      <trkpt lat="42.86823" lon="1.19939">
        <ele>650.6</ele>
        <time>2024-06-16T14:48:59Z</time>
      </trkpt>
      <trkpt lat="42.8682" lon="1.19941">
        <ele>649.8</ele>
        <time>2024-06-16T14:49:00Z</time>
      </trkpt>
      <trkpt lat="42.86817" lon="1.19943">
        <ele>649</ele>
        <time>2024-06-16T14:49:01Z</time>
      </trkpt>
      <trkpt lat="42.86816" lon="1.19945">
        <ele>647.8</ele>
        <time>2024-06-16T14:49:02Z</time>
      </trkpt>
      <trkpt lat="42.86814" lon="1.19948">
        <ele>647.2</ele>
        <time>2024-06-16T14:49:03Z</time>
      </trkpt>
      <trkpt lat="42.86813" lon="1.19949">
        <ele>646.6</ele>
        <time>2024-06-16T14:49:04Z</time>
      </trkpt>
      <trkpt lat="42.86811" lon="1.19951">
        <ele>646</ele>
        <time>2024-06-16T14:49:05Z</time>
      </trkpt>
      <trkpt lat="42.8681" lon="1.19952">
        <ele>645.4</ele>
        <time>2024-06-16T14:49:06Z</time>
      </trkpt>
      <trkpt lat="42.86809" lon="1.19954">
        <ele>644.8</ele>
        <time>2024-06-16T14:49:07Z</time>
      </trkpt>
      <trkpt lat="42.86803" lon="1.19968">
        <ele>643.8</ele>
        <time>2024-06-16T15:01:36Z</time>
      </trkpt>
      <trkpt lat="42.86802" lon="1.1997">
        <ele>643.4</ele>
        <time>2024-06-16T15:01:37Z</time>
      </trkpt>
      <trkpt lat="42.86801" lon="1.1997">
        <ele>643</ele>
        <time>2024-06-16T15:01:38Z</time>
      </trkpt>
      <trkpt lat="42.86801" lon="1.1997">
        <ele>642.6</ele>
        <time>2024-06-16T15:01:39Z</time>
      </trkpt>
      <trkpt lat="42.868" lon="1.19969">
        <ele>642</ele>
        <time>2024-06-16T15:01:40Z</time>
      </trkpt>
      <trkpt lat="42.868" lon="1.19968">
        <ele>641.6</ele>
        <time>2024-06-16T15:01:41Z</time>
      </trkpt>
      <trkpt lat="42.868" lon="1.19967">
        <ele>641</ele>
        <time>2024-06-16T15:01:42Z</time>
      </trkpt>
      <trkpt lat="42.86798" lon="1.19966">
        <ele>640.6</ele>
        <time>2024-06-16T15:01:43Z</time>
      </trkpt>
      <trkpt lat="42.86796" lon="1.19966">
        <ele>640.2</ele>
        <time>2024-06-16T15:01:44Z</time>
      </trkpt>
      <trkpt lat="42.86795" lon="1.19967">
        <ele>640.2</ele>
        <time>2024-06-16T15:01:45Z</time>
      </trkpt>
      <trkpt lat="42.86793" lon="1.19968">
        <ele>639.6</ele>
        <time>2024-06-16T15:01:46Z</time>
      </trkpt>
      <trkpt lat="42.86792" lon="1.19968">
        <ele>639.2</ele>
        <time>2024-06-16T15:01:47Z</time>
      </trkpt>
      <trkpt lat="42.86791" lon="1.1997">
        <ele>638.2</ele>
        <time>2024-06-16T15:01:48Z</time>
      </trkpt>
      <trkpt lat="42.8679" lon="1.19971">
        <ele>637.6</ele>
        <time>2024-06-16T15:01:49Z</time>
      </trkpt>
      <trkpt lat="42.86789" lon="1.19972">
        <ele>637.2</ele>
        <time>2024-06-16T15:01:50Z</time>
      </trkpt>
      <trkpt lat="42.86789" lon="1.19973">
        <ele>636.6</ele>
        <time>2024-06-16T15:01:51Z</time>
      </trkpt>
      <trkpt lat="42.86787" lon="1.19974">
        <ele>636</ele>
        <time>2024-06-16T15:01:52Z</time>
      </trkpt>
      <trkpt lat="42.86788" lon="1.19976">
        <ele>635.4</ele>
        <time>2024-06-16T15:01:53Z</time>
      </trkpt>
      <trkpt lat="42.86786" lon="1.19984">
        <ele>634</ele>
        <time>2024-06-16T15:02:06Z</time>
      </trkpt>
      <trkpt lat="42.86786" lon="1.19987">
        <ele>633.6</ele>
        <time>2024-06-16T15:02:07Z</time>
      </trkpt>
      <trkpt lat="42.86786" lon="1.19991">
        <ele>633</ele>
        <time>2024-06-16T15:02:08Z</time>
      </trkpt>
      <trkpt lat="42.86786" lon="1.19993">
        <ele>632.6</ele>
        <time>2024-06-16T15:02:09Z</time>
      </trkpt>
      <trkpt lat="42.86787" lon="1.19995">
        <ele>632</ele>
        <time>2024-06-16T15:02:10Z</time>
      </trkpt>
      <trkpt lat="42.86787" lon="1.19997">
        <ele>631.4</ele>
        <time>2024-06-16T15:02:11Z</time>
      </trkpt>
      <trkpt lat="42.86788" lon="1.19999">
        <ele>630.6</ele>
        <time>2024-06-16T15:02:12Z</time>
      </trkpt>
      <trkpt lat="42.86788" lon="1.2">
        <ele>629.4</ele>
        <time>2024-06-16T15:02:13Z</time>
      </trkpt>
      <trkpt lat="42.86787" lon="1.20003">
        <ele>628.8</ele>
        <time>2024-06-16T15:02:14Z</time>
      </trkpt>
      <trkpt lat="42.86786" lon="1.20004">
        <ele>628.2</ele>
        <time>2024-06-16T15:02:15Z</time>
      </trkpt>
      <trkpt lat="42.86786" lon="1.20006">
        <ele>627.6</ele>
        <time>2024-06-16T15:02:16Z</time>
      </trkpt>
      <trkpt lat="42.86783" lon="1.20009">
        <ele>624</ele>
        <time>2024-06-16T15:02:24Z</time>
      </trkpt>
      <trkpt lat="42.86782" lon="1.20011">
        <ele>624</ele>
        <time>2024-06-16T15:02:25Z</time>
      </trkpt>
      <trkpt lat="42.86779" lon="1.20014">
        <ele>623.6</ele>
        <time>2024-06-16T15:02:27Z</time>
      </trkpt>
      <trkpt lat="42.86778" lon="1.20016">
        <ele>623.2</ele>
        <time>2024-06-16T15:02:28Z</time>
      </trkpt>
      <trkpt lat="42.86777" lon="1.20017">
        <ele>622.6</ele>
        <time>2024-06-16T15:02:29Z</time>
      </trkpt>
      <trkpt lat="42.86776" lon="1.2002">
        <ele>622</ele>
        <time>2024-06-16T15:02:30Z</time>
      </trkpt>
      <trkpt lat="42.86775" lon="1.20024">
        <ele>621.2</ele>
        <time>2024-06-16T15:02:31Z</time>
      </trkpt>
      <trkpt lat="42.86773" lon="1.20026">
        <ele>620.4</ele>
        <time>2024-06-16T15:02:32Z</time>
      </trkpt>
      <trkpt lat="42.86771" lon="1.20029">
        <ele>619.6</ele>
        <time>2024-06-16T15:02:33Z</time>
      </trkpt>
      <trkpt lat="42.86769" lon="1.20032">
        <ele>618.8</ele>
        <time>2024-06-16T15:02:34Z</time>
      </trkpt>
      <trkpt lat="42.86768" lon="1.20035">
        <ele>617.8</ele>
        <time>2024-06-16T15:02:35Z</time>
      </trkpt>
      <trkpt lat="42.86767" lon="1.20038">
        <ele>617</ele>
        <time>2024-06-16T15:02:36Z</time>
      </trkpt>
      <trkpt lat="42.86766" lon="1.20039">
        <ele>615.4</ele>
        <time>2024-06-16T15:02:37Z</time>
      </trkpt>
      <trkpt lat="42.86765" lon="1.20042">
        <ele>614.6</ele>
        <time>2024-06-16T15:02:38Z</time>
      </trkpt>
      <trkpt lat="42.86764" lon="1.20044">
        <ele>613.6</ele>
        <time>2024-06-16T15:02:39Z</time>
      </trkpt>
      <trkpt lat="42.86762" lon="1.20046">
        <ele>612.8</ele>
        <time>2024-06-16T15:02:40Z</time>
      </trkpt>
      <trkpt lat="42.86761" lon="1.20048">
        <ele>612</ele>
        <time>2024-06-16T15:02:41Z</time>
      </trkpt>
      <trkpt lat="42.86759" lon="1.2005">
        <ele>611.2</ele>
        <time>2024-06-16T15:02:42Z</time>
      </trkpt>
      <trkpt lat="42.86757" lon="1.20052">
        <ele>610.4</ele>
        <time>2024-06-16T15:02:43Z</time>
      </trkpt>
      <trkpt lat="42.86756" lon="1.20054">
        <ele>609.6</ele>
        <time>2024-06-16T15:02:44Z</time>
      </trkpt>
      <trkpt lat="42.86755" lon="1.20056">
        <ele>608.8</ele>
        <time>2024-06-16T15:02:45Z</time>
      </trkpt>
      <trkpt lat="42.86754" lon="1.20058">
        <ele>608</ele>
        <time>2024-06-16T15:02:46Z</time>
      </trkpt>
      <trkpt lat="42.86753" lon="1.2006">
        <ele>607.2</ele>
        <time>2024-06-16T15:02:47Z</time>
      </trkpt>
      <trkpt lat="42.86752" lon="1.20062">
        <ele>606.4</ele>
        <time>2024-06-16T15:02:48Z</time>
      </trkpt>
      <trkpt lat="42.86751" lon="1.20064">
        <ele>605.4</ele>
        <time>2024-06-16T15:02:49Z</time>
      </trkpt>
      <trkpt lat="42.8675" lon="1.20066">
        <ele>604.6</ele>
        <time>2024-06-16T15:02:50Z</time>
      </trkpt>
      <trkpt lat="42.86749" lon="1.20069">
        <ele>603.8</ele>
        <time>2024-06-16T15:02:51Z</time>
      </trkpt>
      <trkpt lat="42.86748" lon="1.20071">
        <ele>603</ele>
        <time>2024-06-16T15:02:52Z</time>
      </trkpt>
      <trkpt lat="42.86746" lon="1.20073">
        <ele>602.4</ele>
        <time>2024-06-16T15:02:53Z</time>
      </trkpt>
      <trkpt lat="42.86744" lon="1.20077">
        <ele>601.6</ele>
        <time>2024-06-16T15:02:54Z</time>
      </trkpt>
      <trkpt lat="42.86742" lon="1.20079">
        <ele>600.8</ele>
        <time>2024-06-16T15:02:55Z</time>
      </trkpt>
      <trkpt lat="42.8674" lon="1.20081">
        <ele>600</ele>
        <time>2024-06-16T15:02:56Z</time>
      </trkpt>
      <trkpt lat="42.86739" lon="1.20083">
        <ele>599.2</ele>
        <time>2024-06-16T15:02:57Z</time>
      </trkpt>
      <trkpt lat="42.86738" lon="1.20084">
        <ele>598.4</ele>
        <time>2024-06-16T15:02:58Z</time>
      </trkpt>
      <trkpt lat="42.86736" lon="1.20087">
        <ele>597.6</ele>
        <time>2024-06-16T15:02:59Z</time>
      </trkpt>
      <trkpt lat="42.86733" lon="1.20091">
        <ele>596.8</ele>
        <time>2024-06-16T15:03:00Z</time>
      </trkpt>
      <trkpt lat="42.86731" lon="1.20095">
        <ele>596</ele>
        <time>2024-06-16T15:03:01Z</time>
      </trkpt>
      <trkpt lat="42.86729" lon="1.20096">
        <ele>594.4</ele>
        <time>2024-06-16T15:03:02Z</time>
      </trkpt>
      <trkpt lat="42.86726" lon="1.20096">
        <ele>593.4</ele>
        <time>2024-06-16T15:03:03Z</time>
      </trkpt>
      <trkpt lat="42.86724" lon="1.20097">
        <ele>592.6</ele>
        <time>2024-06-16T15:03:04Z</time>
      </trkpt>
      <trkpt lat="42.86721" lon="1.20097">
        <ele>591.8</ele>
        <time>2024-06-16T15:03:05Z</time>
      </trkpt>
      <trkpt lat="42.86719" lon="1.20096">
        <ele>591</ele>
        <time>2024-06-16T15:03:06Z</time>
      </trkpt>
      <trkpt lat="42.86716" lon="1.20094">
        <ele>590.2</ele>
        <time>2024-06-16T15:03:07Z</time>
      </trkpt>
      <trkpt lat="42.86713" lon="1.20092">
        <ele>589.6</ele>
        <time>2024-06-16T15:03:08Z</time>
      </trkpt>
      <trkpt lat="42.8671" lon="1.20091">
        <ele>589</ele>
        <time>2024-06-16T15:03:09Z</time>
      </trkpt>
      <trkpt lat="42.86709" lon="1.20089">
        <ele>588.4</ele>
        <time>2024-06-16T15:03:10Z</time>
      </trkpt>
      <trkpt lat="42.86708" lon="1.20087">
        <ele>587.8</ele>
        <time>2024-06-16T15:03:11Z</time>
      </trkpt>
      <trkpt lat="42.86706" lon="1.20086">
        <ele>587.2</ele>
        <time>2024-06-16T15:03:12Z</time>
      </trkpt>
      <trkpt lat="42.86703" lon="1.20084">
        <ele>587.2</ele>
        <time>2024-06-16T15:03:15Z</time>
      </trkpt>
      <trkpt lat="42.86702" lon="1.20084">
        <ele>587.2</ele>
        <time>2024-06-16T15:03:16Z</time>
      </trkpt>
      <trkpt lat="42.86699" lon="1.2008">
        <ele>587.2</ele>
        <time>2024-06-16T15:04:17Z</time>
      </trkpt>
      <trkpt lat="42.86696" lon="1.20077">
        <ele>587.2</ele>
        <time>2024-06-16T15:04:18Z</time>
      </trkpt>
      <trkpt lat="42.8669" lon="1.20068">
        <ele>586.8</ele>
        <time>2024-06-16T15:04:20Z</time>
      </trkpt>
      <trkpt lat="42.86687" lon="1.20065">
        <ele>586.4</ele>
        <time>2024-06-16T15:04:21Z</time>
      </trkpt>
      <trkpt lat="42.86684" lon="1.20063">
        <ele>586</ele>
        <time>2024-06-16T15:04:22Z</time>
      </trkpt>
      <trkpt lat="42.8668" lon="1.20064">
        <ele>585.4</ele>
        <time>2024-06-16T15:04:23Z</time>
      </trkpt>
      <trkpt lat="42.86677" lon="1.20068">
        <ele>584.8</ele>
        <time>2024-06-16T15:04:24Z</time>
      </trkpt>
      <trkpt lat="42.86674" lon="1.20073">
        <ele>584.2</ele>
        <time>2024-06-16T15:04:25Z</time>
      </trkpt>
      <trkpt lat="42.86671" lon="1.20078">
        <ele>583.4</ele>
        <time>2024-06-16T15:04:26Z</time>
      </trkpt>
      <trkpt lat="42.86669" lon="1.20084">
        <ele>582.6</ele>
        <time>2024-06-16T15:04:27Z</time>
      </trkpt>
      <trkpt lat="42.86668" lon="1.20088">
        <ele>581.8</ele>
        <time>2024-06-16T15:04:28Z</time>
      </trkpt>
      <trkpt lat="42.86668" lon="1.20091">
        <ele>581</ele>
        <time>2024-06-16T15:04:29Z</time>
      </trkpt>
      <trkpt lat="42.86668" lon="1.20093">
        <ele>580</ele>
        <time>2024-06-16T15:04:30Z</time>
      </trkpt>
      <trkpt lat="42.86667" lon="1.20095">
        <ele>579</ele>
        <time>2024-06-16T15:04:31Z</time>
      </trkpt>
      <trkpt lat="42.86666" lon="1.20096">
        <ele>578.2</ele>
        <time>2024-06-16T15:04:32Z</time>
      </trkpt>
      <trkpt lat="42.86664" lon="1.20098">
        <ele>577.4</ele>
        <time>2024-06-16T15:04:33Z</time>
      </trkpt>
      <trkpt lat="42.86664" lon="1.20099">
        <ele>576.6</ele>
        <time>2024-06-16T15:04:34Z</time>
      </trkpt>
      <trkpt lat="42.86665" lon="1.20101">
        <ele>575.8</ele>
        <time>2024-06-16T15:04:35Z</time>
      </trkpt>
      <trkpt lat="42.86666" lon="1.20102">
        <ele>575</ele>
        <time>2024-06-16T15:04:36Z</time>
      </trkpt>
      <trkpt lat="42.86667" lon="1.20103">
        <ele>574.2</ele>
        <time>2024-06-16T15:06:01Z</time>
      </trkpt>
      <trkpt lat="42.86672" lon="1.20106">
        <ele>574.2</ele>
        <time>2024-06-16T15:06:03Z</time>
      </trkpt>
      <trkpt lat="42.86689" lon="1.20119">
        <ele>573.8</ele>
        <time>2024-06-16T15:06:08Z</time>
      </trkpt>
      <trkpt lat="42.86693" lon="1.20123">
        <ele>573.4</ele>
        <time>2024-06-16T15:06:09Z</time>
      </trkpt>
      <trkpt lat="42.86696" lon="1.20127">
        <ele>573</ele>
        <time>2024-06-16T15:06:10Z</time>
      </trkpt>
      <trkpt lat="42.86699" lon="1.20131">
        <ele>572.6</ele>
        <time>2024-06-16T15:06:11Z</time>
      </trkpt>
      <trkpt lat="42.86702" lon="1.20135">
        <ele>572.2</ele>
        <time>2024-06-16T15:06:12Z</time>
      </trkpt>
      <trkpt lat="42.86715" lon="1.20152">
        <ele>572.2</ele>
        <time>2024-06-16T15:06:16Z</time>
      </trkpt>
      <trkpt lat="42.86734" lon="1.20168">
        <ele>571.8</ele>
        <time>2024-06-16T15:06:20Z</time>
      </trkpt>
      <trkpt lat="42.8674" lon="1.20171">
        <ele>571.4</ele>
        <time>2024-06-16T15:06:21Z</time>
      </trkpt>
      <trkpt lat="42.86746" lon="1.20174">
        <ele>571</ele>
        <time>2024-06-16T15:06:22Z</time>
      </trkpt>
      <trkpt lat="42.86752" lon="1.20176">
        <ele>570.4</ele>
        <time>2024-06-16T15:06:23Z</time>
      </trkpt>
      <trkpt lat="42.86759" lon="1.20177">
        <ele>570</ele>
        <time>2024-06-16T15:06:24Z</time>
      </trkpt>
      <trkpt lat="42.86765" lon="1.20178">
        <ele>569.6</ele>
        <time>2024-06-16T15:06:25Z</time>
      </trkpt>
      <trkpt lat="42.86772" lon="1.20177">
        <ele>569.2</ele>
        <time>2024-06-16T15:06:26Z</time>
      </trkpt>
      <trkpt lat="42.86779" lon="1.20176">
        <ele>568.6</ele>
        <time>2024-06-16T15:06:27Z</time>
      </trkpt>
      <trkpt lat="42.86787" lon="1.20174">
        <ele>568</ele>
        <time>2024-06-16T15:06:28Z</time>
      </trkpt>
      <trkpt lat="42.86795" lon="1.20172">
        <ele>567.4</ele>
        <time>2024-06-16T15:06:29Z</time>
      </trkpt>
      <trkpt lat="42.86803" lon="1.2017">
        <ele>566.8</ele>
        <time>2024-06-16T15:06:30Z</time>
      </trkpt>
      <trkpt lat="42.86811" lon="1.20168">
        <ele>566.2</ele>
        <time>2024-06-16T15:06:31Z</time>
      </trkpt>
      <trkpt lat="42.8682" lon="1.20166">
        <ele>565.6</ele>
        <time>2024-06-16T15:06:32Z</time>
      </trkpt>
      <trkpt lat="42.86828" lon="1.20166">
        <ele>565.6</ele>
        <time>2024-06-16T15:06:33Z</time>
      </trkpt>
      <trkpt lat="42.86845" lon="1.20167">
        <ele>565</ele>
        <time>2024-06-16T15:06:35Z</time>
      </trkpt>
      <trkpt lat="42.86853" lon="1.20169">
        <ele>564.6</ele>
        <time>2024-06-16T15:06:36Z</time>
      </trkpt>
      <trkpt lat="42.8686" lon="1.2017">
        <ele>564.2</ele>
        <time>2024-06-16T15:06:37Z</time>
      </trkpt>
      <trkpt lat="42.86867" lon="1.2017">
        <ele>563.6</ele>
        <time>2024-06-16T15:06:38Z</time>
      </trkpt>
      <trkpt lat="42.86873" lon="1.20171">
        <ele>563.2</ele>
        <time>2024-06-16T15:06:39Z</time>
      </trkpt>
      <trkpt lat="42.86907" lon="1.20172">
        <ele>563.2</ele>
        <time>2024-06-16T15:06:44Z</time>
      </trkpt>
      <trkpt lat="42.86913" lon="1.20171">
        <ele>563.2</ele>
        <time>2024-06-16T15:06:45Z</time>
      </trkpt>
      <trkpt lat="42.86928" lon="1.20168">
        <ele>563.2</ele>
        <time>2024-06-16T15:06:48Z</time>
      </trkpt>
      <trkpt lat="42.86934" lon="1.2017">
        <ele>563.2</ele>
        <time>2024-06-16T15:06:49Z</time>
      </trkpt>
      <trkpt lat="42.86961" lon="1.20172">
        <ele>563.2</ele>
        <time>2024-06-16T15:06:54Z</time>
      </trkpt>
      <trkpt lat="42.86978" lon="1.20168">
        <ele>562.8</ele>
        <time>2024-06-16T15:06:57Z</time>
      </trkpt>
      <trkpt lat="42.86985" lon="1.20168">
        <ele>562.2</ele>
        <time>2024-06-16T15:06:58Z</time>
      </trkpt>
      <trkpt lat="42.86992" lon="1.20169">
        <ele>561.8</ele>
        <time>2024-06-16T15:06:59Z</time>
      </trkpt>
      <trkpt lat="42.86999" lon="1.20172">
        <ele>561.4</ele>
        <time>2024-06-16T15:07:00Z</time>
      </trkpt>
      <trkpt lat="42.87007" lon="1.20175">
        <ele>560.8</ele>
        <time>2024-06-16T15:07:01Z</time>
      </trkpt>
      <trkpt lat="42.87014" lon="1.20177">
        <ele>560.2</ele>
        <time>2024-06-16T15:07:02Z</time>
      </trkpt>
      <trkpt lat="42.87022" lon="1.2018">
        <ele>559.6</ele>
        <time>2024-06-16T15:07:03Z</time>
      </trkpt>
      <trkpt lat="42.8703" lon="1.20182">
        <ele>559.2</ele>
        <time>2024-06-16T15:07:04Z</time>
      </trkpt>
      <trkpt lat="42.87038" lon="1.20183">
        <ele>558.6</ele>
        <time>2024-06-16T15:07:05Z</time>
      </trkpt>
      <trkpt lat="42.87047" lon="1.20185">
        <ele>558.2</ele>
        <time>2024-06-16T15:07:06Z</time>
      </trkpt>
      <trkpt lat="42.87055" lon="1.20187">
        <ele>557.6</ele>
        <time>2024-06-16T15:07:07Z</time>
      </trkpt>
      <trkpt lat="42.87063" lon="1.20188">
        <ele>557.2</ele>
        <time>2024-06-16T15:07:08Z</time>
      </trkpt>
      <trkpt lat="42.8707" lon="1.20189">
        <ele>556.2</ele>
        <time>2024-06-16T15:07:09Z</time>
      </trkpt>
      <trkpt lat="42.87084" lon="1.20183">
        <ele>556.2</ele>
        <time>2024-06-16T15:07:11Z</time>
      </trkpt>
      <trkpt lat="42.87096" lon="1.20167">
        <ele>555.8</ele>
        <time>2024-06-16T15:07:13Z</time>
      </trkpt>
      <trkpt lat="42.87101" lon="1.20158">
        <ele>555.4</ele>
        <time>2024-06-16T15:07:14Z</time>
      </trkpt>
      <trkpt lat="42.87105" lon="1.2015">
        <ele>555</ele>
        <time>2024-06-16T15:07:15Z</time>
      </trkpt>
      <trkpt lat="42.87108" lon="1.20141">
        <ele>554.6</ele>
        <time>2024-06-16T15:07:16Z</time>
      </trkpt>
      <trkpt lat="42.87111" lon="1.20132">
        <ele>554.2</ele>
        <time>2024-06-16T15:07:17Z</time>
      </trkpt>
      <trkpt lat="42.87113" lon="1.20123">
        <ele>554.2</ele>
        <time>2024-06-16T15:07:18Z</time>
      </trkpt>
      <trkpt lat="42.87115" lon="1.20105">
        <ele>554.2</ele>
        <time>2024-06-16T15:07:20Z</time>
      </trkpt>
      <trkpt lat="42.8712" lon="1.20081">
        <ele>554.2</ele>
        <time>2024-06-16T15:07:23Z</time>
      </trkpt>
      <trkpt lat="42.87121" lon="1.20073">
        <ele>554.2</ele>
        <time>2024-06-16T15:07:24Z</time>
      </trkpt>
      <trkpt lat="42.87121" lon="1.20049">
        <ele>554.2</ele>
        <time>2024-06-16T15:07:27Z</time>
      </trkpt>
      <trkpt lat="42.87122" lon="1.2004">
        <ele>553.8</ele>
        <time>2024-06-16T15:07:28Z</time>
      </trkpt>
      <trkpt lat="42.87126" lon="1.20032">
        <ele>553.4</ele>
        <time>2024-06-16T15:07:29Z</time>
      </trkpt>
      <trkpt lat="42.8713" lon="1.20026">
        <ele>552.8</ele>
        <time>2024-06-16T15:07:30Z</time>
      </trkpt>
      <trkpt lat="42.87134" lon="1.20019">
        <ele>552.4</ele>
        <time>2024-06-16T15:07:31Z</time>
      </trkpt>
      <trkpt lat="42.87137" lon="1.20011">
        <ele>552</ele>
        <time>2024-06-16T15:07:32Z</time>
      </trkpt>
      <trkpt lat="42.87149" lon="1.19992">
        <ele>552</ele>
        <time>2024-06-16T15:07:35Z</time>
      </trkpt>
      <trkpt lat="42.87163" lon="1.19968">
        <ele>552</ele>
        <time>2024-06-16T15:07:39Z</time>
      </trkpt>
      <trkpt lat="42.87166" lon="1.19963">
        <ele>552</ele>
        <time>2024-06-16T15:07:40Z</time>
      </trkpt>
      <trkpt lat="42.87179" lon="1.19942">
        <ele>552</ele>
        <time>2024-06-16T15:07:44Z</time>
      </trkpt>
      <trkpt lat="42.87185" lon="1.1993">
        <ele>552</ele>
        <time>2024-06-16T15:07:46Z</time>
      </trkpt>
      <trkpt lat="42.87207" lon="1.19891">
        <ele>552</ele>
        <time>2024-06-16T15:07:53Z</time>
      </trkpt>
      <trkpt lat="42.87215" lon="1.1988">
        <ele>552</ele>
        <time>2024-06-16T15:07:56Z</time>
      </trkpt>
      <trkpt lat="42.87229" lon="1.19869">
        <ele>552</ele>
        <time>2024-06-16T15:08:01Z</time>
      </trkpt>
      <trkpt lat="42.87238" lon="1.19876">
        <ele>552</ele>
        <time>2024-06-16T15:08:05Z</time>
      </trkpt>
      <trkpt lat="42.87236" lon="1.19887">
        <ele>552</ele>
        <time>2024-06-16T15:08:08Z</time>
      </trkpt>
      <trkpt lat="42.87234" lon="1.19908">
        <ele>552</ele>
        <time>2024-06-16T15:08:13Z</time>
      </trkpt>
      <trkpt lat="42.87234" lon="1.19916">
        <ele>552</ele>
        <time>2024-06-16T15:08:15Z</time>
      </trkpt>
      <trkpt lat="42.87234" lon="1.19929">
        <ele>552</ele>
        <time>2024-06-16T15:08:18Z</time>
      </trkpt>
      <trkpt lat="42.87234" lon="1.1996">
        <ele>552</ele>
        <time>2024-06-16T15:08:24Z</time>
      </trkpt>
      <trkpt lat="42.87235" lon="1.19986">
        <ele>552</ele>
        <time>2024-06-16T15:08:29Z</time>
      </trkpt>
      <trkpt lat="42.87234" lon="1.20008">
        <ele>552</ele>
        <time>2024-06-16T15:08:34Z</time>
      </trkpt>
      <trkpt lat="42.87233" lon="1.20047">
        <ele>552</ele>
        <time>2024-06-16T15:08:40Z</time>
      </trkpt>
      <trkpt lat="42.87233" lon="1.20055">
        <ele>552</ele>
        <time>2024-06-16T15:08:41Z</time>
      </trkpt>
      <trkpt lat="42.87232" lon="1.20072">
        <ele>552</ele>
        <time>2024-06-16T15:08:43Z</time>
      </trkpt>
      <trkpt lat="42.8723" lon="1.2008">
        <ele>552</ele>
        <time>2024-06-16T15:08:44Z</time>
      </trkpt>
      <trkpt lat="42.87225" lon="1.20117">
        <ele>551.6</ele>
        <time>2024-06-16T15:08:48Z</time>
      </trkpt>
      <trkpt lat="42.87223" lon="1.20126">
        <ele>550.8</ele>
        <time>2024-06-16T15:08:49Z</time>
      </trkpt>
      <trkpt lat="42.87222" lon="1.20135">
        <ele>550.4</ele>
        <time>2024-06-16T15:08:50Z</time>
      </trkpt>
      <trkpt lat="42.8722" lon="1.20143">
        <ele>550</ele>
        <time>2024-06-16T15:08:51Z</time>
      </trkpt>
      <trkpt lat="42.87217" lon="1.2016">
        <ele>550</ele>
        <time>2024-06-16T15:08:53Z</time>
      </trkpt>
      <trkpt lat="42.87214" lon="1.20168">
        <ele>549.4</ele>
        <time>2024-06-16T15:08:54Z</time>
      </trkpt>
      <trkpt lat="42.87211" lon="1.20176">
        <ele>549</ele>
        <time>2024-06-16T15:08:55Z</time>
      </trkpt>
      <trkpt lat="42.87208" lon="1.20184">
        <ele>548.6</ele>
        <time>2024-06-16T15:08:56Z</time>
      </trkpt>
      <trkpt lat="42.87205" lon="1.20193">
        <ele>548.2</ele>
        <time>2024-06-16T15:08:57Z</time>
      </trkpt>
      <trkpt lat="42.87202" lon="1.20202">
        <ele>547.6</ele>
        <time>2024-06-16T15:08:58Z</time>
      </trkpt>
      <trkpt lat="42.87199" lon="1.20211">
        <ele>547</ele>
        <time>2024-06-16T15:08:59Z</time>
      </trkpt>
      <trkpt lat="42.87196" lon="1.20221">
        <ele>546.4</ele>
        <time>2024-06-16T15:09:00Z</time>
      </trkpt>
      <trkpt lat="42.87194" lon="1.20231">
        <ele>546</ele>
        <time>2024-06-16T15:09:01Z</time>
      </trkpt>
      <trkpt lat="42.87194" lon="1.20243">
        <ele>545.4</ele>
        <time>2024-06-16T15:09:02Z</time>
      </trkpt>
      <trkpt lat="42.87196" lon="1.20255">
        <ele>544.8</ele>
        <time>2024-06-16T15:09:03Z</time>
      </trkpt>
      <trkpt lat="42.87198" lon="1.20266">
        <ele>544.2</ele>
        <time>2024-06-16T15:09:04Z</time>
      </trkpt>
      <trkpt lat="42.87201" lon="1.20276">
        <ele>543.6</ele>
        <time>2024-06-16T15:09:05Z</time>
      </trkpt>
      <trkpt lat="42.87203" lon="1.20287">
        <ele>543</ele>
        <time>2024-06-16T15:09:06Z</time>
      </trkpt>
      <trkpt lat="42.87204" lon="1.20296">
        <ele>542.4</ele>
        <time>2024-06-16T15:09:07Z</time>
      </trkpt>
      <trkpt lat="42.87204" lon="1.20306">
        <ele>542</ele>
        <time>2024-06-16T15:09:08Z</time>
      </trkpt>
      <trkpt lat="42.87204" lon="1.20315">
        <ele>541.4</ele>
        <time>2024-06-16T15:09:09Z</time>
      </trkpt>
      <trkpt lat="42.87202" lon="1.20325">
        <ele>540.8</ele>
        <time>2024-06-16T15:09:10Z</time>
      </trkpt>
      <trkpt lat="42.872" lon="1.20334">
        <ele>540.2</ele>
        <time>2024-06-16T15:09:11Z</time>
      </trkpt>
      <trkpt lat="42.87197" lon="1.20342">
        <ele>539.6</ele>
        <time>2024-06-16T15:09:12Z</time>
      </trkpt>
      <trkpt lat="42.87193" lon="1.20351">
        <ele>538.2</ele>
        <time>2024-06-16T15:09:13Z</time>
      </trkpt>
      <trkpt lat="42.87188" lon="1.20359">
        <ele>537.6</ele>
        <time>2024-06-16T15:09:14Z</time>
      </trkpt>
      <trkpt lat="42.87183" lon="1.20367">
        <ele>536.8</ele>
        <time>2024-06-16T15:09:15Z</time>
      </trkpt>
      <trkpt lat="42.87178" lon="1.20376">
        <ele>536</ele>
        <time>2024-06-16T15:09:16Z</time>
      </trkpt>
      <trkpt lat="42.87173" lon="1.20384">
        <ele>535.4</ele>
        <time>2024-06-16T15:09:17Z</time>
      </trkpt>
      <trkpt lat="42.87168" lon="1.20392">
        <ele>534.6</ele>
        <time>2024-06-16T15:09:18Z</time>
      </trkpt>
      <trkpt lat="42.87163" lon="1.204">
        <ele>533.8</ele>
        <time>2024-06-16T15:09:19Z</time>
      </trkpt>
      <trkpt lat="42.87159" lon="1.20406">
        <ele>533</ele>
        <time>2024-06-16T15:09:20Z</time>
      </trkpt>
      <trkpt lat="42.87156" lon="1.20411">
        <ele>532.4</ele>
        <time>2024-06-16T15:09:21Z</time>
      </trkpt>
      <trkpt lat="42.87154" lon="1.20415">
        <ele>531.6</ele>
        <time>2024-06-16T15:09:22Z</time>
      </trkpt>
      <trkpt lat="42.8715" lon="1.20417">
        <ele>530.8</ele>
        <time>2024-06-16T15:09:23Z</time>
      </trkpt>
      <trkpt lat="42.87147" lon="1.20417">
        <ele>530.2</ele>
        <time>2024-06-16T15:09:24Z</time>
      </trkpt>
      <trkpt lat="42.87143" lon="1.20416">
        <ele>529.4</ele>
        <time>2024-06-16T15:09:25Z</time>
      </trkpt>
      <trkpt lat="42.87131" lon="1.20411">
        <ele>529.4</ele>
        <time>2024-06-16T15:09:28Z</time>
      </trkpt>
      <trkpt lat="42.87128" lon="1.20408">
        <ele>529.4</ele>
        <time>2024-06-16T15:09:29Z</time>
      </trkpt>
      <trkpt lat="42.87114" lon="1.20402">
        <ele>529</ele>
        <time>2024-06-16T15:09:32Z</time>
      </trkpt>
      <trkpt lat="42.87108" lon="1.20399">
        <ele>528.6</ele>
        <time>2024-06-16T15:09:33Z</time>
      </trkpt>
      <trkpt lat="42.87102" lon="1.20396">
        <ele>528.2</ele>
        <time>2024-06-16T15:09:34Z</time>
      </trkpt>
      <trkpt lat="42.87095" lon="1.20394">
        <ele>527.8</ele>
        <time>2024-06-16T15:09:35Z</time>
      </trkpt>
      <trkpt lat="42.87088" lon="1.20392">
        <ele>527.4</ele>
        <time>2024-06-16T15:09:36Z</time>
      </trkpt>
      <trkpt lat="42.8708" lon="1.20391">
        <ele>526.8</ele>
        <time>2024-06-16T15:09:37Z</time>
      </trkpt>
      <trkpt lat="42.87072" lon="1.20391">
        <ele>525.8</ele>
        <time>2024-06-16T15:09:38Z</time>
      </trkpt>
      <trkpt lat="42.87063" lon="1.20394">
        <ele>525.2</ele>
        <time>2024-06-16T15:09:39Z</time>
      </trkpt>
      <trkpt lat="42.87055" lon="1.20399">
        <ele>524.6</ele>
        <time>2024-06-16T15:09:40Z</time>
      </trkpt>
      <trkpt lat="42.87046" lon="1.20404">
        <ele>524</ele>
        <time>2024-06-16T15:09:41Z</time>
      </trkpt>
      <trkpt lat="42.87037" lon="1.2041">
        <ele>523.4</ele>
        <time>2024-06-16T15:09:42Z</time>
      </trkpt>
      <trkpt lat="42.87028" lon="1.20417">
        <ele>522.6</ele>
        <time>2024-06-16T15:09:43Z</time>
      </trkpt>
      <trkpt lat="42.87019" lon="1.20424">
        <ele>521.8</ele>
        <time>2024-06-16T15:09:44Z</time>
      </trkpt>
      <trkpt lat="42.87011" lon="1.20431">
        <ele>521.2</ele>
        <time>2024-06-16T15:09:45Z</time>
      </trkpt>
      <trkpt lat="42.87005" lon="1.20437">
        <ele>520.2</ele>
        <time>2024-06-16T15:09:46Z</time>
      </trkpt>
      <trkpt lat="42.87" lon="1.20441">
        <ele>519.4</ele>
        <time>2024-06-16T15:09:47Z</time>
      </trkpt>
      <trkpt lat="42.86996" lon="1.20445">
        <ele>518.6</ele>
        <time>2024-06-16T15:09:48Z</time>
      </trkpt>
      <trkpt lat="42.86993" lon="1.20449">
        <ele>517.8</ele>
        <time>2024-06-16T15:09:49Z</time>
      </trkpt>
      <trkpt lat="42.86991" lon="1.20452">
        <ele>517</ele>
        <time>2024-06-16T15:09:50Z</time>
      </trkpt>
      <trkpt lat="42.86991" lon="1.20458">
        <ele>516.6</ele>
        <time>2024-06-16T15:09:52Z</time>
      </trkpt>
      <trkpt lat="42.8699" lon="1.20461">
        <ele>516.2</ele>
        <time>2024-06-16T15:09:53Z</time>
      </trkpt>
      <trkpt lat="42.8699" lon="1.20464">
        <ele>515.6</ele>
        <time>2024-06-16T15:09:54Z</time>
      </trkpt>
      <trkpt lat="42.86989" lon="1.20467">
        <ele>515.2</ele>
        <time>2024-06-16T15:09:55Z</time>
      </trkpt>
      <trkpt lat="42.86988" lon="1.20469">
        <ele>514.8</ele>
        <time>2024-06-16T15:09:56Z</time>
      </trkpt>
      <trkpt lat="42.86985" lon="1.20475">
        <ele>514.8</ele>
        <time>2024-06-16T15:09:58Z</time>
      </trkpt>
      <trkpt lat="42.86978" lon="1.20496">
        <ele>514.8</ele>
        <time>2024-06-16T15:10:03Z</time>
      </trkpt>
      <trkpt lat="42.86962" lon="1.20529">
        <ele>514.4</ele>
        <time>2024-06-16T15:10:10Z</time>
      </trkpt>
      <trkpt lat="42.86959" lon="1.20533">
        <ele>514</ele>
        <time>2024-06-16T15:10:11Z</time>
      </trkpt>
      <trkpt lat="42.86957" lon="1.20539">
        <ele>513.6</ele>
        <time>2024-06-16T15:10:12Z</time>
      </trkpt>
      <trkpt lat="42.86954" lon="1.20544">
        <ele>513.2</ele>
        <time>2024-06-16T15:10:13Z</time>
      </trkpt>
      <trkpt lat="42.86952" lon="1.20549">
        <ele>512.8</ele>
        <time>2024-06-16T15:10:14Z</time>
      </trkpt>
      <trkpt lat="42.86946" lon="1.20567">
        <ele>512.8</ele>
        <time>2024-06-16T15:10:17Z</time>
      </trkpt>
      <trkpt lat="42.8693" lon="1.20601">
        <ele>512.8</ele>
        <time>2024-06-16T15:10:23Z</time>
      </trkpt>
      <trkpt lat="42.86913" lon="1.20642">
        <ele>512.8</ele>
        <time>2024-06-16T15:10:30Z</time>
      </trkpt>
      <trkpt lat="42.86907" lon="1.20652">
        <ele>512.8</ele>
        <time>2024-06-16T15:10:32Z</time>
      </trkpt>
      <trkpt lat="42.86886" lon="1.20695">
        <ele>512.8</ele>
        <time>2024-06-16T15:10:40Z</time>
      </trkpt>
      <trkpt lat="42.86882" lon="1.20706">
        <ele>512.8</ele>
        <time>2024-06-16T15:10:42Z</time>
      </trkpt>
      <trkpt lat="42.86864" lon="1.2075">
        <ele>512.8</ele>
        <time>2024-06-16T15:10:50Z</time>
      </trkpt>
      <trkpt lat="42.86848" lon="1.20784">
        <ele>512.8</ele>
        <time>2024-06-16T15:10:57Z</time>
      </trkpt>
      <trkpt lat="42.86842" lon="1.208">
        <ele>512.8</ele>
        <time>2024-06-16T15:11:00Z</time>
      </trkpt>
      <trkpt lat="42.86836" lon="1.20813">
        <ele>512.8</ele>
        <time>2024-06-16T15:11:03Z</time>
      </trkpt>
      <trkpt lat="42.86831" lon="1.20821">
        <ele>513.2</ele>
        <time>2024-06-16T15:11:05Z</time>
      </trkpt>
      <trkpt lat="42.86828" lon="1.20823">
        <ele>513.6</ele>
        <time>2024-06-16T15:11:06Z</time>
      </trkpt>
      <trkpt lat="42.86825" lon="1.20824">
        <ele>514</ele>
        <time>2024-06-16T15:11:07Z</time>
      </trkpt>
      <trkpt lat="42.86821" lon="1.20825">
        <ele>514.4</ele>
        <time>2024-06-16T15:11:08Z</time>
      </trkpt>
      <trkpt lat="42.86819" lon="1.20823">
        <ele>514.8</ele>
        <time>2024-06-16T15:11:09Z</time>
      </trkpt>
      <trkpt lat="42.86814" lon="1.20817">
        <ele>514.8</ele>
        <time>2024-06-16T15:11:11Z</time>
      </trkpt>
      <trkpt lat="42.86802" lon="1.20808">
        <ele>514.8</ele>
        <time>2024-06-16T15:11:15Z</time>
      </trkpt>
      <trkpt lat="42.86799" lon="1.20807">
        <ele>514.8</ele>
        <time>2024-06-16T15:11:16Z</time>
      </trkpt>
      <trkpt lat="42.86785" lon="1.20791">
        <ele>514.8</ele>
        <time>2024-06-16T15:11:21Z</time>
      </trkpt>
      <trkpt lat="42.86782" lon="1.20787">
        <ele>514.8</ele>
        <time>2024-06-16T15:11:22Z</time>
      </trkpt>
      <trkpt lat="42.86771" lon="1.20776">
        <ele>514.8</ele>
        <time>2024-06-16T15:11:26Z</time>
      </trkpt>
      <trkpt lat="42.86769" lon="1.20773">
        <ele>514.8</ele>
        <time>2024-06-16T15:11:29Z</time>
      </trkpt>
      <trkpt lat="42.86768" lon="1.20772">
        <ele>514.8</ele>
        <time>2024-06-16T15:11:30Z</time>
      </trkpt>
      <trkpt lat="42.86763" lon="1.20769">
        <ele>514.8</ele>
        <time>2024-06-16T15:11:34Z</time>
      </trkpt>
      <trkpt lat="42.86758" lon="1.20765">
        <ele>514.4</ele>
        <time>2024-06-16T15:11:36Z</time>
      </trkpt>
      <trkpt lat="42.86754" lon="1.20762">
        <ele>514</ele>
        <time>2024-06-16T15:11:37Z</time>
      </trkpt>
      <trkpt lat="42.86751" lon="1.20758">
        <ele>513.6</ele>
        <time>2024-06-16T15:11:38Z</time>
      </trkpt>
      <trkpt lat="42.86748" lon="1.20754">
        <ele>513.2</ele>
        <time>2024-06-16T15:11:39Z</time>
      </trkpt>
      <trkpt lat="42.86744" lon="1.20749">
        <ele>512.8</ele>
        <time>2024-06-16T15:11:40Z</time>
      </trkpt>
      <trkpt lat="42.86727" lon="1.20727">
        <ele>512.8</ele>
        <time>2024-06-16T15:11:45Z</time>
      </trkpt>
      <trkpt lat="42.86699" lon="1.20691">
        <ele>512.8</ele>
        <time>2024-06-16T15:11:52Z</time>
      </trkpt>
      <trkpt lat="42.86674" lon="1.20657">
        <ele>512.8</ele>
        <time>2024-06-16T15:11:59Z</time>
      </trkpt>
      <trkpt lat="42.86666" lon="1.20647">
        <ele>512.8</ele>
        <time>2024-06-16T15:12:01Z</time>
      </trkpt>
      <trkpt lat="42.86645" lon="1.2062">
        <ele>512.8</ele>
        <time>2024-06-16T15:12:07Z</time>
      </trkpt>
      <trkpt lat="42.86635" lon="1.20606">
        <ele>512.8</ele>
        <time>2024-06-16T15:12:10Z</time>
      </trkpt>
      <trkpt lat="42.86625" lon="1.20594">
        <ele>512.8</ele>
        <time>2024-06-16T15:12:13Z</time>
      </trkpt>
      <trkpt lat="42.86621" lon="1.20589">
        <ele>512.8</ele>
        <time>2024-06-16T15:12:14Z</time>
      </trkpt>
      <trkpt lat="42.86611" lon="1.20577">
        <ele>512.8</ele>
        <time>2024-06-16T15:12:17Z</time>
      </trkpt>
      <trkpt lat="42.86602" lon="1.20565">
        <ele>512.8</ele>
        <time>2024-06-16T15:12:20Z</time>
      </trkpt>
      <trkpt lat="42.86593" lon="1.20553">
        <ele>512.8</ele>
        <time>2024-06-16T15:12:23Z</time>
      </trkpt>
      <trkpt lat="42.86584" lon="1.20542">
        <ele>512.8</ele>
        <time>2024-06-16T15:12:26Z</time>
      </trkpt>
      <trkpt lat="42.86574" lon="1.2053">
        <ele>512.8</ele>
        <time>2024-06-16T15:12:29Z</time>
      </trkpt>
      <trkpt lat="42.86562" lon="1.20512">
        <ele>512.8</ele>
        <time>2024-06-16T15:12:33Z</time>
      </trkpt>
      <trkpt lat="42.86546" lon="1.20492">
        <ele>512.8</ele>
        <time>2024-06-16T15:12:39Z</time>
      </trkpt>
      <trkpt lat="42.86533" lon="1.2048">
        <ele>512.8</ele>
        <time>2024-06-16T15:12:44Z</time>
      </trkpt>
      <trkpt lat="42.86526" lon="1.20474">
        <ele>512.8</ele>
        <time>2024-06-16T15:12:46Z</time>
      </trkpt>
      <trkpt lat="42.86512" lon="1.2046">
        <ele>512.8</ele>
        <time>2024-06-16T15:12:50Z</time>
      </trkpt>
      <trkpt lat="42.86486" lon="1.20429">
        <ele>512.8</ele>
        <time>2024-06-16T15:12:58Z</time>
      </trkpt>
      <trkpt lat="42.86465" lon="1.20396">
        <ele>512.8</ele>
        <time>2024-06-16T15:13:05Z</time>
      </trkpt>
      <trkpt lat="42.86435" lon="1.20355">
        <ele>512.8</ele>
        <time>2024-06-16T15:13:14Z</time>
      </trkpt>
      <trkpt lat="42.86415" lon="1.20322">
        <ele>512.8</ele>
        <time>2024-06-16T15:13:21Z</time>
      </trkpt>
      <trkpt lat="42.864" lon="1.20291">
        <ele>512.8</ele>
        <time>2024-06-16T15:13:28Z</time>
      </trkpt>
      <trkpt lat="42.864" lon="1.20285">
        <ele>512.8</ele>
        <time>2024-06-16T15:13:31Z</time>
      </trkpt>
      <trkpt lat="42.864" lon="1.20285">
        <ele>512.8</ele>
        <time>2024-06-16T15:14:01Z</time>
      </trkpt>
      <trkpt lat="42.86393" lon="1.20272">
        <ele>512.8</ele>
        <time>2024-06-16T15:14:06Z</time>
      </trkpt>
      <trkpt lat="42.86389" lon="1.20264">
        <ele>512.8</ele>
        <time>2024-06-16T15:14:09Z</time>
      </trkpt>
      <trkpt lat="42.86387" lon="1.20263">
        <ele>512.8</ele>
        <time>2024-06-16T15:14:10Z</time>
      </trkpt>
      <trkpt lat="42.86376" lon="1.20258">
        <ele>512.8</ele>
        <time>2024-06-16T15:14:13Z</time>
      </trkpt>
      <trkpt lat="42.86372" lon="1.20254">
        <ele>512.8</ele>
        <time>2024-06-16T15:14:15Z</time>
      </trkpt>
      <trkpt lat="42.86371" lon="1.20251">
        <ele>512.8</ele>
        <time>2024-06-16T15:14:16Z</time>
      </trkpt>
      <trkpt lat="42.8637" lon="1.20248">
        <ele>512.8</ele>
        <time>2024-06-16T15:14:19Z</time>
      </trkpt>
      <trkpt lat="42.86369" lon="1.20247">
        <ele>512.8</ele>
        <time>2024-06-16T15:14:20Z</time>
      </trkpt>
      <trkpt lat="42.86368" lon="1.20247">
        <ele>512.8</ele>
        <time>2024-06-16T15:14:23Z</time>
      </trkpt>
    </trkseg>
  </trk>
</gpx>